[[{"header":{"parameterUnit":"m.s-1","parameterCategory":1,"la1":31.0,"la2":29.5877,"lo1":-88.7671,"lo2":-86.6584,"dx":0.0162,"dy":0.0185,"nx":115,"ny":88,"refTime":"2022-12-06T06:00:00:Z","depth":0,"parameterNumber":2,"parameterNumberName":"U-component_of_WINDS"},"data":[0.0,0.0,0.0,0.0,0.0,0.0,0.0,0.0,0.0,0.0,0.0,0.0,0.0,0.0,0.0,0.0,0.0,0.0,0.0,0.0,0.0,0.0,0.0,0.0,0.0,0.0,0.0,0.0,0.0,0.0,0.0,0.0,0.0,0.0,0.0,0.0,0.0,0.0,0.0,0.0,0.0,0.0,0.0,0.0,0.0,0.0,0.0,0.0,0.0,0.0,0.0,0.0,0.0,0.0,0.0,0.0,0.0,0.0,0.0,0.0,0.0,0.0,0.0,0.0,0.0,0.0,0.0,0.0,0.0,0.0,0.0,0.0,0.0,0.0,0.0,0.0,0.0,0.0,0.0,0.0,0.0,0.0,0.0,0.0,0.0,0.0,0.0,0.0,0.0,0.0,0.0,0.0,0.0,0.0,0.0,0.0,0.0,0.0,0.0,0.0,0.0,0.0,0.0,0.0,0.0,0.0,0.0,0.0,0.0,0.0,0.0,0.0,0.0,0.0,0.0,0.0,0.0,0.0,0.0,0.0,0.0,0.0,0.0,0.0,0.0,0.0,0.0,0.0,0.0,0.0,0.0,0.0,0.0,0.0,0.0,0.0,0.0,0.0,0.0,0.0,0.0,0.0,0.0,0.0,0.0,0.0,0.0,0.0,0.0,0.0,0.0,0.0,0.0,0.0,0.0,0.0,0.0,0.0,0.0,0.0,0.0,0.0,0.0,0.0,0.0,0.0,0.0,0.0,0.0,0.0,0.0,0.0,0.0,0.0,0.0,0.0,0.0,0.0,0.0,0.0,0.0,0.0,0.0,0.0,0.0,0.0,0.0,0.0,0.0,0.0,0.0,0.0,0.0,0.0,0.0,0.0,0.0,0.0,0.0,0.0,0.0,0.0,0.0,0.0,0.0,0.0,0.0,0.0,0.0,0.0,0.0,0.0,0.0,0.0,0.0,0.0,0.0,0.0,0.0,0.0,0.0,0.0,0.0,0.0,0.0,0.0,0.0,0.0,0.0,0.0,0.0,0.0,0.0,0.0,0.0,0.0,0.0,0.0,0.0,0.0,0.0,0.0,0.0,0.0,0.0,0.0,0.0,0.0,0.0,0.0,0.0,0.0,0.0,0.0,0.0,0.0,0.0,0.0,0.0,0.0,0.0,0.0,0.0,0.0,0.0,0.0,0.0,0.0,0.0,0.0,0.0,0.0,0.0,0.0,0.0,0.0,0.0,0.0,0.0,0.0,0.0,0.0,0.0,0.0,0.0,0.0,0.0,0.0,0.0,0.0,0.0,0.0,0.0,0.0,0.0,0.0,0.0,0.0,0.0,0.0,0.0,0.0,0.0,0.0,0.0,0.0,0.0,0.0,0.0,0.0,0.0,0.0,0.0,0.0,0.0,0.0,0.0,0.0,0.0,0.0,0.0,0.0,0.0,0.0,0.0,0.0,0.0,0.0,0.0,0.0,0.0,0.0,0.0,0.0,0.0,0.0,0.0,0.0,0.0,0.0,0.0,0.0,0.0,0.0,0.0,0.0,0.0,0.0,0.0,0.0,0.0,0.0,0.0,0.0,0.0,0.0,0.0,0.0,0.0,0.0,0.0,0.0,0.0,0.0,0.0,0.0,0.0,0.0,0.0,0.0,0.0,0.0,0.0,0.0,0.0,0.0,0.0,0.0,0.0,0.0,0.0,0.0,0.0,0.0,0.0,0.0,0.0,0.0,0.0,0.0,0.0,0.0,0.0,0.0,0.0,0.0,0.0,0.0,0.0,0.0,0.0,0.0,0.0,0.0,0.0,0.0,0.0,0.0,0.0,0.0,0.0,0.0,0.0,0.0,0.0,0.0,0.0,0.0,0.0,0.0,0.0,0.0,0.0,0.0,0.0,0.0,0.0,0.0,0.0,0.0,0.0,0.0,0.0,0.0,0.0,0.0,0.0,0.0,0.0,0.0,0.0,0.0,0.0,0.0,0.0,0.0,0.0,0.0,0.0,0.0,0.0,0.0,0.0,0.0,0.0,0.0,0.0,0.0,0.0,0.0,0.0,0.0,0.0,0.0,0.0,0.0,0.0,0.0,0.0,0.0,0.0,0.0,0.0,0.0,0.0,0.0,0.0,0.0,0.0,0.0,0.0,0.0,0.0,0.0,0.0,0.0,0.0,0.0,0.0,0.0,0.0,0.0,0.0,0.0,0.0,0.0,0.0,0.0,0.0,0.0,0.0,0.0,0.0,0.0,0.0,0.0,0.0,0.0,0.0,0.0,0.0,0.0,0.0,0.0,0.0,0.0,0.0,0.0,0.0,0.0,0.0,0.0,0.0,0.0,0.0,0.0,0.0,0.0,0.0,0.0,0.0,0.0,0.0,0.0,0.0,0.0,0.0,0.0,0.0,0.0,0.0,0.0,0.0,0.0,0.0,0.0,0.0,0.0,0.0,0.0,0.0,0.0,0.0,0.0,0.0,0.0,0.0,0.0,0.0,0.0,0.0,0.0,0.0,0.0,0.0,0.0,0.0,0.0,0.0,0.0,0.0,0.0,0.0,0.0,0.0,0.0,0.0,0.0,0.0,0.0,0.0,0.0,0.0,0.0,0.0,0.0,0.0,0.0,0.0,0.0,0.0,0.0,0.0,0.0,0.0,0.0,0.0,0.0,0.0,0.0,0.0,0.0,0.0,0.0,0.0,0.0,0.0,0.0,0.0,0.0,0.0,0.0,0.0,0.0,0.0,0.0,0.0,0.0,0.0,0.0,0.0,0.0,0.0,0.0,0.0,0.0,0.0,0.0,0.0,0.0,0.0,0.0,0.0,0.0,0.0,0.0,0.0,0.0,0.0,0.0,0.0,0.0,0.0,0.0,0.0,0.0,0.0,0.0,0.0,0.0,0.0,0.0,0.0,0.0,0.0,0.0,0.0,0.0,0.0,0.0,0.0,0.0,0.0,0.0,0.0,0.0,0.0,0.0,0.0,0.0,0.0,0.0,0.0,0.0,0.0,0.0,0.0,0.0,0.0,0.0,0.0,0.0,0.0,0.0,0.0,0.0,0.0,0.0,0.0,0.0,0.0,0.0,0.0,0.0,0.0,0.0,0.0,0.0,0.0,0.0,0.0,0.0,0.0,0.0,0.0,0.0,0.0,0.0,0.0,0.0,0.0,0.0,0.0,0.0,0.0,0.0,0.0,0.0,0.0,0.0,0.0,0.0,0.0,0.0,0.0,0.0,0.0,0.0,0.0,0.0,0.0,0.0,0.0,0.0,0.0,0.0,0.0,0.0,0.0,0.0,0.0,0.0,0.0,0.0,0.0,0.0,0.0,0.0,0.0,0.0,0.0,0.0,0.0,0.0,0.0,0.0,0.0,0.0,0.0,0.0,0.0,0.0,0.0,0.0,0.0,0.0,0.0,0.0,0.0,0.0,0.0,0.0,0.0,0.0,0.0,0.0,0.0,0.0,0.0,0.0,0.0,0.0,0.0,0.0,0.0,0.0,0.0,0.0,0.0,0.0,0.0,0.0,0.0,0.0,0.0,0.0,0.0,0.0,0.0,0.0,0.0,0.0,0.0,0.0,0.0,0.0,0.0,0.0,0.0,0.0,0.0,0.0,0.0,0.0,0.0,0.0,0.0,0.0,0.0,0.0,0.0,0.0,0.0,0.0,0.0,0.0,0.0,0.0,0.0,0.0,0.0,0.0,0.0,0.0,0.0,0.0,0.0,0.0,0.0,0.0,0.0,0.0,0.0,0.0,0.0,0.0,0.0,0.0,0.0,0.0,0.0,0.0,0.0,0.0,0.0,0.0,0.0,0.0,0.0,0.0,0.0,0.0,0.0,0.0,0.0,0.0,0.0,0.0,0.0,0.0,0.0,0.0,0.0,0.0,0.0,0.0,0.0,0.0,0.0,0.0,0.0,0.0,0.0,0.0,0.0,0.0,0.0,0.0,0.0,0.0,0.0,0.0,0.0,0.0,0.0,0.0,0.0,0.0,0.0,0.0,0.0,0.0,0.0,0.0,0.0,0.0,0.0,0.0,0.0,0.0,0.0,0.0,0.0,0.0,0.0,0.0,0.0,0.0,0.0,0.0,0.0,0.0,0.0,0.0,0.0,0.0,0.0,0.0,0.0,0.0,0.0,0.0,0.0,0.0,0.0,0.0,0.0,0.0,0.0,0.0,0.0,0.0,0.0,0.0,0.0,0.0,0.0,0.0,0.0,0.0,0.0,0.0,0.0,0.0,0.0,0.0,0.0,0.0,0.0,0.0,0.0,0.0,-1.1364,0.0,0.0,0.0,-1.1005,0.0,0.0,0.0,0.0,0.0,0.0,0.0,0.0,0.0,0.0,0.0,0.0,0.0,0.0,0.0,0.0,0.0,0.0,0.0,0.0,0.0,0.0,0.0,0.0,0.0,0.0,0.0,0.0,0.0,0.0,0.0,0.0,0.0,0.0,0.0,0.0,0.0,0.0,0.0,0.0,0.0,0.0,0.0,0.0,0.0,0.0,0.0,0.0,0.0,0.0,0.0,0.0,0.0,0.0,0.0,0.0,0.0,0.0,0.0,0.0,0.0,0.0,0.0,0.0,0.0,0.0,0.0,0.0,0.0,0.0,0.0,0.0,0.0,0.0,0.0,0.0,0.0,0.0,0.0,0.0,0.0,0.0,0.0,0.0,0.0,0.0,0.0,0.0,0.0,0.0,0.0,0.0,0.0,0.0,0.0,0.0,0.0,0.0,0.0,0.0,0.0,0.0,0.0,0.0,0.0,0.0,0.0,0.0,0.0,0.0,-1.1364,-1.095,-1.1587,-1.1664,-1.0912,0.0,0.0,0.0,0.0,0.0,0.0,0.0,0.0,0.0,0.0,0.0,0.0,0.0,0.0,0.0,0.0,0.0,0.0,0.0,0.0,0.0,0.0,0.0,0.0,0.0,0.0,0.0,0.0,0.0,0.0,0.0,0.0,0.0,0.0,0.0,0.0,0.0,0.0,0.0,0.0,0.0,0.0,0.0,0.0,0.0,0.0,0.0,0.0,0.0,0.0,0.0,0.0,0.0,0.0,0.0,0.0,0.0,0.0,0.0,0.0,0.0,0.0,0.0,0.0,0.0,0.0,0.0,0.0,0.0,0.0,0.0,0.0,0.0,0.0,0.0,0.0,0.0,0.0,0.0,0.0,0.0,0.0,0.0,0.0,0.0,0.0,0.0,0.0,0.0,0.0,0.0,0.0,0.0,0.0,0.0,0.0,0.0,0.0,0.0,0.0,0.0,0.0,0.0,0.0,0.0,0.0,0.0,0.0,0.0,0.0,0.0,0.0,-1.1597,-1.1638,-1.0922,0.0,0.0,0.0,0.0,0.0,0.0,0.0,0.0,0.0,0.0,0.0,0.0,0.0,0.0,0.0,0.0,0.0,0.0,0.0,0.0,0.0,0.0,0.0,0.0,0.0,0.0,0.0,0.0,0.0,0.0,0.0,0.0,0.0,0.0,0.0,0.0,0.0,0.0,0.0,0.0,0.0,0.0,0.0,0.0,0.0,0.0,0.0,0.0,0.0,0.0,0.0,0.0,0.0,0.0,0.0,0.0,0.0,0.0,0.0,0.0,0.0,0.0,0.0,0.0,0.0,0.0,0.0,0.0,0.0,0.0,0.0,0.0,0.0,0.0,0.0,0.0,0.0,0.0,0.0,0.0,0.0,0.0,0.0,0.0,0.0,0.0,0.0,0.0,0.0,0.0,0.0,0.0,0.0,0.0,0.0,0.0,0.0,0.0,0.0,0.0,0.0,0.0,0.0,0.0,0.0,0.0,0.0,0.0,0.0,0.0,-1.0922,-1.0886,-1.1012,0.0,-1.0859,0.0,0.0,0.0,0.0,0.0,0.0,0.0,0.0,0.0,0.0,0.0,0.0,0.0,0.0,0.0,0.0,0.0,0.0,0.0,0.0,0.0,0.0,0.0,0.0,0.0,0.0,0.0,0.0,0.0,0.0,0.0,0.0,0.0,0.0,0.0,0.0,0.0,0.0,0.0,0.0,0.0,0.0,0.0,0.0,0.0,0.0,0.0,0.0,0.0,0.0,0.0,0.0,0.0,0.0,0.0,0.0,0.0,0.0,0.0,0.0,0.0,0.0,0.0,0.0,0.0,0.0,0.0,0.0,0.0,0.0,0.0,0.0,0.0,0.0,0.0,0.0,0.0,0.0,0.0,0.0,0.0,0.0,0.0,0.0,0.0,0.0,0.0,0.0,0.0,0.0,0.0,0.0,0.0,0.0,0.0,0.0,0.0,0.0,0.0,0.0,0.0,0.0,0.0,0.0,0.0,0.0,0.0,0.0,0.0,0.0,-1.0881,-1.0881,-1.0623,-1.0594,0.0,0.0,0.0,0.0,0.0,0.0,0.0,0.0,0.0,0.0,0.0,0.0,0.0,0.0,0.0,0.0,0.0,0.0,0.0,0.0,0.0,0.0,0.0,0.0,0.0,0.0,0.0,0.0,0.0,0.0,0.0,0.0,0.0,0.0,0.0,0.0,0.0,0.0,0.0,0.0,0.0,0.0,0.0,0.0,0.0,0.0,0.0,0.0,0.0,0.0,0.0,0.0,0.0,0.0,0.0,0.0,0.0,0.0,0.0,0.0,0.0,0.0,0.0,0.0,0.0,0.0,0.0,0.0,0.0,0.0,0.0,0.0,0.0,0.0,0.0,0.0,0.0,0.0,0.0,0.0,0.0,0.0,0.0,0.0,0.0,0.0,0.0,0.0,0.0,0.0,0.0,0.0,0.0,0.0,0.0,0.0,0.0,0.0,0.0,0.0,0.0,0.0,0.0,0.0,0.0,0.0,0.0,0.0,0.0,0.0,-1.0819,-1.0881,-1.086,-1.0438,-1.0292,-1.0508,0.0,0.0,0.0,0.0,0.0,0.0,0.0,0.0,0.0,0.0,0.0,0.0,0.0,0.0,0.0,0.0,0.0,0.0,0.0,0.0,0.0,0.0,0.0,0.0,0.0,0.0,0.0,0.0,0.0,0.0,0.0,0.0,0.0,0.0,0.0,0.0,0.0,0.0,0.0,0.0,0.0,0.0,0.0,0.0,0.0,0.0,0.0,0.0,0.0,0.0,0.0,0.0,0.0,0.0,0.0,0.0,0.0,0.0,0.0,0.0,0.0,0.0,0.0,0.0,0.0,0.0,0.0,0.0,0.0,0.0,0.0,0.0,0.0,0.0,0.0,0.0,0.0,0.0,0.0,0.0,0.0,0.0,0.0,0.0,0.0,0.0,0.0,0.0,0.0,0.0,0.0,0.0,0.0,0.0,0.0,0.0,0.0,0.0,0.0,0.0,0.0,0.0,0.0,0.0,0.0,0.0,0.0,0.0,-1.0252,-1.0659,-1.0886,-1.0891,-1.0443,-0.9994,0.0,0.0,0.0,0.0,0.0,0.0,0.0,0.0,0.0,0.0,0.0,0.0,0.0,0.0,0.0,0.0,0.0,0.0,0.0,0.0,0.0,0.0,0.0,0.0,0.0,0.0,0.0,0.0,0.0,0.0,0.0,0.0,0.0,0.0,0.0,0.0,0.0,0.0,0.0,0.0,0.0,0.0,0.0,0.0,0.0,0.0,0.0,0.0,0.0,0.0,0.0,0.0,0.0,0.0,0.0,0.0,0.0,0.0,0.0,0.0,0.0,0.0,0.0,0.0,0.0,0.0,0.0,0.0,0.0,0.0,0.0,0.0,0.0,0.0,0.0,0.0,0.0,0.0,0.0,0.0,0.0,0.0,0.0,0.0,0.0,0.0,0.0,0.0,0.0,0.0,0.0,0.0,0.0,0.0,0.0,0.0,0.0,0.0,0.0,0.0,0.0,0.0,0.0,0.0,0.0,0.0,0.0,0.0,0.0,-1.0216,-1.0654,-1.102,-1.1292,-1.0303,-0.9674,0.0,0.0,0.0,0.0,0.0,0.0,0.0,0.0,0.0,0.0,0.0,0.0,0.0,0.0,0.0,0.0,0.0,0.0,0.0,0.0,0.0,0.0,0.0,0.0,0.0,0.0,0.0,0.0,0.0,0.0,0.0,0.0,0.0,0.0,0.0,0.0,0.0,0.0,0.0,0.0,0.0,0.0,0.0,0.0,0.0,0.0,0.0,0.0,0.0,0.0,0.0,0.0,0.0,0.0,0.0,0.0,0.0,0.0,0.0,0.0,0.0,0.0,0.0,0.0,0.0,0.0,0.0,0.0,0.0,0.0,0.0,0.0,0.0,0.0,0.0,0.0,0.0,0.0,0.0,0.0,0.0,0.0,0.0,0.0,0.0,0.0,0.0,0.0,0.0,0.0,0.0,0.0,0.0,0.0,0.0,0.0,0.0,0.0,0.0,0.0,0.0,0.0,0.0,0.0,0.0,0.0,0.0,0.0,0.0,-1.0412,-1.0726,-1.1074,-1.1318,-1.0288,-0.9669,0.0,0.0,0.0,0.0,0.0,0.0,0.0,0.0,0.0,0.0,0.0,0.0,0.0,0.0,0.0,0.0,0.0,0.0,0.0,0.0,0.0,0.0,0.0,0.0,0.0,0.0,0.0,0.0,0.0,0.0,0.0,0.0,0.0,0.0,0.0,0.0,0.0,0.0,0.0,0.0,0.0,0.0,0.0,0.0,0.0,0.0,0.0,0.0,0.0,0.0,0.0,0.0,0.0,0.0,0.0,0.0,0.0,0.0,0.0,0.0,0.0,0.0,0.0,0.0,0.0,0.0,0.0,0.0,0.0,0.0,0.0,0.0,0.0,0.0,0.0,0.0,0.0,0.0,0.0,0.0,0.0,0.0,0.0,0.0,0.0,0.0,0.0,0.0,0.0,0.0,0.0,0.0,0.0,0.0,0.0,0.0,0.0,0.0,0.0,0.0,0.0,0.0,0.0,0.0,0.0,0.0,0.0,0.0,-0.9953,-1.0829,-1.0876,-1.0945,-1.0891,-1.0443,-0.9984,0.0,0.0,0.0,0.0,0.0,0.0,0.0,0.0,0.0,0.0,0.0,0.0,0.0,0.0,0.0,0.0,0.0,0.0,0.0,0.0,0.0,0.0,0.0,0.0,0.0,0.0,0.0,0.0,0.0,0.0,0.0,0.0,0.0,0.0,0.0,0.0,0.0,0.0,0.0,0.0,0.0,0.0,0.0,0.0,0.0,0.0,0.0,0.0,0.0,0.0,0.0,0.0,0.0,0.0,0.0,0.0,0.0,0.0,0.0,0.0,0.0,0.0,0.0,0.0,0.0,0.0,0.0,0.0,0.0,0.0,0.0,0.0,0.0,0.0,0.0,0.0,0.0,0.0,0.0,0.0,0.0,0.0,0.0,0.0,0.0,0.0,0.0,0.0,0.0,0.0,0.0,0.0,0.0,0.0,0.0,0.0,0.0,0.0,0.0,0.0,0.0,0.0,0.0,0.0,0.0,0.0,0.0,0.0,0.0,-1.085,-1.0881,-1.1064,-1.1328,-1.0597,-1.0574,0.0,0.0,0.0,0.0,0.0,0.0,0.0,0.0,0.0,0.0,0.0,0.0,0.0,0.0,0.0,0.0,0.0,0.0,0.0,0.0,0.0,0.0,0.0,0.0,0.0,0.0,0.0,0.0,0.0,0.0,0.0,0.0,0.0,0.0,0.0,0.0,0.0,0.0,0.0,0.0,0.0,0.0,0.0,0.0,0.0,0.0,0.0,0.0,0.0,0.0,0.0,0.0,0.0,0.0,0.0,0.0,0.0,0.0,0.0,0.0,0.0,0.0,0.0,0.0,0.0,0.0,0.0,0.0,0.0,0.0,0.0,0.0,0.0,0.0,0.0,0.0,0.0,0.0,0.0,0.0,0.0,0.0,0.0,0.0,0.0,0.0,0.0,0.0,0.0,0.0,0.0,0.0,0.0,0.0,0.0,0.0,0.0,0.0,0.0,0.0,0.0,0.0,0.0,0.0,0.0,0.0,0.0,0.0,0.0,-1.1116,-1.1012,-1.1059,-1.1323,-1.0737,-1.0848,-1.1682,0.0,0.0,0.0,0.0,0.0,0.0,0.0,0.0,0.0,0.0,0.0,0.0,0.0,0.0,0.0,0.0,0.0,0.0,0.0,0.0,0.0,0.0,0.0,0.0,0.0,0.0,0.0,0.0,0.0,0.0,0.0,0.0,0.0,0.0,0.0,0.0,0.0,0.0,0.0,0.0,0.0,0.0,0.0,0.0,0.0,0.0,0.0,0.0,0.0,0.0,0.0,0.0,0.0,0.0,0.0,0.0,0.0,0.0,0.0,0.0,0.0,0.0,0.0,0.0,0.0,0.0,0.0,0.0,0.0,0.0,0.0,0.0,0.0,0.0,0.0,0.0,0.0,0.0,0.0,0.0,0.0,0.0,0.0,0.0,0.0,0.0,0.0,0.0,0.0,0.0,0.0,0.0,0.0,0.0,0.0,0.0,0.0,0.0,0.0,0.0,0.0,0.0,0.0,0.0,0.0,0.0,0.0,0.0,-1.1643,-1.1219,-1.0997,-1.0976,-1.0874,-1.0851,0.0,0.0,0.0,0.0,0.0,0.0,0.0,0.0,0.0,0.0,0.0,0.0,0.0,0.0,0.0,0.0,0.0,0.0,0.0,0.0,0.0,0.0,0.0,0.0,0.0,0.0,0.0,0.0,0.0,0.0,0.0,0.0,0.0,0.0,0.0,0.0,0.0,0.0,0.0,0.0,0.0,0.0,0.0,0.0,0.0,0.0,0.0,0.0,0.0,0.0,0.0,0.0,0.0,0.0,0.0,0.0,0.0,0.0,0.0,0.0,0.0,0.0,0.0,0.0,0.0,0.0,0.0,0.0,0.0,0.0,0.0,0.0,0.0,0.0,0.0,0.0,0.0,0.0,0.0,0.0,0.0,0.0,0.0,0.0,0.0,0.0,0.0,0.0,0.0,0.0,0.0,0.0,0.0,0.0,0.0,0.0,0.0,0.0,0.0,0.0,0.0,0.0,0.0,0.0,0.0,0.0,0.0,0.0,0.0,-1.2074,-1.2011,-1.1752,-1.1416,-1.131,-1.1077,0.0,0.0,0.0,0.0,0.0,0.0,0.0,0.0,0.0,0.0,0.0,0.0,0.0,0.0,0.0,0.0,0.0,0.0,0.0,0.0,0.0,0.0,0.0,0.0,0.0,0.0,0.0,0.0,0.0,0.0,0.0,0.0,0.0,0.0,0.0,0.0,0.0,0.0,0.0,0.0,0.0,0.0,0.0,0.0,0.0,0.0,0.0,0.0,0.0,0.0,0.0,0.0,0.0,0.0,0.0,0.0,0.0,0.0,0.0,0.0,0.0,0.0,0.0,0.0,0.0,0.0,0.0,0.0,0.0,0.0,0.0,0.0,0.0,0.0,0.0,0.0,0.0,0.0,0.0,0.0,0.0,0.0,0.0,0.0,0.0,0.0,0.0,0.0,0.0,0.0,0.0,0.0,0.0,0.0,0.0,0.0,0.0,0.0,0.0,0.0,0.0,0.0,0.0,0.0,0.0,0.0,0.0,0.0,-1.1633,-1.2523,-1.2736,-1.2611,-1.2124,-1.1834,-1.1337,0.0,0.0,0.0,0.0,0.0,0.0,0.0,0.0,0.0,0.0,0.0,0.0,0.0,0.0,0.0,0.0,0.0,0.0,0.0,0.0,0.0,0.0,0.0,0.0,0.0,0.0,0.0,0.0,0.0,0.0,0.0,0.0,0.0,0.0,0.0,0.0,0.0,0.0,0.0,0.0,0.0,0.0,0.0,0.0,0.0,0.0,0.0,0.0,0.0,0.0,0.0,0.0,0.0,0.0,0.0,0.0,0.0,0.0,0.0,0.0,0.0,0.0,0.0,0.0,0.0,0.0,0.0,0.0,0.0,0.0,0.0,0.0,0.0,0.0,0.0,0.0,0.0,0.0,0.0,0.0,0.0,0.0,0.0,0.0,0.0,0.0,0.0,0.0,0.0,0.0,0.0,0.0,0.0,0.0,0.0,0.0,0.0,0.0,0.0,0.0,0.0,0.0,0.0,0.0,0.0,0.0,0.0,0.0,-1.2125,-1.2939,-1.3356,-1.333,-1.2884,-1.2384,-1.1689,0.0,0.0,0.0,0.0,0.0,0.0,0.0,0.0,0.0,0.0,0.0,0.0,0.0,0.0,0.0,0.0,0.0,0.0,0.0,0.0,0.0,0.0,0.0,0.0,0.0,0.0,0.0,0.0,0.0,0.0,0.0,0.0,0.0,0.0,0.0,0.0,0.0,0.0,0.0,0.0,0.0,0.0,0.0,0.0,0.0,0.0,0.0,0.0,0.0,0.0,0.0,0.0,0.0,0.0,0.0,0.0,0.0,0.0,0.0,0.0,0.0,0.0,0.0,0.0,0.0,0.0,0.0,0.0,0.0,0.0,0.0,0.0,0.0,0.0,0.0,0.0,0.0,0.0,0.0,0.0,0.0,0.0,0.0,0.0,0.0,0.0,0.0,0.0,0.0,0.0,0.0,0.0,0.0,0.0,0.0,0.0,0.0,0.0,0.0,0.0,0.0,0.0,0.0,0.0,0.0,0.0,0.0,0.0,-1.2901,-1.3403,-1.3469,-1.3369,-1.3277,-1.2751,-1.2138,0.0,0.0,0.0,0.0,0.0,0.0,0.0,0.0,0.0,0.0,0.0,0.0,0.0,0.0,0.0,0.0,0.0,0.0,0.0,0.0,0.0,0.0,0.0,0.0,0.0,0.0,0.0,0.0,0.0,0.0,0.0,0.0,0.0,0.0,0.0,0.0,0.0,0.0,0.0,0.0,0.0,0.0,0.0,0.0,0.0,0.0,0.0,0.0,-0.5245,0.0,0.0,0.0,0.0,0.0,0.0,0.0,0.0,0.0,0.0,0.0,0.0,0.0,0.0,0.0,0.0,0.0,0.0,0.0,0.0,0.0,0.0,0.0,0.0,0.0,0.0,0.0,0.0,0.0,0.0,0.0,0.0,0.0,0.0,0.0,0.0,0.0,0.0,0.0,0.0,0.0,0.0,0.0,0.0,0.0,0.0,0.0,0.0,0.0,0.0,0.0,0.0,0.0,0.0,0.0,0.0,0.0,0.0,0.0,-1.3063,-1.3494,-1.3367,-1.3271,-1.3233,-1.2974,-1.2569,0.0,0.0,0.0,0.0,0.0,0.0,0.0,0.0,0.0,0.0,0.0,0.0,0.0,0.0,0.0,0.0,0.0,0.0,0.0,0.0,0.0,0.0,0.0,0.0,0.0,0.0,0.0,0.0,0.0,0.0,0.0,0.0,0.0,0.0,0.0,0.0,0.0,0.0,0.0,0.0,0.0,0.0,0.0,0.0,0.0,0.0,0.0,0.0,0.0,0.0,0.0,0.0,0.0,0.0,0.0,0.0,0.0,0.0,0.0,0.0,0.0,0.0,0.0,0.0,0.0,0.0,0.0,0.0,0.0,0.0,0.0,0.0,0.0,0.0,0.0,0.0,0.0,0.0,0.0,0.0,0.0,0.0,0.0,0.0,0.0,0.0,0.0,0.0,0.0,0.0,0.0,0.0,0.0,0.0,0.0,0.0,0.0,0.0,0.0,0.0,0.0,0.0,0.0,0.0,0.0,0.0,0.0,-1.2113,-1.2965,-1.3341,-1.3271,-1.3142,-1.2978,-1.2934,-1.2612,-1.1902,0.0,0.0,0.0,0.0,0.0,0.0,0.0,0.0,0.0,0.0,0.0,0.0,0.0,0.0,0.0,0.0,0.0,0.0,0.0,0.0,0.0,0.0,0.0,0.0,0.0,0.0,0.0,0.0,0.0,0.0,0.0,0.0,0.0,0.0,0.0,0.0,0.0,0.0,-0.6188,-0.6901,0.0,0.0,0.0,0.0,0.0,0.0,0.0,0.0,-0.423,0.0,0.0,0.0,0.0,0.0,0.0,0.0,0.0,0.0,0.0,0.0,0.0,0.0,0.0,0.0,0.0,0.0,0.0,0.0,0.0,0.0,0.0,0.0,0.0,0.0,0.0,0.0,0.0,0.0,0.0,0.0,0.0,0.0,0.0,0.0,0.0,0.0,0.0,0.0,0.0,0.0,0.0,0.0,0.0,0.0,0.0,0.0,0.0,0.0,0.0,0.0,0.0,0.0,0.0,0.0,0.0,-1.1216,-1.213,-1.2827,-1.3203,-1.3152,-1.2866,-1.2363,-1.2318,-1.1535,-1.012,0.0,0.0,0.0,0.0,0.0,0.0,0.0,0.0,0.0,0.0,0.0,0.0,0.0,0.0,0.0,0.0,0.0,0.0,0.0,0.0,0.0,0.0,0.0,0.0,0.0,0.0,0.0,0.0,0.0,0.0,0.0,0.0,0.0,0.0,0.0,0.0,0.0,0.0,0.0,-0.747,-0.7263,0.0,0.0,0.0,0.0,0.0,0.0,0.0,0.0,-0.3841,0.0,0.0,0.0,0.0,0.0,0.0,0.0,0.0,0.0,0.0,0.0,0.0,0.0,0.0,0.0,0.0,0.0,0.0,0.0,0.0,0.0,0.0,0.0,0.0,0.0,0.0,0.0,0.0,0.0,0.0,0.0,0.0,0.0,0.0,0.0,0.0,0.0,0.0,0.0,0.0,0.0,0.0,0.0,0.0,0.0,0.0,0.0,0.0,0.0,0.0,0.0,0.0,0.0,0.0,0.0,-1.092,-1.2208,-1.2893,-1.2926,-1.2723,-1.2376,-1.1944,-1.1766,-1.092,0.0,0.0,0.0,0.0,0.0,0.0,0.0,0.0,0.0,0.0,0.0,0.0,0.0,0.0,0.0,0.0,0.0,0.0,0.0,0.0,0.0,0.0,0.0,0.0,0.0,0.0,0.0,0.0,0.0,0.0,0.0,0.0,0.0,0.0,0.0,0.0,0.0,0.0,0.0,0.0,-0.6846,-0.6598,-0.6137,0.0,0.0,0.0,0.0,0.0,0.0,-0.3654,-0.3587,0.0,0.0,0.0,0.0,0.0,0.0,0.0,0.0,0.0,0.0,0.0,0.0,0.0,0.0,0.0,0.0,0.0,0.0,0.0,0.0,0.0,0.0,0.0,0.0,0.0,0.0,0.0,0.0,0.0,0.0,0.0,0.0,0.0,0.0,0.0,0.0,0.0,0.0,0.0,0.0,0.0,0.0,0.0,0.0,0.0,0.0,0.0,0.0,0.0,0.0,0.0,0.0,0.0,0.0,0.0,-1.0459,-1.1834,-1.2575,-1.2486,-1.2113,-1.18,-1.153,-1.1191,-1.031,0.0,0.0,0.0,0.0,0.0,0.0,0.0,0.0,0.0,0.0,0.0,0.0,0.0,0.0,0.0,0.0,0.0,0.0,0.0,0.0,0.0,0.0,0.0,0.0,0.0,0.0,0.0,0.0,0.0,0.0,0.0,0.0,0.0,0.0,0.0,0.0,0.0,0.0,0.0,0.0,0.0,-0.5935,-0.5923,-0.5338,0.0,0.0,0.0,0.0,-0.3547,-0.3601,0.0,0.0,0.0,0.0,0.0,0.0,0.0,0.0,0.0,0.0,0.0,0.0,0.0,0.0,0.0,0.0,0.0,0.0,0.0,0.0,0.0,0.0,0.0,0.0,0.0,0.0,0.0,0.0,0.0,0.0,0.0,0.0,0.0,0.0,0.0,0.0,0.0,0.0,0.0,0.0,0.0,0.0,0.0,0.0,0.0,0.0,0.0,0.0,0.0,0.0,0.0,0.0,0.0,0.0,0.0,0.0,-1.0134,-1.061,-1.1187,-1.1756,-1.1498,-1.117,-1.0985,-1.0677,-0.9674,0.0,0.0,0.0,0.0,0.0,0.0,0.0,0.0,0.0,0.0,0.0,0.0,0.0,0.0,0.0,0.0,0.0,0.0,0.0,0.0,0.0,0.0,0.0,0.0,0.0,0.0,0.0,0.0,0.0,0.0,0.0,0.0,0.0,0.0,0.0,0.0,0.0,0.0,0.0,0.0,0.0,-0.6003,-0.5155,-0.4958,-0.4685,0.0,0.0,-0.3838,-0.407,-0.3931,0.0,0.0,0.0,0.0,0.0,0.0,0.0,0.0,0.0,0.0,0.0,0.0,0.0,0.0,0.0,0.0,0.0,0.0,0.0,0.0,0.0,0.0,0.0,0.0,0.0,0.0,0.0,0.0,0.0,0.0,0.0,0.0,0.0,0.0,0.0,0.0,0.0,0.0,0.0,0.0,0.0,0.0,0.0,0.0,0.0,0.0,0.0,0.0,0.0,0.0,0.0,0.0,0.0,0.0,0.0,-0.9103,-0.9475,-1.0435,-1.1119,-1.1479,-1.1039,-1.0757,-1.0735,-1.0253,-0.9354,0.0,0.0,0.0,0.0,0.0,0.0,0.0,0.0,0.0,0.0,0.0,0.0,0.0,0.0,0.0,0.0,0.0,0.0,0.0,0.0,0.0,0.0,0.0,0.0,0.0,0.0,0.0,0.0,0.0,0.0,0.0,0.0,0.0,0.0,0.0,0.0,0.0,0.0,0.0,0.0,0.0,0.0,-0.4997,-0.459,0.0,0.0,0.0,-0.3679,-0.3765,0.0,0.0,0.0,0.0,0.0,0.0,0.0,0.0,0.0,0.0,0.0,0.0,0.0,0.0,0.0,0.0,0.0,0.0,0.0,0.0,0.0,0.0,0.0,0.0,0.0,0.0,0.0,0.0,0.0,0.0,0.0,0.0,0.0,0.0,0.0,0.0,0.0,0.0,0.0,0.0,0.0,0.0,0.0,0.0,0.0,0.0,0.0,0.0,0.0,0.0,0.0,0.0,0.0,0.0,0.0,0.0,0.0,-0.8879,-1.0111,-1.0934,-1.1143,-1.0539,-1.036,-1.0607,-0.9958,0.0,0.0,0.0,0.0,0.0,0.0,0.0,0.0,0.0,0.0,0.0,0.0,0.0,0.0,0.0,0.0,0.0,0.0,0.0,0.0,0.0,0.0,0.0,0.0,0.0,0.0,0.0,-0.269,0.0,0.0,0.0,0.0,0.0,0.0,0.0,0.0,0.0,0.0,0.0,0.0,0.0,0.0,-0.4235,-0.4893,-0.4343,-0.4001,0.0,0.0,-0.3695,-0.3678,-0.3672,-0.3555,0.0,0.0,0.0,0.0,0.0,0.0,0.0,0.0,0.0,0.0,0.0,0.0,0.0,0.0,0.0,0.0,0.0,0.0,0.0,0.0,0.0,0.0,0.0,0.0,0.0,0.0,0.0,0.0,0.0,0.0,0.0,0.0,0.0,0.0,0.0,0.0,0.0,0.0,0.0,0.0,0.0,0.0,0.0,0.0,0.0,0.0,0.0,0.0,0.0,0.0,0.0,0.0,0.0,0.0,0.0,-0.8474,-0.929,-1.0036,-1.0596,-1.0008,-0.9978,-1.055,-0.9954,-0.9179,0.0,0.0,0.0,0.0,0.0,0.0,0.0,0.0,0.0,0.0,0.0,0.0,0.0,0.0,0.0,0.0,0.0,0.0,0.0,0.0,0.0,0.0,0.0,0.0,0.0,0.0,0.0,0.0,0.0,0.0,0.0,0.0,0.0,0.0,0.0,0.0,0.0,0.0,0.0,0.0,0.0,-0.4124,-0.4516,-0.4398,-0.4386,0.0,0.0,-0.4161,-0.4392,-0.4079,-0.3756,-0.3565,0.0,0.0,0.0,0.0,0.0,0.0,0.0,0.0,0.0,0.0,0.0,0.0,0.0,0.0,0.0,0.0,0.0,0.0,0.0,0.0,0.0,0.0,0.0,0.0,0.0,0.0,0.0,0.0,0.0,0.0,0.0,0.0,0.0,0.0,0.0,0.0,0.0,0.0,0.0,0.0,0.0,0.0,0.0,0.0,0.0,0.0,0.0,0.0,0.0,0.0,0.0,0.0,0.0,-0.7931,-0.7979,-0.903,-0.9925,-1.0543,-1.0144,-1.013,-1.0572,-1.0148,-0.9563,0.0,0.0,0.0,0.0,0.0,0.0,0.0,0.0,0.0,0.0,0.0,0.0,0.0,0.0,0.0,0.0,0.0,0.0,0.0,0.0,0.0,0.0,0.0,0.0,0.0,0.0,0.0,0.0,-0.2796,-0.2779,-0.2929,0.0,0.0,0.0,0.0,0.0,0.0,0.0,0.0,0.0,0.0,-0.4233,-0.4489,-0.4431,0.0,0.0,-0.446,-0.4231,-0.4395,-0.405,-0.3775,-0.3732,-0.3649,0.0,0.0,0.0,0.0,0.0,0.0,0.0,0.0,0.0,0.0,0.0,0.0,0.0,0.0,0.0,0.0,0.0,0.0,0.0,0.0,0.0,0.0,0.0,0.0,0.0,0.0,0.0,0.0,0.0,0.0,0.0,0.0,0.0,0.0,0.0,0.0,0.0,0.0,0.0,0.0,0.0,0.0,0.0,0.0,0.0,0.0,0.0,0.0,0.0,0.0,0.0,0.0,-0.7763,-0.7865,-0.9021,-0.9929,-1.0569,-1.0269,-1.0261,-1.0565,-1.0272,-0.9808,0.0,0.0,0.0,0.0,0.0,0.0,0.0,0.0,0.0,0.0,0.0,0.0,0.0,0.0,0.0,0.0,0.0,0.0,0.0,0.0,0.0,0.0,0.0,0.0,0.0,0.0,0.0,0.0,-0.2854,-0.2912,-0.291,0.0,0.0,0.0,0.0,0.0,0.0,0.0,0.0,0.0,0.0,-0.438,-0.457,-0.4668,-0.4756,-0.5035,-0.4802,-0.4562,-0.4493,-0.4125,-0.3792,-0.3773,0.0,0.0,0.0,0.0,0.0,0.0,0.0,0.0,0.0,0.0,0.0,0.0,0.0,0.0,0.0,0.0,0.0,0.0,0.0,0.0,0.0,0.0,0.0,0.0,0.0,0.0,0.0,0.0,0.0,0.0,-0.6314,0.0,0.0,0.0,0.0,0.0,0.0,0.0,0.0,0.0,0.0,0.0,0.0,0.0,0.0,0.0,0.0,0.0,0.0,0.0,0.0,0.0,0.0,-0.7873,-0.8194,-0.9135,-0.9936,-1.0554,-1.0272,-1.0276,-1.0576,-1.0276,-0.9811,-0.9239,0.0,0.0,0.0,0.0,0.0,0.0,0.0,0.0,0.0,0.0,0.0,0.0,0.0,0.0,0.0,0.0,0.0,0.0,0.0,0.0,0.0,0.0,0.0,0.0,0.0,0.0,-0.252,-0.2732,-0.2913,0.0,0.0,0.0,0.0,0.0,0.0,0.0,0.0,0.0,0.0,-0.4367,-0.4625,-0.4863,-0.4976,-0.5113,-0.5335,-0.5332,-0.5214,-0.4836,-0.428,-0.3817,0.0,0.0,0.0,0.0,0.0,0.0,0.0,0.0,0.0,0.0,0.0,0.0,0.0,0.0,0.0,0.0,0.0,0.0,0.0,0.0,0.0,0.0,0.0,0.0,0.0,0.0,0.0,-0.8086,-0.7827,0.0,0.0,0.0,0.0,0.0,0.0,0.0,0.0,0.0,0.0,0.0,-0.773,-0.859,0.0,0.0,0.0,0.0,0.0,0.0,0.0,0.0,0.0,0.0,0.0,0.0,-0.8088,-0.8246,-0.9347,-1.0152,-1.0572,-1.0697,-1.0803,-1.0905,-1.0598,-1.0141,-0.9473,0.0,0.0,0.0,0.0,0.0,0.0,0.0,0.0,0.0,0.0,0.0,0.0,0.0,0.0,0.0,0.0,0.0,0.0,0.0,0.0,0.0,0.0,0.0,0.0,0.0,-0.2896,0.0,0.0,0.0,0.0,0.0,0.0,0.0,0.0,0.0,0.0,0.0,-0.4114,-0.4358,-0.4519,-0.4721,-0.502,-0.4657,-0.4477,0.0,0.0,0.0,0.0,0.0,0.0,0.0,0.0,0.0,0.0,0.0,0.0,0.0,0.0,-0.0,-0.0,-0.0,-0.0,-0.0,0.0,0.0,0.0,0.0,0.0,0.0,0.0,0.0,0.0,0.0,0.0,0.0,0.0,0.0,0.0,0.0,-0.7942,0.0,0.0,0.0,0.0,0.0,0.0,0.0,0.0,-0.7972,-0.8175,-0.8381,-0.9194,-0.9136,0.0,-0.8158,-0.7726,0.0,0.0,0.0,0.0,0.0,0.0,0.0,0.0,-0.8308,-0.8571,-0.957,-1.0258,-1.0583,-1.0843,-1.089,-1.0636,-1.0041,-0.9449,-0.9043,-0.7168,-0.5436,0.0,0.0,0.0,0.0,0.0,0.0,0.0,0.0,0.0,0.0,0.0,0.0,0.0,0.0,0.0,0.0,0.0,0.0,0.0,0.0,0.0,0.0,0.0,-0.3182,0.0,0.0,0.0,0.0,0.0,0.0,0.0,0.0,0.0,-0.3666,-0.4044,-0.4377,-0.4523,-0.4538,-0.4546,-0.472,0.0,0.0,0.0,0.0,0.0,0.0,0.0,-0.2811,-0.2838,-0.1243,-0.0,-0.0,-0.0,-0.0,-0.0,0.0,0.0,-0.0,-0.0,-0.0,-0.0,-0.0,-0.0,-0.0,0.0167,0.0283,0.0,0.0,0.0,0.0,0.0,0.0,0.0,0.0,-0.8782,-0.877,0.0,-0.8704,0.0,0.0,0.0,0.0,0.0,-0.7517,0.0,0.0,-0.8727,-0.9048,-0.9547,-0.9632,-0.9636,-0.9607,-0.9025,-0.8729,-0.867,-0.7766,0.0,0.0,0.0,0.0,0.0,0.0,-0.8549,-0.9175,-0.9808,-1.028,-1.0548,-1.068,-1.047,-0.9771,-0.8616,-0.8015,-0.7883,-0.6831,-0.5909,-0.5302,-0.4348,0.0,0.0,0.0,0.0,0.0,0.0,0.0,0.0,0.0,0.0,0.0,0.0,0.0,0.0,0.0,0.0,0.0,0.0,0.0,0.0,-0.3314,0.0,0.0,0.0,0.0,0.0,0.0,0.0,0.0,0.0,0.0,-0.3825,-0.415,-0.4528,-0.4687,0.0,0.0,0.0,0.0,-0.3497,-0.2686,-0.1709,-0.0906,-0.0194,-0.0065,-0.0,-0.0,0.0,0.0,-0.0,-0.0,-0.0,-0.0,-0.0,-0.0,-0.0,-0.0,-0.0,-0.0,-0.0,-0.0,-0.0,-0.0,-0.0,-1.0966,0.0,0.0,0.0,0.0,-0.9714,-0.9926,-1.0189,-0.9777,-0.9674,-0.976,-0.9026,0.0,0.0,0.0,0.0,0.0,0.0,-0.841,-0.904,-0.9285,-0.9587,-0.9969,-1.0335,-1.0439,-1.0287,-0.9888,-0.9694,-0.9669,-0.9175,-0.8355,-0.7222,0.0,0.0,0.0,0.0,-0.9091,-0.95,-1.0122,-1.0311,-1.0016,-1.0309,-0.9926,-0.8863,-0.8182,-0.7865,-0.7963,-0.6656,-0.5743,-0.5325,-0.4802,0.0,0.0,0.0,0.0,0.0,0.0,0.0,0.0,0.0,0.0,0.0,0.0,0.0,0.0,0.0,0.0,0.0,0.0,0.0,-0.3286,-0.3185,-0.3278,0.0,0.0,0.0,0.0,0.0,0.0,0.0,0.0,0.0,-0.3656,-0.3747,-0.4131,0.0,0.0,-0.3235,-0.2965,-0.2734,-0.2551,-0.2484,0.0,0.0,0.0,-0.0327,-0.0,-0.0,-0.0,-0.0,-0.0,-0.0,-0.0,-0.0,-0.0,-0.0,-0.0,-0.0,-0.0,-0.0,-0.0,-0.0,-0.0,-0.0,-0.0,-1.1299,-1.1235,-1.0448,-1.0106,-1.0009,-1.0005,-1.0113,-1.0298,-0.9964,-0.99,-0.9947,-0.9335,-0.8907,-0.8579,-0.8242,0.0,0.0,0.0,-0.893,-0.9544,-0.978,-1.0045,-1.0294,-1.0691,-1.0781,-1.0572,-1.0254,-1.0166,-1.0287,-0.9961,-0.9329,-0.8354,0.0,0.0,-0.8315,-0.8879,-0.9286,-0.9432,-0.9932,-0.9979,-0.9422,-0.9307,-0.892,-0.8146,-0.7516,-0.7255,-0.7372,-0.6361,-0.5659,-0.5307,-0.5044,-0.4733,0.0,0.0,0.0,0.0,0.0,0.0,0.0,0.0,0.0,0.0,0.0,-0.2171,-0.301,0.0,0.0,0.0,-0.3409,-0.347,-0.3646,-0.3579,0.0,0.0,0.0,0.0,0.0,0.0,0.0,-0.3763,-0.3442,-0.3231,-0.3335,-0.3107,-0.3273,-0.4161,-0.3312,-0.2567,-0.2406,0.0,-0.1746,-0.1947,-0.1481,-0.1012,-0.0877,-0.0598,-0.0331,-0.0067,-0.0,-0.0,-0.0,-0.0,-0.0,-0.0,-0.0,-0.0,-0.0,-0.0,-0.0,-0.0,-0.0,-0.0,-0.0,-0.0,-0.0,-1.1636,-1.1463,-1.0519,-1.0116,-1.0021,-0.9931,-0.9818,-0.9687,-0.9691,-0.9694,-0.9687,-0.9694,-0.9541,-0.9274,-0.8977,0.0,-0.9338,-0.9342,-0.9599,-1.0141,-1.0294,-1.0465,-1.0681,-1.0851,-1.0862,-1.066,-1.0335,-1.0335,-1.0487,-1.0242,-1.0027,-0.9962,-0.9463,-0.9173,-0.9198,-0.9173,-0.911,-0.9128,-0.9394,-0.9257,-0.8724,-0.7989,-0.7512,-0.7393,-0.6743,-0.6398,-0.6411,-0.6119,-0.5761,-0.5395,-0.519,-0.5039,-0.4855,0.0,0.0,0.0,0.0,0.0,0.0,0.0,0.0,0.0,0.0,0.0,0.0,0.0,0.0,0.0,-0.4137,0.0,-0.4197,-0.4153,0.0,0.0,0.0,-0.2797,-0.3783,-0.2649,-0.2193,-0.3215,0.0,0.0,-0.2895,0.0,-0.2069,-0.2777,-0.2377,-0.2013,-0.2013,-0.1481,-0.1079,-0.1149,-0.1084,-0.095,-0.0546,-0.0681,-0.0681,-0.0,-0.0,-0.0,-0.0,-0.0,-0.0,-0.0,-0.0,-0.0,-0.0,-0.0,-0.0,-0.0,-0.0,-0.0,-0.0,-0.0,-0.0,-1.1035,-1.0944,-1.0633,-1.0495,-1.046,-1.0405,-1.0394,-1.0357,-1.0357,-1.0357,-1.0357,-1.0353,-1.0313,-1.0247,-1.0174,-1.0177,-1.0254,-1.025,-1.0335,-1.0481,-1.0788,-1.0949,-1.0971,-1.1277,-1.1398,-1.1369,-1.1004,-1.0648,-1.0233,-0.9884,-0.9444,-0.8965,-0.8789,-0.8853,-0.9096,-0.8853,-0.8837,-0.9046,-0.8999,-0.8665,-0.7942,-0.7105,-0.6677,-0.6679,-0.6484,-0.6402,-0.6415,-0.6233,-0.6002,-0.5763,-0.5604,-0.5403,-0.5177,-0.4691,0.0,0.0,0.0,0.0,0.0,0.0,0.0,0.0,0.0,-0.2816,-0.45,0.0,-0.42,0.0,-0.4344,-0.4367,-0.4207,-0.4022,0.0,0.0,-0.2729,-0.2341,-0.2982,-0.2335,-0.2131,-0.2976,-0.2526,-0.2191,-0.2318,-0.1729,-0.1332,-0.153,-0.1404,-0.1344,-0.1347,-0.1235,-0.111,-0.1112,-0.1129,-0.0859,-0.0286,-0.0215,-0.0,-0.0,-0.0,-0.0,-0.0,-0.0,-0.0,-0.0,-0.0,-0.0,-0.0,-0.0,-0.0,-0.0,-0.0,-0.0,-0.0,-0.0,-0.0,-1.1312,-1.1253,-1.113,-1.1082,-1.1056,-1.0715,-1.058,-1.058,-1.058,-1.058,-1.058,-1.058,-1.058,-1.058,-1.058,-1.058,-1.058,-1.058,-1.0667,-1.081,-1.0993,-1.1211,-1.1354,-1.1542,-1.1435,-1.1111,-1.0942,-1.0489,-0.9861,-0.9646,-0.9388,-0.9019,-0.8711,-0.8641,-0.8801,-0.8714,-0.8501,-0.8215,-0.7996,-0.7659,-0.7251,-0.6675,-0.6381,-0.63,-0.6375,-0.64,-0.6415,-0.6274,-0.6065,-0.5705,-0.5594,-0.5423,-0.5248,-0.4908,-0.4638,0.0,0.0,0.0,0.0,0.0,0.0,0.0,0.0,0.0,0.0,0.0,-0.4554,-0.4356,-0.4265,-0.4143,-0.3955,-0.3548,-0.3291,-0.3227,-0.2481,-0.2193,-0.2758,-0.1966,-0.174,-0.2438,-0.1954,-0.1585,-0.1608,-0.1343,-0.1075,-0.1075,-0.1075,-0.1081,-0.1096,-0.1111,-0.1125,-0.1139,-0.1083,-0.0729,-0.0073,-0.0,-0.0,-0.0,-0.0,-0.0,-0.0,-0.0,-0.0,-0.0,-0.0,-0.0,-0.0,-0.0,-0.0,-0.0,-0.0,-0.0,-0.0,-0.0,-0.0,-1.2054,-1.1864,-1.1806,-1.1747,-1.1578,-1.0953,-1.0708,-1.0711,-1.0711,-1.0711,-1.0711,-1.0715,-1.0711,-1.0711,-1.0708,-1.0711,-1.0715,-1.0715,-1.0865,-1.1188,-1.1136,-1.1286,-1.1432,-1.1435,-1.1059,-1.0358,-1.0361,-1.0034,-0.939,-0.939,-0.9323,-0.9198,-0.8681,-0.8345,-0.8302,-0.8432,-0.805,-0.7159,-0.6869,-0.6637,-0.6641,-0.6447,-0.6308,-0.6227,-0.6323,-0.641,-0.6387,-0.6309,-0.6043,-0.5576,-0.5541,-0.5443,-0.5233,-0.5183,-0.5067,0.0,-0.4825,0.0,0.0,0.0,0.0,0.0,0.0,0.0,0.0,-0.4506,-0.4629,-0.4381,-0.3919,-0.3653,-0.351,-0.3104,-0.2788,-0.2736,-0.2243,-0.2118,-0.2492,-0.1659,-0.1233,-0.175,-0.1391,-0.1075,-0.1142,-0.1075,-0.1076,-0.1082,-0.1084,-0.1098,-0.1126,-0.1131,-0.114,-0.1167,-0.1029,-0.0741,-0.0222,-0.0,-0.0,-0.0,-0.0,-0.0,-0.0,-0.0,-0.0,-0.0,-0.0,-0.0,-0.0,-0.0,-0.0,-0.0,-0.0,-0.0,-0.0,-0.0,-0.0,-1.2243,-1.2182,-1.1926,-1.1802,-1.1732,-1.1494,-1.1377,-1.1435,-1.1435,-1.1439,-1.1377,-1.1435,-1.1442,-1.1435,-1.1442,-1.1435,-1.1381,-1.1442,-1.1475,-1.1527,-1.1531,-1.1253,-1.0737,-1.0744,-1.0348,-0.9709,-0.9709,-0.9326,-0.8683,-0.8683,-0.8425,-0.7909,-0.7779,-0.7505,-0.7229,0.0,0.0,0.0,-0.6623,-0.6394,-0.6324,-0.6258,-0.6244,-0.6215,-0.6325,0.0,-0.6435,-0.6367,-0.6353,-0.6248,-0.6081,0.0,0.0,0.0,0.0,0.0,0.0,0.0,0.0,0.0,0.0,0.0,-0.3825,-0.4044,-0.4658,-0.43,-0.3943,-0.3789,-0.3308,-0.3037,-0.3096,-0.2989,-0.277,-0.2304,-0.2114,-0.1917,-0.1455,-0.1196,-0.1134,-0.1201,-0.1139,-0.1076,-0.1077,-0.1075,-0.1085,-0.1108,-0.1112,-0.1135,-0.1186,-0.1172,-0.117,-0.1198,-0.1144,-0.1006,-0.0542,-0.0464,-0.0386,-0.0,-0.0,-0.0,-0.0,-0.0,-0.0,-0.0,-0.0,-0.0,-0.0,-0.0,-0.0,-0.0,-0.0,-0.0,-0.0,-0.0,-0.0,-1.2367,0.0,-1.212,-1.1999,0.0,-1.1743,-1.1685,-1.1685,-1.1626,-1.1622,-1.1622,-1.1622,-1.1622,-1.1622,-1.1622,-1.1369,-1.1055,-1.1052,-1.0863,-1.0601,-1.0538,-1.0345,-1.0034,-1.0034,-0.9649,-0.9002,-0.9002,-0.8678,-0.8037,-0.7974,-0.7842,-0.7526,-0.7526,-0.7406,-0.7189,-0.7216,-0.7073,-0.6878,-0.659,-0.6351,-0.6282,-0.6282,-0.6237,-0.6219,0.0,0.0,0.0,0.0,0.0,0.0,0.0,0.0,0.0,0.0,0.0,-0.4513,-0.4331,-0.424,-0.4123,-0.3712,-0.3596,-0.3892,-0.3716,-0.3697,-0.4041,-0.3671,-0.3395,-0.3392,-0.2867,-0.2521,-0.2557,-0.2301,-0.1917,-0.1675,-0.1611,-0.1478,-0.1142,-0.1075,-0.1075,-0.1075,-0.1075,-0.108,-0.1096,-0.1098,-0.111,-0.1138,-0.1144,-0.116,-0.12,-0.1199,-0.12,-0.1229,-0.1245,-0.1178,-0.1022,-0.0943,-0.0864,-0.0707,-0.0471,-0.0314,-0.0314,-0.0314,-0.0314,-0.0314,-0.0157,-0.0,-0.0,-0.0,-0.0,-0.0,-0.0,-0.0,-0.0,-0.0,-0.0,-1.2498,-1.2371,-1.2301,-1.2239,-1.2123,-1.1934,-1.1802,-1.1743,0.0,0.0,0.0,-1.1622,-1.1498,-1.1432,-1.1435,-1.0989,-1.0358,-1.0361,-1.0034,-0.9518,-0.9518,-0.9454,-0.9323,-0.9323,-0.9005,-0.8361,-0.8361,-0.8039,-0.7524,-0.7526,-0.7526,-0.7526,-0.7526,-0.7458,-0.7458,-0.7075,-0.6878,-0.6876,-0.6519,-0.6367,-0.6369,-0.6369,-0.6296,-0.6211,-0.6323,-0.6282,-0.6006,-0.6138,-0.6159,-0.6029,-0.5888,-0.5375,-0.4624,-0.4493,-0.4244,-0.3934,-0.3745,-0.3617,-0.3617,-0.3242,-0.3118,-0.3372,-0.3068,-0.2849,-0.2835,-0.2846,-0.2879,-0.3009,-0.2347,-0.1946,-0.1879,-0.1478,-0.1075,-0.1075,-0.1075,-0.1075,-0.1075,-0.1075,-0.1078,-0.1082,-0.1085,-0.1095,-0.1125,-0.1129,-0.114,-0.1167,-0.1174,-0.1185,-0.1212,-0.1221,-0.1228,-0.125,-0.1335,-0.1336,-0.1336,-0.1258,-0.1336,-0.1258,-0.0943,-0.0707,-0.0707,-0.0707,-0.0707,-0.0707,-0.0471,-0.0,-0.0,-0.0,-0.0079,-0.0,-0.0,-0.0,-0.0,-0.0,-0.0,-1.256,-1.2556,-1.2371,-1.2305,-1.2243,-1.1926,-1.1743,-1.1626,-1.1622,-1.1622,-1.1622,-1.1622,-1.1244,-1.0674,-1.0674,-1.0295,-0.9649,-0.9649,-0.9585,0.0,-0.9518,-0.9198,-0.8681,-0.8616,-0.8296,-0.7652,-0.7649,-0.7587,-0.7524,-0.7526,-0.7526,-0.7526,-0.7526,-0.7393,-0.7265,-0.7012,-0.6811,-0.6738,-0.6392,-0.6246,-0.6246,-0.6248,-0.6236,-0.6215,-0.6323,-0.6414,-0.633,-0.5806,-0.5272,-0.466,-0.4931,-0.4858,-0.4371,-0.3964,-0.3901,-0.4171,-0.4169,-0.4102,-0.3901,-0.3381,-0.2718,-0.1988,-0.1599,-0.14,-0.1395,-0.193,-0.2272,-0.2213,-0.1679,-0.121,-0.121,-0.1142,-0.1075,-0.1076,-0.1076,-0.1076,-0.1077,-0.1079,-0.1089,-0.1111,-0.1115,-0.1126,-0.1154,-0.116,-0.1171,-0.1197,-0.1205,-0.1216,-0.124,-0.1251,-0.1331,-0.1335,-0.1336,-0.1336,-0.1336,-0.1336,-0.1336,-0.1336,-0.1258,-0.1179,-0.1179,-0.1179,-0.1179,-0.1179,-0.11,-0.0943,-0.0629,-0.055,-0.0393,-0.0,-0.0,-0.0,-0.0,-0.0,-0.0,-1.256,-1.2432,-1.2305,-1.2243,-1.2182,-1.193,-1.1743,-1.156,-1.1181,-1.124,-1.156,-1.1178,-1.0797,-1.0488,-1.0101,-0.9582,-0.8935,-0.8941,-0.8748,-0.8425,-0.8425,-0.8234,-0.7974,-0.7974,-0.7777,-0.7524,-0.7526,-0.7526,-0.7526,-0.7526,-0.7526,-0.7526,-0.7526,-0.7396,-0.7202,-0.7138,-0.6942,-0.6673,-0.6463,-0.6294,-0.6296,-0.6294,-0.6159,-0.5767,-0.5844,-0.603,-0.6392,-0.5362,-0.4278,-0.3204,-0.4352,-0.4628,-0.3752,-0.3616,-0.3486,-0.3154,-0.3087,-0.2952,-0.2884,-0.2283,-0.1814,-0.1343,-0.1344,-0.1344,-0.1341,-0.1476,-0.1545,-0.1544,-0.1277,-0.1075,-0.1075,-0.1075,-0.1075,-0.1075,-0.109,-0.11,-0.1102,-0.1117,-0.113,-0.1143,-0.1146,-0.1157,-0.1187,-0.1191,-0.1202,-0.123,-0.1236,-0.1243,-0.1255,-0.1336,-0.1336,-0.1336,-0.1336,-0.1336,-0.1336,-0.1336,-0.1336,-0.1336,-0.1336,-0.1336,-0.1336,-0.1336,-0.1336,-0.1336,-0.1336,-0.1258,-0.1022,-0.1022,-0.0864,-0.0786,-0.0471,-0.0393,-0.0314,-0.0314,-0.0236,-1.2498,-1.2367,-1.2367,-1.2247,-1.2062,-1.1872,-1.1758,-1.1527,-1.0807,-1.0591,-1.0627,-1.0338,-1.0164,-0.997,-0.9518,-0.8874,-0.8363,-0.8298,-0.7972,-0.7524,-0.7526,-0.7526,-0.7526,-0.7526,-0.7526,-0.7526,-0.7526,-0.7526,-0.7526,-0.7526,-0.7526,-0.7526,-0.7526,-0.7393,-0.7202,-0.7136,-0.7005,-0.6675,-0.6346,-0.6216,-0.642,-0.6422,-0.6084,-0.5477,-0.5411,-0.5557,-0.5863,-0.4697,-0.3479,-0.2338,-0.3618,-0.3959,-0.3086,-0.3155,-0.2956,-0.2287,-0.2085,-0.1951,-0.1883,-0.1479,-0.121,-0.121,-0.1479,-0.1614,-0.1681,-0.1412,-0.121,-0.1142,-0.1142,-0.1075,-0.1075,-0.1075,-0.1078,-0.1086,-0.1106,-0.1122,-0.1132,-0.1153,-0.117,-0.1174,-0.1176,-0.1188,-0.1213,-0.1223,-0.1231,-0.125,-0.1336,-0.1336,-0.1336,-0.1336,-0.1336,-0.1336,-0.1336,-0.1336,-0.1336,-0.1336,-0.1336,-0.1336,-0.1336,-0.1336,-0.1336,-0.1336,-0.1336,-0.1336,-0.1336,-0.1258,-0.1336,-0.1258,-0.1258,-0.1179,-0.0943,-0.0786,-0.0786,-0.0786,-0.0629,-1.2621,-1.256,-1.2564,-1.2375,-1.2058,-1.1868,-1.1663,-1.1473,-1.0775,-0.9455,-0.8175,-0.9087,-0.9262,-0.8745,-0.8616,-0.8229,-0.7654,-0.7587,-0.7587,-0.7526,-0.7526,-0.7526,-0.7526,-0.7526,-0.7526,-0.7526,-0.7526,-0.7526,-0.7526,-0.7526,-0.7526,-0.7526,-0.7526,-0.7398,-0.7202,-0.701,-0.6811,-0.6671,-0.5877,-0.5815,-0.6354,-0.6422,-0.6081,-0.5411,-0.5411,-0.5087,-0.4503,-0.3755,-0.295,-0.2285,-0.2353,-0.2421,-0.2355,-0.2354,-0.2288,-0.222,-0.2153,-0.2086,-0.1883,-0.1681,-0.1546,-0.1546,-0.1614,-0.1748,-0.2086,-0.1749,-0.148,-0.1346,-0.1211,-0.1145,-0.1076,-0.1145,-0.116,-0.1114,-0.1123,-0.1132,-0.1157,-0.1164,-0.1177,-0.1205,-0.1208,-0.1219,-0.1243,-0.125,-0.1331,-0.1334,-0.1336,-0.1336,-0.1336,-0.1336,-0.1336,-0.1336,-0.1336,-0.1336,-0.1336,-0.1336,-0.1336,-0.1336,-0.1336,-0.1336,-0.1336,-0.1336,-0.1336,-0.1336,-0.1336,-0.1336,-0.1336,-0.1336,-0.1336,-0.1336,-0.1258,-0.1179,-0.1258,-0.1179,-0.1022,-1.256,-1.2432,-1.2313,-1.1875,-1.1174,-1.1052,-1.0901,-1.0692,-0.9731,-0.8639,-0.7629,-0.8071,-0.8358,-0.849,-0.8099,-0.7779,-0.7526,-0.7526,-0.7526,-0.7526,-0.7526,-0.7526,-0.7526,-0.7526,-0.7526,-0.7526,-0.7526,-0.7526,-0.7526,-0.7526,-0.7526,-0.7526,-0.7526,-0.733,-0.694,-0.6808,-0.6476,-0.5747,-0.5416,-0.5218,-0.5153,-0.5151,-0.4815,-0.4215,-0.408,-0.375,-0.3092,-0.2755,-0.2488,-0.222,-0.222,-0.222,-0.222,-0.222,-0.222,-0.222,-0.222,-0.2153,-0.2085,-0.2018,-0.1951,-0.195,-0.1951,-0.2018,-0.2155,-0.198,-0.1793,-0.1723,-0.1586,-0.1447,-0.145,-0.1468,-0.1489,-0.1363,-0.1309,-0.1327,-0.1191,-0.136,-0.1379,-0.1315,-0.1394,-0.1397,-0.1333,-0.1336,-0.1336,-0.1336,-0.1336,-0.1336,-0.1336,-0.1336,-0.1336,-0.1336,-0.1336,-0.1336,-0.1336,-0.1336,-0.1336,-0.1336,-0.1336,-0.1336,-0.1336,-0.1336,-0.1336,-0.1336,-0.1336,-0.1336,-0.1336,-0.1336,-0.1336,-0.1336,-0.1336,-0.1336,-0.1336,-0.1336,-0.1179,-1.2498,-1.2309,-1.1984,-1.1292,-1.0415,-1.0291,-1.0056,-0.9692,-0.8888,-0.8146,-0.7541,-0.7507,-0.7782,-0.8104,-0.7717,-0.7526,-0.7526,-0.7526,-0.7526,-0.7526,-0.7526,-0.7526,-0.7526,-0.7526,-0.7526,-0.7526,-0.7526,-0.7526,-0.7526,-0.7526,-0.7458,-0.7328,-0.726,-0.6999,-0.6544,-0.6412,-0.6015,-0.5284,-0.4954,-0.4554,-0.4155,-0.3888,-0.3551,-0.3218,-0.3218,-0.2884,-0.222,-0.222,-0.222,-0.222,-0.222,-0.222,-0.222,-0.222,-0.222,-0.222,-0.222,-0.222,-0.222,-0.222,-0.222,-0.2222,-0.2167,-0.2179,-0.2189,-0.2164,-0.2054,-0.2057,-0.1997,-0.186,-0.1706,-0.1803,-0.1754,-0.162,-0.1576,-0.1518,-0.1454,-0.1557,-0.1648,-0.1494,-0.1569,-0.1651,-0.1494,-0.1494,-0.1494,-0.1494,-0.1494,-0.1494,-0.1494,-0.1494,-0.1494,-0.1415,-0.1494,-0.1415,-0.1336,-0.1336,-0.1336,-0.1336,-0.1336,-0.1336,-0.1336,-0.1336,-0.1336,-0.1336,-0.1336,-0.1336,-0.1336,-0.1336,-0.1336,-0.1336,-0.1336,-0.1336,-0.1336,-0.1336,-0.1336,-1.2625,-1.2432,-1.1469,-1.077,-1.0272,-0.9773,-0.9274,-0.8835,-0.8563,-0.8099,-0.7517,-0.7519,-0.7526,-0.7589,-0.7524,-0.7526,-0.7526,-0.7526,-0.7526,-0.7526,-0.7526,-0.7526,-0.7526,-0.7526,-0.7526,-0.7526,-0.7526,-0.7458,-0.7461,-0.7458,-0.7263,-0.6738,-0.6741,-0.6478,-0.5952,-0.5752,-0.5615,-0.5348,-0.4421,-0.3824,-0.3689,-0.2823,-0.2619,-0.3084,-0.315,-0.2819,-0.2288,-0.222,-0.222,-0.222,-0.222,-0.222,-0.222,-0.222,-0.222,-0.222,-0.222,-0.222,-0.222,-0.222,-0.2223,-0.223,-0.2205,-0.224,-0.2315,-0.2296,-0.2257,-0.2259,-0.2303,-0.2162,-0.1906,-0.1835,-0.1852,-0.181,-0.1817,-0.1763,-0.1799,-0.1802,-0.1886,-0.1808,-0.1808,-0.1808,-0.1808,-0.1887,-0.1808,-0.1808,-0.1808,-0.1808,-0.1808,-0.1808,-0.1808,-0.1808,-0.1808,-0.173,-0.1415,-0.1415,-0.1415,-0.1415,-0.1415,-0.1336,-0.1336,-0.1336,-0.1336,-0.1336,-0.1336,-0.1336,-0.1336,-0.1336,-0.1336,-0.1336,-0.1336,-0.1336,-0.1336,-0.1336,-0.1336,-1.2375,-1.1872,-1.0968,-1.0145,-0.9454,-0.9005,-0.849,-0.7979,-0.7914,-0.7712,-0.7524,-0.7526,-0.7526,-0.7526,-0.7526,-0.7526,-0.7526,-0.7526,-0.7526,-0.7526,-0.7526,-0.7526,-0.7526,-0.7526,-0.7526,-0.7526,-0.7526,-0.7326,-0.7001,-0.6675,-0.6414,-0.6218,-0.6218,-0.5951,-0.5488,-0.5286,-0.5019,-0.4422,-0.3758,-0.3291,-0.3088,-0.2488,-0.2355,-0.2553,-0.2553,-0.242,-0.222,-0.222,-0.222,-0.222,-0.222,-0.222,-0.222,-0.222,-0.222,-0.222,-0.222,-0.222,-0.222,-0.222,-0.2172,-0.221,-0.2231,-0.2264,-0.2375,-0.2354,-0.2389,-0.2399,-0.2444,-0.2386,-0.2302,-0.2217,-0.2147,-0.2086,-0.2014,-0.202,-0.1959,-0.1963,-0.2041,-0.1965,-0.1887,-0.1887,-0.1887,-0.1887,-0.1887,-0.1887,-0.1887,-0.1887,-0.1887,-0.1887,-0.1887,-0.1887,-0.1887,-0.1887,-0.173,-0.1651,-0.1651,-0.1651,-0.1651,-0.1572,-0.1494,-0.1415,-0.1336,-0.1415,-0.1336,-0.1336,-0.1336,-0.1336,-0.1336,-0.1336,-0.1336,-0.1336,-0.1336,-0.1336,-0.1336,-1.1872,-1.1118,-1.0281,-0.9521,-0.8826,-0.8366,-0.7907,-0.7524,-0.7526,-0.7526,-0.7526,-0.7526,-0.7526,-0.7526,-0.7526,-0.7526,-0.7526,-0.7526,-0.7526,-0.7526,-0.7526,-0.7526,-0.7526,-0.7526,-0.7526,-0.7461,-0.7326,-0.6937,-0.6478,-0.6084,-0.582,-0.5622,-0.5622,-0.5357,-0.4957,-0.4827,-0.4495,-0.396,-0.3626,-0.3225,-0.2889,-0.2555,-0.2288,-0.222,-0.222,-0.222,-0.222,-0.222,-0.222,-0.222,-0.222,-0.222,-0.222,-0.222,-0.222,-0.222,-0.222,-0.222,-0.222,-0.222,-0.2181,-0.2169,-0.2265,-0.2299,-0.2506,-0.2492,-0.2444,-0.2459,-0.2482,-0.251,-0.251,-0.2508,-0.2431,-0.2352,-0.2274,-0.2275,-0.212,-0.2198,-0.2197,-0.212,-0.2121,-0.2121,-0.2121,-0.212,-0.2121,-0.2121,-0.2121,-0.2121,-0.2121,-0.2121,-0.2042,-0.2121,-0.2121,-0.2121,-0.2121,-0.212,-0.1886,-0.1886,-0.1808,-0.1729,-0.1651,-0.1572,-0.1494,-0.1494,-0.1494,-0.1415,-0.1415,-0.1337,-0.1338,-0.1339,-0.1336,-0.1336,-0.1336,-0.1336,-0.1337,-1.124,-1.0298,-0.9591,-0.9017,-0.8509,-0.7914,-0.7524,-0.7524,-0.7526,-0.7526,-0.7526,-0.7526,-0.7526,-0.7526,-0.7526,-0.7526,-0.7526,-0.7526,-0.7526,-0.7526,-0.7526,-0.7526,-0.7526,-0.7526,-0.7456,-0.7393,-0.687,-0.6414,-0.5886,-0.5756,-0.5489,-0.5155,-0.509,-0.4827,-0.4366,-0.4367,-0.4367,-0.4167,-0.3894,-0.3559,-0.3227,-0.2889,-0.2554,-0.2288,-0.2288,-0.2288,-0.222,-0.222,-0.222,-0.222,-0.222,-0.222,-0.222,-0.222,-0.222,-0.222,-0.222,-0.222,-0.222,-0.2221,-0.218,-0.224,-0.2226,-0.235,-0.248,-0.2465,-0.25,-0.25,-0.2505,-0.251,-0.251,-0.251,-0.251,-0.251,-0.2431,-0.2432,-0.2433,-0.251,-0.251,-0.2431,-0.2432,-0.251,-0.251,-0.2432,-0.2432,-0.2433,-0.2433,-0.2433,-0.2432,-0.2432,-0.2431,-0.2431,-0.2432,-0.2354,-0.2432,-0.2431,-0.2277,-0.2043,-0.1964,-0.1886,-0.1886,-0.1807,-0.173,-0.1731,-0.1745,-0.1746,-0.1672,-0.1594,-0.1519,-0.1519,-0.1429,-0.1427,-0.1427,-0.1429,-0.1341,-1.086,-1.0238,-0.9402,-0.902,-0.8762,-0.8114,-0.7852,-0.7857,-0.7591,-0.7526,-0.7526,-0.7526,-0.7526,-0.7526,-0.7526,-0.7526,-0.7526,-0.7526,-0.7526,-0.7526,-0.7526,-0.7526,-0.7526,-0.7526,-0.7323,-0.6868,-0.6013,-0.5552,-0.5355,-0.5028,-0.4697,-0.4564,-0.4566,-0.4499,-0.43,-0.4302,-0.4302,-0.4235,-0.3962,-0.376,-0.3557,-0.3225,-0.3024,-0.2892,-0.2892,-0.2891,-0.2892,-0.2423,-0.222,-0.222,-0.222,-0.222,-0.222,-0.222,-0.222,-0.222,-0.222,-0.222,-0.222,-0.2223,-0.218,-0.224,-0.23,-0.2359,-0.2492,-0.2473,-0.2507,-0.2509,-0.251,-0.251,-0.251,-0.251,-0.251,-0.251,-0.251,-0.251,-0.251,-0.251,-0.251,-0.251,-0.251,-0.251,-0.251,-0.251,-0.251,-0.251,-0.251,-0.251,-0.251,-0.251,-0.251,-0.251,-0.251,-0.251,-0.251,-0.251,-0.2354,-0.2277,-0.2199,-0.212,-0.212,-0.2042,-0.1965,-0.197,-0.1987,-0.1921,-0.1848,-0.1857,-0.1781,-0.1719,-0.1725,-0.1633,-0.1616,-0.1524,-0.1436,-1.0425,-0.9923,-0.9277,-0.902,-0.8955,-0.8309,-0.7982,-0.7987,-0.7789,-0.7657,-0.7657,-0.7657,-0.7657,-0.7657,-0.7589,-0.7526,-0.7526,-0.7526,-0.7526,-0.7526,-0.7526,-0.7528,-0.7407,-0.7068,-0.6607,-0.6081,-0.542,-0.5022,-0.4827,-0.4499,-0.4302,-0.4302,-0.4302,-0.4302,-0.4302,-0.4302,-0.4302,-0.4235,-0.4097,-0.3961,-0.3758,-0.3558,-0.336,-0.3227,-0.3227,-0.3227,-0.3159,-0.2758,-0.249,-0.2421,-0.2288,-0.222,-0.222,-0.222,-0.222,-0.222,-0.222,-0.222,-0.222,-0.2221,-0.2181,-0.2238,-0.2209,-0.2338,-0.2478,-0.2461,-0.248,-0.2506,-0.251,-0.251,-0.251,-0.251,-0.251,-0.251,-0.251,-0.251,-0.251,-0.251,-0.251,-0.251,-0.251,-0.251,-0.251,-0.251,-0.251,-0.251,-0.251,-0.251,-0.251,-0.251,-0.251,-0.251,-0.251,-0.251,-0.251,-0.251,-0.251,-0.2431,-0.2353,-0.2354,-0.2275,-0.2277,-0.2199,-0.22,-0.2214,-0.2158,-0.2089,-0.2034,-0.1966,-0.1997,-0.2018,-0.1834,-0.1727,-0.1628,-0.1535,-1.0053,-0.9481,-0.9148,-0.9084,-0.8955,-0.8312,-0.8049,-0.8049,-0.7987,-0.7987,-0.7984,-0.7987,-0.7984,-0.7917,-0.7722,-0.7589,-0.7526,-0.7393,-0.7393,-0.7328,-0.7326,-0.7272,-0.7224,-0.6284,-0.5617,-0.5286,-0.5088,-0.4759,-0.4434,-0.4367,-0.4302,-0.4302,-0.4302,-0.4302,-0.4302,-0.4302,-0.4302,-0.4302,-0.4302,-0.4099,-0.3893,-0.3826,-0.3693,-0.3361,-0.3361,-0.3361,-0.3361,-0.3294,-0.3025,-0.2753,-0.2488,-0.2355,-0.2288,-0.222,-0.2287,-0.222,-0.222,-0.222,-0.222,-0.2287,-0.2242,-0.2223,-0.2247,-0.2292,-0.2462,-0.242,-0.2454,-0.2503,-0.251,-0.251,-0.251,-0.251,-0.251,-0.251,-0.251,-0.251,-0.251,-0.251,-0.251,-0.251,-0.251,-0.251,-0.251,-0.251,-0.251,-0.251,-0.251,-0.251,-0.251,-0.251,-0.251,-0.251,-0.251,-0.251,-0.251,-0.251,-0.251,-0.251,-0.2431,-0.2431,-0.2431,-0.2432,-0.2354,-0.2356,-0.2368,-0.2313,-0.226,-0.2208,-0.2234,-0.2259,-0.2186,-0.2017,-0.1915,-0.1803,-0.1621,-1.0298,-0.9484,-0.9417,-0.935,-0.9285,-0.8641,-0.8382,-0.8317,-0.8114,-0.8047,-0.8049,-0.8249,-0.8249,-0.7984,-0.7922,-0.7722,-0.7458,-0.7132,-0.6935,-0.6806,-0.648,-0.6546,-0.6546,-0.541,-0.4882,-0.4956,-0.4693,-0.4434,-0.4302,-0.4302,-0.4302,-0.4302,-0.4302,-0.4302,-0.4302,-0.4302,-0.4302,-0.4302,-0.4302,-0.4302,-0.4167,-0.4165,-0.4099,-0.4033,-0.3965,-0.3965,-0.3966,-0.3762,-0.3492,-0.3092,-0.3025,-0.2825,-0.2621,-0.2554,-0.2488,-0.2288,-0.222,-0.222,-0.2288,-0.242,-0.2431,-0.2246,-0.2492,-0.2559,-0.235,-0.2396,-0.2445,-0.2495,-0.251,-0.2508,-0.2508,-0.251,-0.251,-0.251,-0.251,-0.251,-0.251,-0.251,-0.251,-0.251,-0.251,-0.251,-0.251,-0.251,-0.251,-0.251,-0.251,-0.251,-0.251,-0.251,-0.251,-0.251,-0.251,-0.251,-0.251,-0.251,-0.251,-0.251,-0.251,-0.251,-0.251,-0.2431,-0.2431,-0.2432,-0.2458,-0.2403,-0.252,-0.2555,-0.2499,-0.2432,-0.2354,-0.2184,-0.2148,-0.2033,-0.1773,-1.0234,-0.9481,-0.9478,-0.9478,-0.9417,-0.8902,-0.8703,-0.8705,-0.8506,-0.8436,-0.8439,-0.8633,-0.8509,-0.8249,-0.8184,-0.7787,-0.7197,-0.7003,-0.6745,-0.6348,-0.609,-0.5958,-0.5751,-0.4749,-0.4489,-0.4694,-0.4431,-0.4302,-0.4302,-0.4302,-0.4302,-0.4302,-0.4302,-0.4302,-0.4302,-0.4302,-0.4302,-0.4302,-0.4302,-0.4302,-0.4302,-0.4302,-0.4302,-0.4302,-0.4302,-0.4302,-0.4235,-0.4099,-0.3897,-0.3632,-0.3363,-0.3092,-0.2956,-0.2889,-0.2823,-0.2624,-0.2624,-0.2624,-0.2623,-0.2823,-0.2823,-0.2696,-0.287,-0.2859,-0.2713,-0.262,-0.2592,-0.2648,-0.2532,-0.2547,-0.271,-0.2729,-0.2744,-0.2746,-0.2746,-0.2667,-0.251,-0.251,-0.251,-0.251,-0.251,-0.251,-0.251,-0.251,-0.251,-0.251,-0.251,-0.251,-0.251,-0.251,-0.2588,-0.2587,-0.2588,-0.2666,-0.2744,-0.2744,-0.3055,-0.3056,-0.3055,-0.2978,-0.2666,-0.2587,-0.251,-0.2517,-0.2546,-0.2573,-0.2601,-0.2629,-0.2653,-0.2585,-0.2515,-0.2427,-0.2309,-0.2184,-0.2004,-1.0082,-0.9478,-0.9478,-0.9478,-0.9414,-0.9148,-0.8958,-0.902,-0.8955,-0.8955,-0.8952,-0.9014,-0.8829,-0.8582,-0.8312,-0.7792,-0.6806,-0.6741,-0.6344,-0.5951,-0.5624,-0.5489,-0.5224,-0.4629,-0.4429,-0.4498,-0.4367,-0.4302,-0.4302,-0.4302,-0.4302,-0.4302,-0.4302,-0.4302,-0.4302,-0.4302,-0.4302,-0.4302,-0.4302,-0.4302,-0.4302,-0.4302,-0.4302,-0.4302,-0.4302,-0.4302,-0.4302,-0.4302,-0.4235,-0.431,-0.3633,-0.3361,-0.3294,-0.3226,-0.3226,-0.3159,-0.3093,-0.3093,-0.3159,-0.3158,-0.3226,-0.3162,-0.3161,-0.3268,-0.3284,-0.311,-0.2929,-0.2936,-0.2684,-0.2807,-0.3066,-0.3185,-0.3211,-0.3216,-0.3217,-0.2982,-0.2745,-0.2589,-0.2588,-0.251,-0.251,-0.251,-0.251,-0.251,-0.251,-0.251,-0.251,-0.251,-0.251,-0.251,-0.2665,-0.2899,-0.29,-0.2823,-0.29,-0.2978,-0.3444,-0.3755,-0.391,-0.3755,-0.2978,-0.2743,-0.2588,-0.2518,-0.2533,-0.255,-0.2572,-0.26,-0.2622,-0.2626,-0.2539,-0.2478,-0.2402,-0.2347,-0.2152,-1.0574,-0.9478,-0.9478,-0.9478,-0.9414,-0.9154,-0.902,-0.9017,-0.902,-0.902,-0.9084,-0.9285,-0.9157,-0.8829,-0.8239,-0.7587,-0.6937,-0.6147,-0.5418,-0.5286,-0.4803,-0.4875,-0.4886,-0.4564,-0.4563,-0.4693,-0.4496,-0.43,-0.4302,-0.4302,-0.4302,-0.4302,-0.4302,-0.4302,-0.4302,-0.4302,-0.4302,-0.4302,-0.4302,-0.4302,-0.4302,-0.4302,-0.4302,-0.4302,-0.4302,-0.4302,-0.4302,-0.4302,-0.4302,-0.4235,-0.4099,-0.3897,-0.3694,-0.3694,-0.356,-0.336,-0.3227,-0.3227,-0.3293,-0.3492,-0.3559,-0.3293,-0.3429,-0.3668,-0.3983,-0.364,-0.34,-0.3339,-0.3348,-0.333,-0.3552,-0.3588,-0.3602,-0.368,-0.3606,-0.3606,-0.345,-0.3215,-0.2902,-0.2667,-0.2588,-0.251,-0.251,-0.251,-0.251,-0.251,-0.251,-0.251,-0.251,-0.251,-0.2899,-0.321,-0.3522,-0.3601,-0.3835,-0.3912,-0.4223,-0.4534,-0.4611,-0.4455,-0.3678,-0.3133,-0.2978,-0.2744,-0.2512,-0.253,-0.2549,-0.2542,-0.2558,-0.2557,-0.2561,-0.2494,-0.2416,-0.2465,-0.2382,-1.0383,-0.9548,-0.9478,-0.9478,-0.9481,-0.9347,-0.9218,-0.9218,-0.9221,-0.9218,-0.9283,-0.942,-0.9285,-0.8955,-0.8495,-0.7977,-0.7001,-0.5749,-0.5287,-0.5357,-0.5223,-0.5228,-0.5153,-0.4696,-0.4496,-0.4628,-0.4431,-0.43,-0.4302,-0.4302,-0.4302,-0.4302,-0.4302,-0.4302,-0.4302,-0.4302,-0.4302,-0.4302,-0.4302,-0.4302,-0.4302,-0.4302,-0.4302,-0.4302,-0.4302,-0.4302,-0.4302,-0.4302,-0.4302,-0.4302,-0.4302,-0.4233,-0.4097,-0.4029,-0.3897,-0.3763,-0.3695,-0.3696,-0.383,-0.3896,-0.3962,-0.3695,-0.3893,-0.3995,-0.4179,-0.4058,-0.3799,-0.365,-0.352,-0.355,-0.3679,-0.3932,-0.4022,-0.4067,-0.4073,-0.4074,-0.3996,-0.3684,-0.3374,-0.3137,-0.3136,-0.2981,-0.2903,-0.2824,-0.2666,-0.2666,-0.2587,-0.2587,-0.2743,-0.2821,-0.3287,-0.3676,-0.4144,-0.4456,-0.4848,-0.5003,-0.5079,-0.5234,-0.5233,-0.5,-0.4534,-0.3989,-0.3523,-0.3134,-0.2665,-0.251,-0.2522,-0.251,-0.251,-0.2523,-0.2529,-0.2515,-0.2513,-0.2444,-0.2366,-1.0027,-0.9481,-0.9478,-0.9478,-0.9478,-0.9481,-0.9481,-0.9481,-0.9478,-0.9481,-0.9478,-0.9478,-0.9353,-0.9087,-0.8823,-0.8172,-0.7127,-0.621,-0.5813,-0.5885,-0.6111,-0.5909,-0.5563,-0.4824,-0.4296,-0.4302,-0.4302,-0.4302,-0.4302,-0.4302,-0.4302,-0.4302,-0.4302,-0.4302,-0.4302,-0.4302,-0.4302,-0.4302,-0.4302,-0.4302,-0.4302,-0.4302,-0.4302,-0.4302,-0.4302,-0.4302,-0.4302,-0.4302,-0.4302,-0.4302,-0.4302,-0.4302,-0.4302,-0.4302,-0.4302,-0.4302,-0.4233,-0.4167,-0.4167,-0.4233,-0.4235,-0.4302,-0.4302,-0.4302,-0.431,-0.4251,-0.4122,-0.3947,-0.3752,-0.3734,-0.3805,-0.4058,-0.4334,-0.4401,-0.4434,-0.4445,-0.4383,-0.4153,-0.3998,-0.3764,-0.3605,-0.3451,-0.3295,-0.3216,-0.3058,-0.29,-0.2821,-0.2899,-0.3054,-0.3365,-0.3986,-0.4451,-0.492,-0.554,-0.5931,-0.601,-0.6088,-0.6086,-0.6009,-0.5699,-0.5388,-0.4999,-0.4455,-0.3289,-0.2899,-0.2822,-0.2587,-0.251,-0.251,-0.251,-0.251,-0.251,-0.251,-0.251,-0.2431,-1.0253,-0.9478,-0.9478,-0.9478,-0.9478,-0.9478,-0.9478,-0.9478,-0.9478,-0.9478,-0.9478,-0.9481,-0.9484,-0.9224,-0.8633,-0.7844,-0.719,-0.6666,-0.6537,-0.6474,-0.663,-0.6364,-0.5359,-0.4686,-0.4289,-0.4299,-0.4302,-0.4302,-0.4302,-0.4302,-0.4302,-0.4302,-0.4302,-0.4302,-0.4302,-0.4302,-0.4302,-0.4302,-0.4302,-0.4302,-0.4302,-0.4302,-0.4302,-0.4302,-0.4302,-0.4302,-0.4302,-0.4302,-0.4302,-0.4302,-0.4302,-0.4302,-0.4302,-0.4302,-0.4302,-0.4302,-0.4302,-0.4302,-0.4302,-0.4302,-0.4302,-0.4302,-0.4302,-0.4302,-0.4302,-0.4302,-0.4235,-0.4258,-0.4192,-0.4314,-0.4517,-0.4464,-0.4595,-0.467,-0.4716,-0.4747,-0.4821,-0.4688,-0.4459,-0.423,-0.3996,-0.3918,-0.3918,-0.3917,-0.3835,-0.3911,-0.391,-0.4064,-0.4297,-0.4684,-0.5148,-0.5538,-0.593,-0.6472,-0.7015,-0.7092,-0.7094,-0.7015,-0.6861,-0.6628,-0.6318,-0.6084,-0.5385,-0.4376,-0.36,-0.3366,-0.3133,-0.2822,-0.2744,-0.2899,-0.2744,-0.2588,-0.2588,-0.2587,-0.2589,-0.9848,-0.9481,-0.9478,-0.9478,-0.9478,-0.9478,-0.9478,-0.9478,-0.9478,-0.9478,-0.9478,-0.9478,-0.9478,-0.935,-0.8891,-0.8301,-0.7782,-0.7064,-0.6999,-0.6868,-0.6212,-0.5758,-0.5158,-0.4619,-0.4359,-0.43,-0.4302,-0.4302,-0.4302,-0.4302,-0.4302,-0.4302,-0.4302,-0.4302,-0.4302,-0.4302,-0.43,-0.4302,-0.4302,-0.4302,-0.4302,-0.4302,-0.4302,-0.4302,-0.4302,-0.4302,-0.4302,-0.4302,-0.4302,-0.4302,-0.4302,-0.4302,-0.4302,-0.4302,-0.4302,-0.4302,-0.4302,-0.4302,-0.4302,-0.4302,-0.4302,-0.4302,-0.4302,-0.4302,-0.4302,-0.4302,-0.4302,-0.4315,-0.4333,-0.4429,-0.4545,-0.4557,-0.4618,-0.4708,-0.4742,-0.4799,-0.4885,-0.4917,-0.4873,-0.4674,-0.4688,-0.4688,-0.4691,-0.4689,-0.4765,-0.4842,-0.4996,-0.5227,-0.5537,-0.5846,-0.6155,-0.6314,-0.6628,-0.694,-0.7405,-0.7482,-0.7559,-0.748,-0.748,-0.7171,-0.7017,-0.6782,-0.624,-0.5464,-0.4844,-0.4377,-0.4146,-0.4069,-0.3679,-0.3366,-0.36,-0.3601,-0.2978,-0.2665,-0.29,-0.9478,-0.9478,-0.9478,-0.9478,-0.9478,-0.9478,-0.9478,-0.9478,-0.9478,-0.9478,-0.9478,-0.9478,-0.9478,-0.9414,-0.9218,-0.8894,-0.8447,-0.7396,-0.7132,-0.6732,-0.5745,-0.5092,-0.496,-0.4831,-0.4434,-0.4364,-0.4434,-0.4366,-0.4302,-0.4302,-0.4302,-0.4302,-0.4302,-0.43,-0.4367,-0.4366,-0.4364,-0.4432,-0.4366,-0.4366,-0.4432,-0.4434,-0.4435,-0.4368,-0.4432,-0.4367,-0.4299,-0.4364,-0.4299,-0.43,-0.4302,-0.4302,-0.4302,-0.4302,-0.4302,-0.4302,-0.4302,-0.4302,-0.4302,-0.4302,-0.4302,-0.4302,-0.4302,-0.4302,-0.4302,-0.4302,-0.4302,-0.4302,-0.431,-0.4338,-0.4423,-0.4436,-0.4497,-0.4579,-0.4622,-0.4729,-0.4899,-0.5111,-0.5464,-0.5361,-0.5422,-0.5523,-0.5593,-0.5698,-0.5772,-0.6079,-0.6311,-0.6388,-0.6696,-0.685,-0.7084,-0.7088,-0.7247,-0.7405,-0.764,-0.7563,-0.7561,-0.748,-0.748,-0.7403,-0.7403,-0.7403,-0.6784,-0.6319,-0.6086,-0.5698,-0.5468,-0.5006,-0.4459,-0.4302,-0.4692,-0.4613,-0.3989,-0.3679,-0.3834,-0.9478,-0.9478,-0.9478,-0.9478,-0.9478,-0.9478,-0.9478,-0.9478,-0.9478,-0.9478,-0.9478,-0.9478,-0.9478,-0.9414,-0.9417,-0.902,-0.8431,-0.7847,-0.7129,-0.647,-0.5818,-0.5292,-0.5028,-0.4964,-0.4697,-0.4563,-0.4696,-0.4566,-0.4434,-0.4367,-0.43,-0.43,-0.4367,-0.4364,-0.4561,-0.4563,-0.4629,-0.4697,-0.4764,-0.4697,-0.4697,-0.4697,-0.4697,-0.4697,-0.4696,-0.4561,-0.4425,-0.4493,-0.4496,-0.4366,-0.4302,-0.4302,-0.4302,-0.4302,-0.4302,-0.4302,-0.4302,-0.4302,-0.4302,-0.4302,-0.4302,-0.4302,-0.4302,-0.4302,-0.4302,-0.4302,-0.4302,-0.4302,-0.4302,-0.4308,-0.4334,-0.433,-0.4389,-0.4513,-0.4634,-0.4909,-0.5215,-0.54,-0.5754,-0.6138,-0.6197,-0.643,-0.6621,-0.6745,-0.6859,-0.7244,-0.7551,-0.7625,-0.7625,-0.7702,-0.778,-0.7708,-0.7633,-0.7793,-0.7797,-0.7795,-0.7716,-0.7635,-0.7559,-0.7559,-0.7635,-0.7638,-0.7561,-0.7173,-0.7017,-0.663,-0.6012,-0.5546,-0.5081,-0.5158,-0.5391,-0.5234,-0.4924,-0.4845,-0.4767,-0.9478,-0.9478,-0.9478,-0.9478,-0.9478,-0.9478,-0.9478,-0.9478,-0.9478,-0.9478,-0.9478,-0.9478,-0.9344,-0.902,-0.8949,-0.849,-0.7904,-0.7384,-0.6859,-0.6207,-0.5818,-0.536,-0.5027,-0.4895,-0.4827,-0.4761,-0.4761,-0.4765,-0.4631,-0.4563,-0.4563,-0.4495,-0.4564,-0.4632,-0.4693,-0.4693,-0.4761,-0.4762,-0.4761,-0.4761,-0.4761,-0.4827,-0.4827,-0.4827,-0.4829,-0.4693,-0.4625,-0.4625,-0.4694,-0.4564,-0.4567,-0.4564,-0.4496,-0.4429,-0.4432,-0.4302,-0.4302,-0.4302,-0.4302,-0.4302,-0.4302,-0.4302,-0.4302,-0.4302,-0.4302,-0.4302,-0.4302,-0.4302,-0.4302,-0.4302,-0.4302,-0.4302,-0.4523,-0.4695,-0.4795,-0.5274,-0.563,-0.5729,-0.6072,-0.6535,-0.7003,-0.7157,-0.7329,-0.7346,-0.7475,-0.7749,-0.7986,-0.7997,-0.8082,-0.8169,-0.8172,-0.8174,-0.81,-0.8025,-0.8027,-0.7953,-0.7951,-0.787,-0.787,-0.787,-0.787,-0.7872,-0.7793,-0.7718,-0.7563,-0.7098,-0.6554,-0.6398,-0.6242,-0.6165,-0.6089,-0.5854,-0.5622,-0.5622,-0.5467,-0.9478,-0.9478,-0.9478,-0.9478,-0.9478,-0.9478,-0.9478,-0.9478,-0.9478,-0.9478,-0.9414,-0.9347,-0.8949,-0.849,-0.8293,-0.7839,-0.7123,-0.6595,-0.6332,-0.5941,-0.555,-0.5223,-0.516,-0.5028,-0.4962,-0.4895,-0.4964,-0.4899,-0.4831,-0.4895,-0.4827,-0.4691,-0.4694,-0.4829,-0.4894,-0.4892,-0.4894,-0.4962,-0.4962,-0.4962,-0.4962,-0.4962,-0.496,-0.4962,-0.4965,-0.4964,-0.4962,-0.4894,-0.4892,-0.4965,-0.4831,-0.4696,-0.4626,-0.456,-0.4561,-0.4432,-0.4367,-0.4302,-0.4302,-0.4302,-0.4302,-0.4302,-0.4368,-0.4435,-0.4768,-0.4569,-0.4434,-0.4564,-0.4367,-0.43,-0.4302,-0.4434,-0.4703,-0.497,-0.5239,-0.5704,-0.6034,-0.6207,-0.6476,-0.7013,-0.7392,-0.7577,-0.7702,-0.7872,-0.7981,-0.8296,-0.8415,-0.8431,-0.8452,-0.8463,-0.8479,-0.8482,-0.8403,-0.8253,-0.8178,-0.818,-0.818,-0.8178,-0.8102,-0.8102,-0.8025,-0.8025,-0.8025,-0.7951,-0.7953,-0.7721,-0.7178,-0.7253,-0.7326,-0.7017,-0.6707,-0.6551,-0.6397,-0.6397,-0.6165,-0.9478,-0.9478,-0.9478,-0.9478,-0.9478,-0.9478,-0.9478,-0.9478,-0.9478,-0.9478,-0.9414,-0.8888,-0.8619,-0.8293,-0.7707,-0.712,-0.6465,-0.6398,-0.6009,-0.562,-0.536,-0.5359,-0.5294,-0.5294,-0.5228,-0.5158,-0.516,-0.5096,-0.4964,-0.5163,-0.503,-0.4829,-0.4895,-0.4957,-0.5022,-0.509,-0.516,-0.5228,-0.5294,-0.5294,-0.5294,-0.5294,-0.5294,-0.5294,-0.5362,-0.536,-0.5359,-0.5158,-0.5161,-0.5238,-0.5032,-0.4894,-0.4826,-0.4691,-0.4626,-0.4561,-0.4432,-0.4434,-0.4368,-0.43,-0.4302,-0.4302,-0.4436,-0.4837,-0.5371,-0.4768,-0.4632,-0.4957,-0.4696,-0.4499,-0.4566,-0.4694,-0.4956,-0.5418,-0.5749,-0.6168,-0.6475,-0.6664,-0.6942,-0.7541,-0.7749,-0.7782,-0.7817,-0.7835,-0.7977,-0.8221,-0.8365,-0.8389,-0.8559,-0.8588,-0.8618,-0.863,-0.863,-0.8553,-0.8405,-0.8405,-0.8327,-0.8329,-0.8253,-0.8253,-0.8178,-0.8178,-0.825,-0.8178,-0.818,-0.8032,-0.788,-0.7644,-0.7561,-0.748,-0.7324,-0.7015,-0.7015,-0.7017,-0.6705,-0.9478,-0.9478,-0.9478,-0.9478,-0.9478,-0.9478,-0.9478,-0.9478,-0.9478,-0.9478,-0.9478,-0.8818,-0.8231,-0.7709,-0.7118,-0.6402,-0.5815,-0.5817,-0.562,-0.5489,-0.5427,-0.5427,-0.5427,-0.536,-0.536,-0.5292,-0.536,-0.536,-0.5231,-0.5364,-0.5297,-0.5229,-0.5161,-0.5226,-0.5291,-0.5291,-0.5292,-0.536,-0.5427,-0.5427,-0.5427,-0.5427,-0.5427,-0.5427,-0.5427,-0.5427,-0.536,-0.5292,-0.5362,-0.5365,-0.5233,-0.5095,-0.5025,-0.4891,-0.4824,-0.4759,-0.4631,-0.4564,-0.4566,-0.4432,-0.4302,-0.4503,-0.4905,-0.5507,-0.6037,-0.5498,-0.5427,-0.5357,-0.5156,-0.496,-0.5294,-0.5224,-0.5287,-0.5883,-0.6344,-0.6673,-0.687,-0.7064,-0.715,-0.7557,-0.7614,-0.7603,-0.7636,-0.7683,-0.7919,-0.8134,-0.8288,-0.8427,-0.8503,-0.8574,-0.8583,-0.8623,-0.8623,-0.8626,-0.8475,-0.8505,-0.8544,-0.8461,-0.838,-0.8367,-0.8355,-0.8473,-0.8546,-0.8477,-0.8295,-0.8116,-0.7966,-0.7783,-0.764,-0.7555,-0.7478,-0.7403,-0.748,-0.748,-0.7247,-0.9609,-0.9609,-0.9609,-0.9548,-0.9481,-0.9478,-0.9478,-0.9478,-0.9478,-0.9478,-0.9414,-0.8627,-0.7904,-0.7251,-0.647,-0.5949,-0.5557,-0.5427,-0.5427,-0.5427,-0.5427,-0.5427,-0.5427,-0.5427,-0.536,-0.5427,-0.5427,-0.5362,-0.5362,-0.5362,-0.5362,-0.5362,-0.5427,-0.536,-0.536,-0.5427,-0.5427,-0.5427,-0.5427,-0.5427,-0.5427,-0.5427,-0.5427,-0.5427,-0.5427,-0.5427,-0.5427,-0.536,-0.536,-0.5428,-0.536,-0.5292,-0.5224,-0.5156,-0.5092,-0.496,-0.4829,-0.4827,-0.4762,-0.4631,-0.4361,-0.4415,-0.5427,-0.6094,-0.6494,-0.642,-0.621,-0.6408,-0.6011,-0.5749,-0.6148,-0.6009,-0.6141,-0.6734,-0.7001,-0.7328,-0.7391,-0.7456,-0.7458,-0.7569,-0.7548,-0.7557,-0.7576,-0.7633,-0.7716,-0.7947,-0.8129,-0.8238,-0.8288,-0.8354,-0.8403,-0.8455,-0.851,-0.8512,-0.8517,-0.8517,-0.8566,-0.848,-0.8405,-0.8494,-0.8501,-0.8597,-0.8536,-0.8358,-0.8206,-0.8132,-0.7897,-0.7622,-0.7576,-0.7546,-0.746,-0.7441,-0.748,-0.748,-0.748,-0.9926,-0.9804,-0.9804,-0.9676,-0.9481,-0.9478,-0.9478,-0.9478,-0.9478,-0.9414,-0.9145,-0.8037,-0.7449,-0.706,-0.6079,-0.5557,-0.5427,-0.5427,-0.5427,-0.5427,-0.5427,-0.5427,-0.5427,-0.5427,-0.5427,-0.5427,-0.5427,-0.5427,-0.5427,-0.5427,-0.5427,-0.5427,-0.5427,-0.5427,-0.5427,-0.5427,-0.5427,-0.5427,-0.5427,-0.5427,-0.5427,-0.5427,-0.5427,-0.5427,-0.5427,-0.5427,-0.5427,-0.5427,-0.5427,-0.5427,-0.5427,-0.536,-0.5359,-0.5359,-0.5292,-0.509,-0.4962,-0.4829,-0.4829,-0.4764,-0.468,-0.4662,-0.5674,-0.6889,-0.7749,-0.7666,-0.7057,-0.7323,-0.7055,-0.6726,-0.6857,-0.6985,-0.7188,-0.7391,-0.7657,-0.7789,-0.7852,-0.7784,-0.7657,-0.7659,-0.7591,-0.7528,-0.7528,-0.7559,-0.7655,-0.7826,-0.7959,-0.8056,-0.8089,-0.8174,-0.8245,-0.8283,-0.8349,-0.8333,-0.8359,-0.8536,-0.8581,-0.8477,-0.8406,-0.8401,-0.8363,-0.8321,-0.8245,-0.8153,-0.8129,-0.8079,-0.7713,-0.7405,-0.7354,-0.7364,-0.7376,-0.7395,-0.7443,-0.7437,-0.7387,-0.9926,-0.9801,-0.9801,-0.9676,-0.9481,-0.9478,-0.9478,-0.9478,-0.9414,-0.9002,-0.8135,-0.7502,-0.7125,-0.6533,-0.5947,-0.5427,-0.5427,-0.5427,-0.5427,-0.5427,-0.5427,-0.5427,-0.5427,-0.5427,-0.5427,-0.5427,-0.5427,-0.5427,-0.5427,-0.5427,-0.5427,-0.5427,-0.5427,-0.5427,-0.5427,-0.5427,-0.5427,-0.5427,-0.5427,-0.5427,-0.5427,-0.5427,-0.5427,-0.5427,-0.5427,-0.5427,-0.5427,-0.5427,-0.5427,-0.5427,-0.5427,-0.5427,-0.5427,-0.5427,-0.536,-0.5291,-0.5228,-0.5228,-0.5357,-0.5418,-0.5397,-0.5456,-0.6195,-0.769,-0.8774,-0.8406,-0.8187,-0.8042,-0.7777,-0.7579,-0.7847,-0.7579,-0.7647,-0.7984,-0.8184,-0.8187,-0.812,-0.7987,-0.7854,-0.7857,-0.7857,-0.7657,-0.7589,-0.7526,-0.76,-0.7657,-0.7773,-0.7846,-0.7881,-0.8028,-0.8132,-0.8134,-0.816,-0.8139,-0.8181,-0.8318,-0.8349,-0.8238,-0.8191,-0.8186,-0.8136,-0.8073,-0.8059,-0.8021,-0.7983,-0.7938,-0.7592,-0.7355,-0.7252,-0.7159,-0.719,-0.7243,-0.7196,-0.7186,-0.7161,-1.0053,-0.9865,-0.9926,-0.9798,-0.9609,-0.9548,-0.9478,-0.9478,-0.9218,-0.8466,-0.7526,-0.7165,-0.6857,-0.627,-0.5752,-0.5427,-0.5427,-0.5427,-0.5427,-0.5427,-0.5427,-0.5427,-0.5427,-0.5427,-0.5427,-0.5427,-0.5427,-0.5427,-0.5427,-0.5427,-0.5427,-0.5427,-0.5427,-0.5427,-0.5427,-0.5427,-0.5427,-0.5427,-0.5427,-0.5427,-0.5427,-0.5427,-0.5427,-0.5427,-0.5427,-0.5427,-0.5427,-0.5425,-0.5422,-0.5418,-0.542,-0.542,-0.542,-0.5423,-0.5425,-0.5427,-0.562,-0.5684,-0.5879,-0.6338,-0.6314,-0.6027,-0.7123,-0.8275,-0.9223,-0.8989,-0.8908,-0.87,-0.8433,-0.8436,-0.8503,-0.8234,-0.8369,-0.8638,-0.8573,-0.8509,-0.8509,-0.8374,-0.8117,-0.8117,-0.7987,-0.7787,-0.7589,-0.7524,-0.7548,-0.7593,-0.7648,-0.7702,-0.7755,-0.7813,-0.7926,-0.7993,-0.7998,-0.791,-0.7947,-0.8056,-0.8059,-0.799,-0.7976,-0.7973,-0.7917,-0.786,-0.7874,-0.787,-0.7754,-0.7594,-0.742,-0.7244,-0.7125,-0.7047,-0.6963,-0.6964,-0.6984,-0.6952,-0.6964,-1.0368,-1.0047,-1.0238,-1.012,-0.9801,-0.9612,-0.9545,-0.942,-0.8821,-0.8073,-0.7256,-0.6643,-0.6398,-0.6272,-0.5688,-0.5428,-0.5427,-0.5427,-0.5427,-0.5427,-0.5427,-0.5427,-0.5427,-0.5427,-0.5427,-0.5427,-0.5427,-0.5427,-0.5427,-0.5427,-0.5427,-0.5427,-0.5427,-0.5427,-0.5427,-0.5332,-0.5338,-0.5348,-0.5427,-0.5427,-0.5427,-0.5427,-0.534,-0.5326,-0.5313,-0.5361,-0.5353,-0.5344,-0.5358,-0.5368,-0.5379,-0.5391,-0.5401,-0.5343,-0.5411,-0.5593,-0.6021,-0.614,-0.649,-0.7001,-0.7219,-0.7057,-0.7947,-0.8818,-0.9224,-0.9361,-0.9291,-0.9288,-0.9151,-0.9087,-0.9022,-0.9087,-0.9151,-0.9087,-0.8952,-0.8955,-0.8894,-0.8697,-0.8441,-0.8247,-0.8049,-0.7852,-0.7591,-0.7526,-0.7591,-0.7545,-0.7579,-0.7583,-0.7621,-0.7609,-0.77,-0.7702,-0.7712,-0.7733,-0.7798,-0.7827,-0.7822,-0.777,-0.7768,-0.7758,-0.7699,-0.7731,-0.7731,-0.7633,-0.74,-0.7263,-0.7225,-0.7147,-0.7028,-0.689,-0.6884,-0.6876,-0.6942,-0.6865,-0.6826,-1.0431,-1.0241,-1.0308,-1.018,-0.9926,-0.9862,-0.974,-0.9432,-0.9025,-0.8011,-0.6355,-0.6523,-0.6272,-0.5815,-0.5493,-0.5427,-0.5427,-0.5427,-0.5427,-0.5427,-0.5428,-0.5427,-0.5427,-0.5427,-0.5427,-0.5427,-0.5427,-0.5427,-0.5427,-0.5427,-0.5427,-0.5427,-0.5338,-0.5345,-0.5303,-0.5252,-0.5279,-0.5306,-0.5318,-0.5384,-0.5392,-0.5323,-0.5281,-0.5225,-0.5199,-0.5231,-0.5295,-0.521,-0.5142,-0.5128,-0.5312,-0.5309,-0.5047,-0.5045,-0.5166,-0.5649,-0.5964,-0.6183,-0.6879,-0.7548,-0.7828,-0.7845,-0.8492,-0.9145,-0.9481,-0.9469,-0.9469,-0.9478,-0.9478,-0.935,-0.9285,-0.935,-0.9414,-0.9347,-0.9212,-0.9151,-0.9154,-0.9025,-0.8767,-0.8568,-0.8374,-0.7987,-0.7724,-0.7657,-0.7657,-0.7591,-0.7526,-0.7526,-0.7526,-0.7526,-0.7528,-0.754,-0.7555,-0.7617,-0.76,-0.7669,-0.765,-0.7565,-0.7586,-0.7598,-0.7636,-0.76,-0.7545,-0.7461,-0.7396,-0.7265,-0.7157,-0.7138,-0.7141,-0.6946,-0.6931,-0.6899,-0.6879,-0.6821,-0.6817,-1.0498,-1.0301,-1.0368,-1.0371,-1.0238,-0.9916,-0.9612,-0.9309,-0.8823,-0.7553,-0.6106,-0.6133,-0.6015,-0.5683,-0.5489,-0.5427,-0.5491,-0.5427,-0.5427,-0.5489,-0.5428,-0.5427,-0.5427,-0.5428,-0.5427,-0.5427,-0.5425,-0.5427,-0.5415,-0.5415,-0.5348,-0.526,-0.527,-0.5233,-0.5169,-0.5092,-0.5098,-0.5138,-0.5172,-0.5187,-0.5262,-0.5264,-0.512,-0.5135,-0.5111,-0.5171,-0.5345,-0.5264,-0.5385,-0.5385,-0.5699,-0.5387,-0.5391,-0.5703,-0.5703,-0.6192,-0.6562,-0.6857,-0.7372,-0.7942,-0.8198,-0.8401,-0.8793,-0.9149,-0.9403,-0.9521,-0.9506,-0.9478,-0.9478,-0.9478,-0.9478,-0.9481,-0.9478,-0.9478,-0.9414,-0.9288,-0.9288,-0.9288,-0.909,-0.8891,-0.8633,-0.8249,-0.799,-0.7922,-0.7854,-0.7789,-0.7722,-0.7654,-0.7589,-0.7526,-0.7526,-0.7531,-0.7531,-0.7545,-0.7526,-0.7526,-0.7548,-0.7567,-0.7569,-0.7567,-0.7526,-0.7526,-0.7526,-0.7526,-0.7526,-0.7396,-0.7265,-0.733,-0.7267,-0.7138,-0.7073,-0.7104,-0.7061,-0.6944,-0.6867,-1.0498,-1.0371,-1.0558,-1.0495,-1.0425,-0.9783,-0.9344,-0.8989,-0.8304,-0.7295,-0.6246,-0.5802,-0.5747,-0.5751,-0.5557,-0.5557,-0.5624,-0.5559,-0.5557,-0.5615,-0.5557,-0.5493,-0.5495,-0.5493,-0.5467,-0.5472,-0.5389,-0.5471,-0.543,-0.5396,-0.5317,-0.5118,-0.5239,-0.5326,-0.5239,-0.5349,-0.5398,-0.5407,-0.5338,-0.5325,-0.5132,-0.5059,-0.4972,-0.5083,-0.5195,-0.5297,-0.5694,-0.599,-0.6181,-0.6221,-0.5956,-0.5504,-0.6361,-0.6481,-0.6547,-0.6724,-0.7039,-0.739,-0.7728,-0.8234,-0.8711,-0.8915,-0.9011,-0.8923,-0.9043,-0.9316,-0.9391,-0.946,-0.9478,-0.9478,-0.9478,-0.9478,-0.9478,-0.9478,-0.9417,-0.9417,-0.9417,-0.9353,-0.9221,-0.9022,-0.8826,-0.8441,-0.8317,-0.8184,-0.8122,-0.8055,-0.7984,-0.7917,-0.7852,-0.7722,-0.7591,-0.7591,-0.7524,-0.7524,-0.7526,-0.7526,-0.7526,-0.7528,-0.7526,-0.7526,-0.7526,-0.7526,-0.7526,-0.7526,-0.7526,-0.7526,-0.7461,-0.7461,-0.7458,-0.7396,-0.733,-0.7328,-0.7265,-0.7071,-0.6962,-1.0558,-1.0561,-1.0558,-1.0295,-0.9776,-0.9585,-0.8882,-0.7922,-0.7719,-0.7125,-0.6406,-0.6147,-0.6017,-0.5951,-0.5822,-0.5756,-0.5822,-0.5758,-0.5822,-0.5804,-0.5738,-0.5636,-0.5734,-0.5629,-0.5667,-0.5599,-0.5554,-0.5458,-0.5405,-0.5426,-0.5395,-0.5402,-0.5573,-0.5765,-0.5698,-0.5856,-0.5959,-0.5897,-0.5874,-0.5769,-0.5676,-0.565,-0.571,-0.5847,-0.602,-0.5946,-0.6119,-0.5923,-0.6023,-0.6117,-0.5187,-0.5765,-0.7425,-0.6776,-0.6645,-0.6923,-0.7255,-0.7622,-0.7935,-0.8279,-0.8573,-0.8774,-0.8703,-0.8504,-0.8571,-0.897,-0.9214,-0.9361,-0.9463,-0.9457,-0.9463,-0.9463,-0.9478,-0.9478,-0.9478,-0.9478,-0.9478,-0.9417,-0.9353,-0.9154,-0.8955,-0.8829,-0.8644,-0.8517,-0.8452,-0.8452,-0.8382,-0.8314,-0.8314,-0.8184,-0.7854,-0.7787,-0.7589,-0.7524,-0.7589,-0.7657,-0.7724,-0.7591,-0.7591,-0.7526,-0.7526,-0.7526,-0.7526,-0.7526,-0.7526,-0.7526,-0.7526,-0.7526,-0.7458,-0.7458,-0.7458,-0.7458,-0.7458,-0.733,-0.7138,-1.0621,-1.0621,-1.0621,-1.0361,-0.9913,-0.9323,-0.8619,-0.7909,-0.726,-0.6806,-0.6418,-0.6284,-0.6214,-0.6148,-0.5956,-0.5945,-0.6011,-0.5892,-0.5894,-0.5864,-0.5834,-0.5707,-0.5707,-0.5758,-0.5616,-0.5481,-0.5468,-0.5484,-0.5508,-0.5695,-0.5755,-0.5778,-0.6104,-0.6357,-0.6347,-0.6494,-0.6614,-0.6486,-0.6522,-0.6466,-0.634,-0.6257,-0.6114,-0.6286,-0.6307,-0.6406,-0.6544,-0.6352,-0.6522,-0.6748,-0.6416,-0.6534,-0.7538,-0.7361,-0.722,-0.7379,-0.7563,-0.7637,-0.7966,-0.8156,-0.821,-0.8333,-0.8348,-0.8125,-0.8175,-0.8551,-0.8798,-0.8953,-0.9202,-0.9301,-0.9313,-0.9331,-0.9436,-0.9478,-0.9478,-0.9478,-0.9478,-0.9481,-0.9417,-0.9353,-0.9221,-0.9221,-0.9098,-0.9098,-0.8966,-0.8765,-0.87,-0.8703,-0.8641,-0.8832,-0.8503,-0.8239,-0.8169,-0.8044,-0.8055,-0.8055,-0.7987,-0.7854,-0.7722,-0.7591,-0.7591,-0.7526,-0.7526,-0.7526,-0.7526,-0.7526,-0.7526,-0.7526,-0.7526,-0.7524,-0.7524,-0.7526,-0.7526,-0.7461,-0.7267,-1.0621,-1.0621,-1.0621,-1.0558,-1.0304,-0.9069,-0.8425,-0.8102,-0.7001,-0.642,-0.6404,-0.625,-0.6189,-0.6148,-0.6056,-0.6117,-0.6088,-0.595,-0.5892,-0.5836,-0.5738,-0.5757,-0.5688,-0.5557,-0.5599,-0.5731,-0.5803,-0.5789,-0.5862,-0.608,-0.6303,-0.6272,-0.6553,-0.6888,-0.6804,-0.6861,-0.6995,-0.7063,-0.7071,-0.7071,-0.6923,-0.6745,-0.6564,-0.6448,-0.6482,-0.6699,-0.6966,-0.7182,-0.7343,-0.7456,-0.7619,-0.7681,-0.7741,-0.7744,-0.7744,-0.7791,-0.7791,-0.7866,-0.7943,-0.7958,-0.7955,-0.7946,-0.7904,-0.794,-0.7967,-0.8125,-0.8426,-0.864,-0.889,-0.9089,-0.9162,-0.9286,-0.9337,-0.95,-0.95,-0.9539,-0.9542,-0.9542,-0.9545,-0.9484,-0.9484,-0.9484,-0.9612,-0.9612,-0.9475,-0.9271,-0.9142,-0.9017,-0.9084,-0.9402,-0.946,-0.9329,-0.9262,-0.9078,-0.8641,-0.8447,-0.8376,-0.812,-0.7987,-0.7789,-0.7657,-0.7526,-0.7526,-0.7526,-0.7526,-0.7526,-0.7526,-0.7526,-0.7526,-0.7526,-0.7526,-0.7526,-0.7526,-0.7461,-0.7265,-1.0621,-1.0621,-1.0621,-1.0298,-0.9649,-0.8874,-0.8229,-0.7584,-0.6802,-0.6422,-0.6359,-0.6264,-0.6262,-0.6334,-0.6185,-0.6135,-0.6119,-0.5978,-0.589,-0.5882,-0.5813,-0.5852,-0.5862,-0.5774,-0.6007,-0.6207,-0.6471,-0.6693,-0.6504,-0.6738,-0.6942,-0.6898,-0.7321,-0.7561,-0.7597,-0.7717,-0.7987,-0.788,-0.7827,-0.788,-0.7673,-0.7515,-0.7357,-0.7357,-0.7571,-0.7625,-0.7732,-0.7735,-0.7791,-0.7848,-0.7904,-0.7904,-0.7904,-0.7904,-0.7904,-0.7904,-0.7904,-0.7904,-0.7904,-0.7904,-0.7904,-0.7904,-0.7904,-0.7967,-0.8021,-0.8072,-0.8282,-0.8331,-0.8578,-0.8854,-0.8929,-0.9065,-0.9204,-0.9366,-0.9409,-0.9594,-0.9664,-0.9667,-0.9673,-0.9673,-0.9673,-0.9862,-1.0117,-1.0177,-1.0298,-1.0161,-1.0285,-1.0225,-1.0098,-1.0288,-1.0351,-1.0288,-1.0225,-0.9527,-0.8829,-0.8894,-0.8765,-0.8509,-0.8249,-0.8049,-0.7852,-0.7591,-0.7526,-0.7524,-0.7524,-0.7526,-0.7526,-0.7526,-0.7526,-0.7526,-0.7526,-0.7526,-0.7526,-0.7461,-0.733]},{"header":{"parameterUnit":"m.s-1","parameterCategory":1,"la1":31.0,"la2":29.5877,"lo1":-88.7671,"lo2":-86.6584,"dx":0.0162,"dy":0.0185,"nx":115,"ny":88,"refTime":"2022-12-06T06:00:00:Z","depth":0,"parameterNumber":3,"parameterNumberName":"V-component_of_WINDS"},"data":[0.0,0.0,0.0,0.0,0.0,0.0,0.0,0.0,0.0,0.0,0.0,0.0,0.0,0.0,0.0,0.0,0.0,0.0,0.0,0.0,0.0,0.0,0.0,0.0,0.0,0.0,0.0,0.0,0.0,0.0,0.0,0.0,0.0,0.0,0.0,0.0,0.0,0.0,0.0,0.0,0.0,0.0,0.0,0.0,0.0,0.0,0.0,0.0,0.0,0.0,0.0,0.0,0.0,0.0,0.0,0.0,0.0,0.0,0.0,0.0,0.0,0.0,0.0,0.0,0.0,0.0,0.0,0.0,0.0,0.0,0.0,0.0,0.0,0.0,0.0,0.0,0.0,0.0,0.0,0.0,0.0,0.0,0.0,0.0,0.0,0.0,0.0,0.0,0.0,0.0,0.0,0.0,0.0,0.0,0.0,0.0,0.0,0.0,0.0,0.0,0.0,0.0,0.0,0.0,0.0,0.0,0.0,0.0,0.0,0.0,0.0,0.0,0.0,0.0,0.0,0.0,0.0,0.0,0.0,0.0,0.0,0.0,0.0,0.0,0.0,0.0,0.0,0.0,0.0,0.0,0.0,0.0,0.0,0.0,0.0,0.0,0.0,0.0,0.0,0.0,0.0,0.0,0.0,0.0,0.0,0.0,0.0,0.0,0.0,0.0,0.0,0.0,0.0,0.0,0.0,0.0,0.0,0.0,0.0,0.0,0.0,0.0,0.0,0.0,0.0,0.0,0.0,0.0,0.0,0.0,0.0,0.0,0.0,0.0,0.0,0.0,0.0,0.0,0.0,0.0,0.0,0.0,0.0,0.0,0.0,0.0,0.0,0.0,0.0,0.0,0.0,0.0,0.0,0.0,0.0,0.0,0.0,0.0,0.0,0.0,0.0,0.0,0.0,0.0,0.0,0.0,0.0,0.0,0.0,0.0,0.0,0.0,0.0,0.0,0.0,0.0,0.0,0.0,0.0,0.0,0.0,0.0,0.0,0.0,0.0,0.0,0.0,0.0,0.0,0.0,0.0,0.0,0.0,0.0,0.0,0.0,0.0,0.0,0.0,0.0,0.0,0.0,0.0,0.0,0.0,0.0,0.0,0.0,0.0,0.0,0.0,0.0,0.0,0.0,0.0,0.0,0.0,0.0,0.0,0.0,0.0,0.0,0.0,0.0,0.0,0.0,0.0,0.0,0.0,0.0,0.0,0.0,0.0,0.0,0.0,0.0,0.0,0.0,0.0,0.0,0.0,0.0,0.0,0.0,0.0,0.0,0.0,0.0,0.0,0.0,0.0,0.0,0.0,0.0,0.0,0.0,0.0,0.0,0.0,0.0,0.0,0.0,0.0,0.0,0.0,0.0,0.0,0.0,0.0,0.0,0.0,0.0,0.0,0.0,0.0,0.0,0.0,0.0,0.0,0.0,0.0,0.0,0.0,0.0,0.0,0.0,0.0,0.0,0.0,0.0,0.0,0.0,0.0,0.0,0.0,0.0,0.0,0.0,0.0,0.0,0.0,0.0,0.0,0.0,0.0,0.0,0.0,0.0,0.0,0.0,0.0,0.0,0.0,0.0,0.0,0.0,0.0,0.0,0.0,0.0,0.0,0.0,0.0,0.0,0.0,0.0,0.0,0.0,0.0,0.0,0.0,0.0,0.0,0.0,0.0,0.0,0.0,0.0,0.0,0.0,0.0,0.0,0.0,0.0,0.0,0.0,0.0,0.0,0.0,0.0,0.0,0.0,0.0,0.0,0.0,0.0,0.0,0.0,0.0,0.0,0.0,0.0,0.0,0.0,0.0,0.0,0.0,0.0,0.0,0.0,0.0,0.0,0.0,0.0,0.0,0.0,0.0,0.0,0.0,0.0,0.0,0.0,0.0,0.0,0.0,0.0,0.0,0.0,0.0,0.0,0.0,0.0,0.0,0.0,0.0,0.0,0.0,0.0,0.0,0.0,0.0,0.0,0.0,0.0,0.0,0.0,0.0,0.0,0.0,0.0,0.0,0.0,0.0,0.0,0.0,0.0,0.0,0.0,0.0,0.0,0.0,0.0,0.0,0.0,0.0,0.0,0.0,0.0,0.0,0.0,0.0,0.0,0.0,0.0,0.0,0.0,0.0,0.0,0.0,0.0,0.0,0.0,0.0,0.0,0.0,0.0,0.0,0.0,0.0,0.0,0.0,0.0,0.0,0.0,0.0,0.0,0.0,0.0,0.0,0.0,0.0,0.0,0.0,0.0,0.0,0.0,0.0,0.0,0.0,0.0,0.0,0.0,0.0,0.0,0.0,0.0,0.0,0.0,0.0,0.0,0.0,0.0,0.0,0.0,0.0,0.0,0.0,0.0,0.0,0.0,0.0,0.0,0.0,0.0,0.0,0.0,0.0,0.0,0.0,0.0,0.0,0.0,0.0,0.0,0.0,0.0,0.0,0.0,0.0,0.0,0.0,0.0,0.0,0.0,0.0,0.0,0.0,0.0,0.0,0.0,0.0,0.0,0.0,0.0,0.0,0.0,0.0,0.0,0.0,0.0,0.0,0.0,0.0,0.0,0.0,0.0,0.0,0.0,0.0,0.0,0.0,0.0,0.0,0.0,0.0,0.0,0.0,0.0,0.0,0.0,0.0,0.0,0.0,0.0,0.0,0.0,0.0,0.0,0.0,0.0,0.0,0.0,0.0,0.0,0.0,0.0,0.0,0.0,0.0,0.0,0.0,0.0,0.0,0.0,0.0,0.0,0.0,0.0,0.0,0.0,0.0,0.0,0.0,0.0,0.0,0.0,0.0,0.0,0.0,0.0,0.0,0.0,0.0,0.0,0.0,0.0,0.0,0.0,0.0,0.0,0.0,0.0,0.0,0.0,0.0,0.0,0.0,0.0,0.0,0.0,0.0,0.0,0.0,0.0,0.0,0.0,0.0,0.0,0.0,0.0,0.0,0.0,0.0,0.0,0.0,0.0,0.0,0.0,0.0,0.0,0.0,0.0,0.0,0.0,0.0,0.0,0.0,0.0,0.0,0.0,0.0,0.0,0.0,0.0,0.0,0.0,0.0,0.0,0.0,0.0,0.0,0.0,0.0,0.0,0.0,0.0,0.0,0.0,0.0,0.0,0.0,0.0,0.0,0.0,0.0,0.0,0.0,0.0,0.0,0.0,0.0,0.0,0.0,0.0,0.0,0.0,0.0,0.0,0.0,0.0,0.0,0.0,0.0,0.0,0.0,0.0,0.0,0.0,0.0,0.0,0.0,0.0,0.0,0.0,0.0,0.0,0.0,0.0,0.0,0.0,0.0,0.0,0.0,0.0,0.0,0.0,0.0,0.0,0.0,0.0,0.0,0.0,0.0,0.0,0.0,0.0,0.0,0.0,0.0,0.0,0.0,0.0,0.0,0.0,0.0,0.0,0.0,0.0,0.0,0.0,0.0,0.0,0.0,0.0,0.0,0.0,0.0,0.0,0.0,0.0,0.0,0.0,0.0,0.0,0.0,0.0,0.0,0.0,0.0,0.0,0.0,0.0,0.0,0.0,0.0,0.0,0.0,0.0,0.0,0.0,0.0,0.0,0.0,0.0,0.0,0.0,0.0,0.0,0.0,0.0,0.0,0.0,0.0,0.0,0.0,0.0,0.0,0.0,0.0,0.0,0.0,0.0,0.0,0.0,0.0,0.0,0.0,0.0,0.0,0.0,0.0,0.0,0.0,0.0,0.0,0.0,0.0,0.0,0.0,0.0,0.0,0.0,0.0,0.0,0.0,0.0,0.0,0.0,0.0,0.0,0.0,0.0,0.0,0.0,0.0,0.0,0.0,0.0,0.0,0.0,0.0,0.0,0.0,0.0,0.0,0.0,0.0,0.0,0.0,0.0,0.0,0.0,0.0,0.0,0.0,0.0,0.0,0.0,0.0,0.0,0.0,0.0,0.0,0.0,0.0,0.0,0.0,0.0,0.0,0.0,0.0,0.0,0.0,0.0,0.0,0.0,0.0,0.0,0.0,0.0,0.0,0.0,0.0,0.0,0.0,0.0,0.0,0.0,0.0,0.0,0.0,0.0,0.0,0.0,0.0,0.0,0.0,0.0,0.0,0.0,0.0,0.0,0.0,0.0,0.0,0.0,0.0,0.0,0.0,0.0,0.0,0.0,0.0,0.0,0.0,0.0,0.0,0.0,0.0,0.0,0.0,0.0,0.0,0.0,0.0,0.0,0.0,0.0,0.0,0.0,0.0,0.0,0.0,0.0,0.0,0.0,0.0,0.0,0.0,0.0,0.0,0.0,-1.8187,0.0,0.0,0.0,-1.7697,0.0,0.0,0.0,0.0,0.0,0.0,0.0,0.0,0.0,0.0,0.0,0.0,0.0,0.0,0.0,0.0,0.0,0.0,0.0,0.0,0.0,0.0,0.0,0.0,0.0,0.0,0.0,0.0,0.0,0.0,0.0,0.0,0.0,0.0,0.0,0.0,0.0,0.0,0.0,0.0,0.0,0.0,0.0,0.0,0.0,0.0,0.0,0.0,0.0,0.0,0.0,0.0,0.0,0.0,0.0,0.0,0.0,0.0,0.0,0.0,0.0,0.0,0.0,0.0,0.0,0.0,0.0,0.0,0.0,0.0,0.0,0.0,0.0,0.0,0.0,0.0,0.0,0.0,0.0,0.0,0.0,0.0,0.0,0.0,0.0,0.0,0.0,0.0,0.0,0.0,0.0,0.0,0.0,0.0,0.0,0.0,0.0,0.0,0.0,0.0,0.0,0.0,0.0,0.0,0.0,0.0,0.0,0.0,0.0,0.0,-1.8187,-1.7524,-1.8543,-1.8575,-1.7548,0.0,0.0,0.0,0.0,0.0,0.0,0.0,0.0,0.0,0.0,0.0,0.0,0.0,0.0,0.0,0.0,0.0,0.0,0.0,0.0,0.0,0.0,0.0,0.0,0.0,0.0,0.0,0.0,0.0,0.0,0.0,0.0,0.0,0.0,0.0,0.0,0.0,0.0,0.0,0.0,0.0,0.0,0.0,0.0,0.0,0.0,0.0,0.0,0.0,0.0,0.0,0.0,0.0,0.0,0.0,0.0,0.0,0.0,0.0,0.0,0.0,0.0,0.0,0.0,0.0,0.0,0.0,0.0,0.0,0.0,0.0,0.0,0.0,0.0,0.0,0.0,0.0,0.0,0.0,0.0,0.0,0.0,0.0,0.0,0.0,0.0,0.0,0.0,0.0,0.0,0.0,0.0,0.0,0.0,0.0,0.0,0.0,0.0,0.0,0.0,0.0,0.0,0.0,0.0,0.0,0.0,0.0,0.0,0.0,0.0,0.0,0.0,-1.8559,-1.8534,-1.7311,0.0,0.0,0.0,0.0,0.0,0.0,0.0,0.0,0.0,0.0,0.0,0.0,0.0,0.0,0.0,0.0,0.0,0.0,0.0,0.0,0.0,0.0,0.0,0.0,0.0,0.0,0.0,0.0,0.0,0.0,0.0,0.0,0.0,0.0,0.0,0.0,0.0,0.0,0.0,0.0,0.0,0.0,0.0,0.0,0.0,0.0,0.0,0.0,0.0,0.0,0.0,0.0,0.0,0.0,0.0,0.0,0.0,0.0,0.0,0.0,0.0,0.0,0.0,0.0,0.0,0.0,0.0,0.0,0.0,0.0,0.0,0.0,0.0,0.0,0.0,0.0,0.0,0.0,0.0,0.0,0.0,0.0,0.0,0.0,0.0,0.0,0.0,0.0,0.0,0.0,0.0,0.0,0.0,0.0,0.0,0.0,0.0,0.0,0.0,0.0,0.0,0.0,0.0,0.0,0.0,0.0,0.0,0.0,0.0,0.0,-1.7565,-1.7506,-1.7623,0.0,-1.6562,0.0,0.0,0.0,0.0,0.0,0.0,0.0,0.0,0.0,0.0,0.0,0.0,0.0,0.0,0.0,0.0,0.0,0.0,0.0,0.0,0.0,0.0,0.0,0.0,0.0,0.0,0.0,0.0,0.0,0.0,0.0,0.0,0.0,0.0,0.0,0.0,0.0,0.0,0.0,0.0,0.0,0.0,0.0,0.0,0.0,0.0,0.0,0.0,0.0,0.0,0.0,0.0,0.0,0.0,0.0,0.0,0.0,0.0,0.0,0.0,0.0,0.0,0.0,0.0,0.0,0.0,0.0,0.0,0.0,0.0,0.0,0.0,0.0,0.0,0.0,0.0,0.0,0.0,0.0,0.0,0.0,0.0,0.0,0.0,0.0,0.0,0.0,0.0,0.0,0.0,0.0,0.0,0.0,0.0,0.0,0.0,0.0,0.0,0.0,0.0,0.0,0.0,0.0,0.0,0.0,0.0,0.0,0.0,0.0,0.0,-1.7498,-1.7498,-1.7084,-1.671,0.0,0.0,0.0,0.0,0.0,0.0,0.0,0.0,0.0,0.0,0.0,0.0,0.0,0.0,0.0,0.0,0.0,0.0,0.0,0.0,0.0,0.0,0.0,0.0,0.0,0.0,0.0,0.0,0.0,0.0,0.0,0.0,0.0,0.0,0.0,0.0,0.0,0.0,0.0,0.0,0.0,0.0,0.0,0.0,0.0,0.0,0.0,0.0,0.0,0.0,0.0,0.0,0.0,0.0,0.0,0.0,0.0,0.0,0.0,0.0,0.0,0.0,0.0,0.0,0.0,0.0,0.0,0.0,0.0,0.0,0.0,0.0,0.0,0.0,0.0,0.0,0.0,0.0,0.0,0.0,0.0,0.0,0.0,0.0,0.0,0.0,0.0,0.0,0.0,0.0,0.0,0.0,0.0,0.0,0.0,0.0,0.0,0.0,0.0,0.0,0.0,0.0,0.0,0.0,0.0,0.0,0.0,0.0,0.0,0.0,-1.7399,-1.7498,-1.7465,-1.6785,-1.6312,-1.6103,0.0,0.0,0.0,0.0,0.0,0.0,0.0,0.0,0.0,0.0,0.0,0.0,0.0,0.0,0.0,0.0,0.0,0.0,0.0,0.0,0.0,0.0,0.0,0.0,0.0,0.0,0.0,0.0,0.0,0.0,0.0,0.0,0.0,0.0,0.0,0.0,0.0,0.0,0.0,0.0,0.0,0.0,0.0,0.0,0.0,0.0,0.0,0.0,0.0,0.0,0.0,0.0,0.0,0.0,0.0,0.0,0.0,0.0,0.0,0.0,0.0,0.0,0.0,0.0,0.0,0.0,0.0,0.0,0.0,0.0,0.0,0.0,0.0,0.0,0.0,0.0,0.0,0.0,0.0,0.0,0.0,0.0,0.0,0.0,0.0,0.0,0.0,0.0,0.0,0.0,0.0,0.0,0.0,0.0,0.0,0.0,0.0,0.0,0.0,0.0,0.0,0.0,0.0,0.0,0.0,0.0,0.0,0.0,-1.6486,-1.7142,-1.7506,-1.7515,-1.6793,-1.6072,0.0,0.0,0.0,0.0,0.0,0.0,0.0,0.0,0.0,0.0,0.0,0.0,0.0,0.0,0.0,0.0,0.0,0.0,0.0,0.0,0.0,0.0,0.0,0.0,0.0,0.0,0.0,0.0,0.0,0.0,0.0,0.0,0.0,0.0,0.0,0.0,0.0,0.0,0.0,0.0,0.0,0.0,0.0,0.0,0.0,0.0,0.0,0.0,0.0,0.0,0.0,0.0,0.0,0.0,0.0,0.0,0.0,0.0,0.0,0.0,0.0,0.0,0.0,0.0,0.0,0.0,0.0,0.0,0.0,0.0,0.0,0.0,0.0,0.0,0.0,0.0,0.0,0.0,0.0,0.0,0.0,0.0,0.0,0.0,0.0,0.0,0.0,0.0,0.0,0.0,0.0,0.0,0.0,0.0,0.0,0.0,0.0,0.0,0.0,0.0,0.0,0.0,0.0,0.0,0.0,0.0,0.0,0.0,0.0,-1.6428,-1.7133,-1.7722,-1.8071,-1.6569,-1.5787,0.0,0.0,0.0,0.0,0.0,0.0,0.0,0.0,0.0,0.0,0.0,0.0,0.0,0.0,0.0,0.0,0.0,0.0,0.0,0.0,0.0,0.0,0.0,0.0,0.0,0.0,0.0,0.0,0.0,0.0,0.0,0.0,0.0,0.0,0.0,0.0,0.0,0.0,0.0,0.0,0.0,0.0,0.0,0.0,0.0,0.0,0.0,0.0,0.0,0.0,0.0,0.0,0.0,0.0,0.0,0.0,0.0,0.0,0.0,0.0,0.0,0.0,0.0,0.0,0.0,0.0,0.0,0.0,0.0,0.0,0.0,0.0,0.0,0.0,0.0,0.0,0.0,0.0,0.0,0.0,0.0,0.0,0.0,0.0,0.0,0.0,0.0,0.0,0.0,0.0,0.0,0.0,0.0,0.0,0.0,0.0,0.0,0.0,0.0,0.0,0.0,0.0,0.0,0.0,0.0,0.0,0.0,0.0,0.0,-1.6744,-1.7249,-1.7723,-1.8112,-1.6544,-1.5779,0.0,0.0,0.0,0.0,0.0,0.0,0.0,0.0,0.0,0.0,0.0,0.0,0.0,0.0,0.0,0.0,0.0,0.0,0.0,0.0,0.0,0.0,0.0,0.0,0.0,0.0,0.0,0.0,0.0,0.0,0.0,0.0,0.0,0.0,0.0,0.0,0.0,0.0,0.0,0.0,0.0,0.0,0.0,0.0,0.0,0.0,0.0,0.0,0.0,0.0,0.0,0.0,0.0,0.0,0.0,0.0,0.0,0.0,0.0,0.0,0.0,0.0,0.0,0.0,0.0,0.0,0.0,0.0,0.0,0.0,0.0,0.0,0.0,0.0,0.0,0.0,0.0,0.0,0.0,0.0,0.0,0.0,0.0,0.0,0.0,0.0,0.0,0.0,0.0,0.0,0.0,0.0,0.0,0.0,0.0,0.0,0.0,0.0,0.0,0.0,0.0,0.0,0.0,0.0,0.0,0.0,0.0,0.0,-1.6005,-1.7415,-1.749,-1.7516,-1.7515,-1.6793,-1.6055,0.0,0.0,0.0,0.0,0.0,0.0,0.0,0.0,0.0,0.0,0.0,0.0,0.0,0.0,0.0,0.0,0.0,0.0,0.0,0.0,0.0,0.0,0.0,0.0,0.0,0.0,0.0,0.0,0.0,0.0,0.0,0.0,0.0,0.0,0.0,0.0,0.0,0.0,0.0,0.0,0.0,0.0,0.0,0.0,0.0,0.0,0.0,0.0,0.0,0.0,0.0,0.0,0.0,0.0,0.0,0.0,0.0,0.0,0.0,0.0,0.0,0.0,0.0,0.0,0.0,0.0,0.0,0.0,0.0,0.0,0.0,0.0,0.0,0.0,0.0,0.0,0.0,0.0,0.0,0.0,0.0,0.0,0.0,0.0,0.0,0.0,0.0,0.0,0.0,0.0,0.0,0.0,0.0,0.0,0.0,0.0,0.0,0.0,0.0,0.0,0.0,0.0,0.0,0.0,0.0,0.0,0.0,0.0,0.0,-1.7448,-1.7498,-1.7706,-1.8129,-1.7042,-1.6282,0.0,0.0,0.0,0.0,0.0,0.0,0.0,0.0,0.0,0.0,0.0,0.0,0.0,0.0,0.0,0.0,0.0,0.0,0.0,0.0,0.0,0.0,0.0,0.0,0.0,0.0,0.0,0.0,0.0,0.0,0.0,0.0,0.0,0.0,0.0,0.0,0.0,0.0,0.0,0.0,0.0,0.0,0.0,0.0,0.0,0.0,0.0,0.0,0.0,0.0,0.0,0.0,0.0,0.0,0.0,0.0,0.0,0.0,0.0,0.0,0.0,0.0,0.0,0.0,0.0,0.0,0.0,0.0,0.0,0.0,0.0,0.0,0.0,0.0,0.0,0.0,0.0,0.0,0.0,0.0,0.0,0.0,0.0,0.0,0.0,0.0,0.0,0.0,0.0,0.0,0.0,0.0,0.0,0.0,0.0,0.0,0.0,0.0,0.0,0.0,0.0,0.0,0.0,0.0,0.0,0.0,0.0,0.0,0.0,-1.7789,-1.7623,-1.7698,-1.812,-1.7266,-1.6546,-1.6005,0.0,0.0,0.0,0.0,0.0,0.0,0.0,0.0,0.0,0.0,0.0,0.0,0.0,0.0,0.0,0.0,0.0,0.0,0.0,0.0,0.0,0.0,0.0,0.0,0.0,0.0,0.0,0.0,0.0,0.0,0.0,0.0,0.0,0.0,0.0,0.0,0.0,0.0,0.0,0.0,0.0,0.0,0.0,0.0,0.0,0.0,0.0,0.0,0.0,0.0,0.0,0.0,0.0,0.0,0.0,0.0,0.0,0.0,0.0,0.0,0.0,0.0,0.0,0.0,0.0,0.0,0.0,0.0,0.0,0.0,0.0,0.0,0.0,0.0,0.0,0.0,0.0,0.0,0.0,0.0,0.0,0.0,0.0,0.0,0.0,0.0,0.0,0.0,0.0,0.0,0.0,0.0,0.0,0.0,0.0,0.0,0.0,0.0,0.0,0.0,0.0,0.0,0.0,0.0,0.0,0.0,0.0,0.0,-1.8542,-1.7955,-1.7599,-1.7565,-1.7572,-1.687,0.0,0.0,0.0,0.0,0.0,0.0,0.0,0.0,0.0,0.0,0.0,0.0,0.0,0.0,0.0,0.0,0.0,0.0,0.0,0.0,0.0,0.0,0.0,0.0,0.0,0.0,0.0,0.0,0.0,0.0,0.0,0.0,0.0,0.0,0.0,0.0,0.0,0.0,0.0,0.0,0.0,0.0,0.0,0.0,0.0,0.0,0.0,0.0,0.0,0.0,0.0,0.0,0.0,0.0,0.0,0.0,0.0,0.0,0.0,0.0,0.0,0.0,0.0,0.0,0.0,0.0,0.0,0.0,0.0,0.0,0.0,0.0,0.0,0.0,0.0,0.0,0.0,0.0,0.0,0.0,0.0,0.0,0.0,0.0,0.0,0.0,0.0,0.0,0.0,0.0,0.0,0.0,0.0,0.0,0.0,0.0,0.0,0.0,0.0,0.0,0.0,0.0,0.0,0.0,0.0,0.0,0.0,0.0,0.0,-1.9229,-1.9129,-1.8808,-1.8269,-1.8278,-1.7641,0.0,0.0,0.0,0.0,0.0,0.0,0.0,0.0,0.0,0.0,0.0,0.0,0.0,0.0,0.0,0.0,0.0,0.0,0.0,0.0,0.0,0.0,0.0,0.0,0.0,0.0,0.0,0.0,0.0,0.0,0.0,0.0,0.0,0.0,0.0,0.0,0.0,0.0,0.0,0.0,0.0,0.0,0.0,0.0,0.0,0.0,0.0,0.0,0.0,0.0,0.0,0.0,0.0,0.0,0.0,0.0,0.0,0.0,0.0,0.0,0.0,0.0,0.0,0.0,0.0,0.0,0.0,0.0,0.0,0.0,0.0,0.0,0.0,0.0,0.0,0.0,0.0,0.0,0.0,0.0,0.0,0.0,0.0,0.0,0.0,0.0,0.0,0.0,0.0,0.0,0.0,0.0,0.0,0.0,0.0,0.0,0.0,0.0,0.0,0.0,0.0,0.0,0.0,0.0,0.0,0.0,0.0,0.0,-1.8617,-2.0042,-2.0381,-2.0183,-1.9497,-1.9217,-1.841,0.0,0.0,0.0,0.0,0.0,0.0,0.0,0.0,0.0,0.0,0.0,0.0,0.0,0.0,0.0,0.0,0.0,0.0,0.0,0.0,0.0,0.0,0.0,0.0,0.0,0.0,0.0,0.0,0.0,0.0,0.0,0.0,0.0,0.0,0.0,0.0,0.0,0.0,0.0,0.0,0.0,0.0,0.0,0.0,0.0,0.0,0.0,0.0,0.0,0.0,0.0,0.0,0.0,0.0,0.0,0.0,0.0,0.0,0.0,0.0,0.0,0.0,0.0,0.0,0.0,0.0,0.0,0.0,0.0,0.0,0.0,0.0,0.0,0.0,0.0,0.0,0.0,0.0,0.0,0.0,0.0,0.0,0.0,0.0,0.0,0.0,0.0,0.0,0.0,0.0,0.0,0.0,0.0,0.0,0.0,0.0,0.0,0.0,0.0,0.0,0.0,0.0,0.0,0.0,0.0,0.0,0.0,0.0,-1.9404,-2.0807,-2.1479,-2.1541,-2.0922,-2.0209,-1.9168,0.0,0.0,0.0,0.0,0.0,0.0,0.0,0.0,0.0,0.0,0.0,0.0,0.0,0.0,0.0,0.0,0.0,0.0,0.0,0.0,0.0,0.0,0.0,0.0,0.0,0.0,0.0,0.0,0.0,0.0,0.0,0.0,0.0,0.0,0.0,0.0,0.0,0.0,0.0,0.0,0.0,0.0,0.0,0.0,0.0,0.0,0.0,0.0,0.0,0.0,0.0,0.0,0.0,0.0,0.0,0.0,0.0,0.0,0.0,0.0,0.0,0.0,0.0,0.0,0.0,0.0,0.0,0.0,0.0,0.0,0.0,0.0,0.0,0.0,0.0,0.0,0.0,0.0,0.0,0.0,0.0,0.0,0.0,0.0,0.0,0.0,0.0,0.0,0.0,0.0,0.0,0.0,0.0,0.0,0.0,0.0,0.0,0.0,0.0,0.0,0.0,0.0,0.0,0.0,0.0,0.0,0.0,0.0,-2.0646,-2.1553,-2.1765,-2.1816,-2.1666,-2.1014,-2.0004,0.0,0.0,0.0,0.0,0.0,0.0,0.0,0.0,0.0,0.0,0.0,0.0,0.0,0.0,0.0,0.0,0.0,0.0,0.0,0.0,0.0,0.0,0.0,0.0,0.0,0.0,0.0,0.0,0.0,0.0,0.0,0.0,0.0,0.0,0.0,0.0,0.0,0.0,0.0,0.0,0.0,0.0,0.0,0.0,0.0,0.0,0.0,0.0,-2.0844,0.0,0.0,0.0,0.0,0.0,0.0,0.0,0.0,0.0,0.0,0.0,0.0,0.0,0.0,0.0,0.0,0.0,0.0,0.0,0.0,0.0,0.0,0.0,0.0,0.0,0.0,0.0,0.0,0.0,0.0,0.0,0.0,0.0,0.0,0.0,0.0,0.0,0.0,0.0,0.0,0.0,0.0,0.0,0.0,0.0,0.0,0.0,0.0,0.0,0.0,0.0,0.0,0.0,0.0,0.0,0.0,0.0,0.0,0.0,-2.1109,-2.1807,-2.192,-2.1978,-2.2023,-2.17,-2.0816,0.0,0.0,0.0,0.0,0.0,0.0,0.0,0.0,0.0,0.0,0.0,0.0,0.0,0.0,0.0,0.0,0.0,0.0,0.0,0.0,0.0,0.0,0.0,0.0,0.0,0.0,0.0,0.0,0.0,0.0,0.0,0.0,0.0,0.0,0.0,0.0,0.0,0.0,0.0,0.0,0.0,0.0,0.0,0.0,0.0,0.0,0.0,0.0,0.0,0.0,0.0,0.0,0.0,0.0,0.0,0.0,0.0,0.0,0.0,0.0,0.0,0.0,0.0,0.0,0.0,0.0,0.0,0.0,0.0,0.0,0.0,0.0,0.0,0.0,0.0,0.0,0.0,0.0,0.0,0.0,0.0,0.0,0.0,0.0,0.0,0.0,0.0,0.0,0.0,0.0,0.0,0.0,0.0,0.0,0.0,0.0,0.0,0.0,0.0,0.0,0.0,0.0,0.0,0.0,0.0,0.0,0.0,-1.9767,-2.1158,-2.1878,-2.1978,-2.2089,-2.2254,-2.2291,-2.1518,-1.9907,0.0,0.0,0.0,0.0,0.0,0.0,0.0,0.0,0.0,0.0,0.0,0.0,0.0,0.0,0.0,0.0,0.0,0.0,0.0,0.0,0.0,0.0,0.0,0.0,0.0,0.0,0.0,0.0,0.0,0.0,0.0,0.0,0.0,0.0,0.0,0.0,0.0,0.0,-1.7596,-1.9488,0.0,0.0,0.0,0.0,0.0,0.0,0.0,0.0,-2.1512,0.0,0.0,0.0,0.0,0.0,0.0,0.0,0.0,0.0,0.0,0.0,0.0,0.0,0.0,0.0,0.0,0.0,0.0,0.0,0.0,0.0,0.0,0.0,0.0,0.0,0.0,0.0,0.0,0.0,0.0,0.0,0.0,0.0,0.0,0.0,0.0,0.0,0.0,0.0,0.0,0.0,0.0,0.0,0.0,0.0,0.0,0.0,0.0,0.0,0.0,0.0,0.0,0.0,0.0,0.0,0.0,-1.8484,-2.0089,-2.1242,-2.1973,-2.2106,-2.2285,-2.2535,-2.257,-2.1694,-1.9756,0.0,0.0,0.0,0.0,0.0,0.0,0.0,0.0,0.0,0.0,0.0,0.0,0.0,0.0,0.0,0.0,0.0,0.0,0.0,0.0,0.0,0.0,0.0,0.0,0.0,0.0,0.0,0.0,0.0,0.0,0.0,0.0,0.0,0.0,0.0,0.0,0.0,0.0,0.0,-2.1389,-2.1708,0.0,0.0,0.0,0.0,0.0,0.0,0.0,0.0,-2.1783,0.0,0.0,0.0,0.0,0.0,0.0,0.0,0.0,0.0,0.0,0.0,0.0,0.0,0.0,0.0,0.0,0.0,0.0,0.0,0.0,0.0,0.0,0.0,0.0,0.0,0.0,0.0,0.0,0.0,0.0,0.0,0.0,0.0,0.0,0.0,0.0,0.0,0.0,0.0,0.0,0.0,0.0,0.0,0.0,0.0,0.0,0.0,0.0,0.0,0.0,0.0,0.0,0.0,0.0,0.0,-1.8264,-2.0418,-2.1998,-2.2847,-2.2603,-2.2794,-2.3441,-2.3093,-2.1901,0.0,0.0,0.0,0.0,0.0,0.0,0.0,0.0,0.0,0.0,0.0,0.0,0.0,0.0,0.0,0.0,0.0,0.0,0.0,0.0,0.0,0.0,0.0,0.0,0.0,0.0,0.0,0.0,0.0,0.0,0.0,0.0,0.0,0.0,0.0,0.0,0.0,0.0,0.0,0.0,-2.2047,-2.2276,-2.2903,0.0,0.0,0.0,0.0,0.0,0.0,-2.1835,-2.1727,0.0,0.0,0.0,0.0,0.0,0.0,0.0,0.0,0.0,0.0,0.0,0.0,0.0,0.0,0.0,0.0,0.0,0.0,0.0,0.0,0.0,0.0,0.0,0.0,0.0,0.0,0.0,0.0,0.0,0.0,0.0,0.0,0.0,0.0,0.0,0.0,0.0,0.0,0.0,0.0,0.0,0.0,0.0,0.0,0.0,0.0,0.0,0.0,0.0,0.0,0.0,0.0,0.0,0.0,0.0,-1.7935,-2.0704,-2.2685,-2.3732,-2.3145,-2.3284,-2.4309,-2.3594,-2.2109,0.0,0.0,0.0,0.0,0.0,0.0,0.0,0.0,0.0,0.0,0.0,0.0,0.0,0.0,0.0,0.0,0.0,0.0,0.0,0.0,0.0,0.0,0.0,0.0,0.0,0.0,0.0,0.0,0.0,0.0,0.0,0.0,0.0,0.0,0.0,0.0,0.0,0.0,0.0,0.0,0.0,-2.2744,-2.3322,-2.2892,0.0,0.0,0.0,0.0,-2.208,-2.2111,0.0,0.0,0.0,0.0,0.0,0.0,0.0,0.0,0.0,0.0,0.0,0.0,0.0,0.0,0.0,0.0,0.0,0.0,0.0,0.0,0.0,0.0,0.0,0.0,0.0,0.0,0.0,0.0,0.0,0.0,0.0,0.0,0.0,0.0,0.0,0.0,0.0,0.0,0.0,0.0,0.0,0.0,0.0,0.0,0.0,0.0,0.0,0.0,0.0,0.0,0.0,0.0,0.0,0.0,0.0,0.0,-1.8377,-2.0712,-2.2685,-2.4102,-2.3445,-2.355,-2.4528,-2.3841,-2.2117,0.0,0.0,0.0,0.0,0.0,0.0,0.0,0.0,0.0,0.0,0.0,0.0,0.0,0.0,0.0,0.0,0.0,0.0,0.0,0.0,0.0,0.0,0.0,0.0,0.0,0.0,0.0,0.0,0.0,0.0,0.0,0.0,0.0,0.0,0.0,0.0,0.0,0.0,0.0,0.0,0.0,-2.3211,-2.2783,-2.2597,-2.2526,0.0,0.0,-2.2933,-2.3686,-2.3808,0.0,0.0,0.0,0.0,0.0,0.0,0.0,0.0,0.0,0.0,0.0,0.0,0.0,0.0,0.0,0.0,0.0,0.0,0.0,0.0,0.0,0.0,0.0,0.0,0.0,0.0,0.0,0.0,0.0,0.0,0.0,0.0,0.0,0.0,0.0,0.0,0.0,0.0,0.0,0.0,0.0,0.0,0.0,0.0,0.0,0.0,0.0,0.0,0.0,0.0,0.0,0.0,0.0,0.0,0.0,-1.806,-1.8496,-2.1161,-2.3444,-2.5043,-2.3945,-2.402,-2.5445,-2.4302,-2.2445,0.0,0.0,0.0,0.0,0.0,0.0,0.0,0.0,0.0,0.0,0.0,0.0,0.0,0.0,0.0,0.0,0.0,0.0,0.0,0.0,0.0,0.0,0.0,0.0,0.0,0.0,0.0,0.0,0.0,0.0,0.0,0.0,0.0,0.0,0.0,0.0,0.0,0.0,0.0,0.0,0.0,0.0,-2.3258,-2.3342,0.0,0.0,0.0,-2.3562,-2.344,0.0,0.0,0.0,0.0,0.0,0.0,0.0,0.0,0.0,0.0,0.0,0.0,0.0,0.0,0.0,0.0,0.0,0.0,0.0,0.0,0.0,0.0,0.0,0.0,0.0,0.0,0.0,0.0,0.0,0.0,0.0,0.0,0.0,0.0,0.0,0.0,0.0,0.0,0.0,0.0,0.0,0.0,0.0,0.0,0.0,0.0,0.0,0.0,0.0,0.0,0.0,0.0,0.0,0.0,0.0,0.0,0.0,-1.8616,-2.1684,-2.4132,-2.5781,-2.4382,-2.4406,-2.609,-2.4646,0.0,0.0,0.0,0.0,0.0,0.0,0.0,0.0,0.0,0.0,0.0,0.0,0.0,0.0,0.0,0.0,0.0,0.0,0.0,0.0,0.0,0.0,0.0,0.0,0.0,0.0,0.0,-1.0591,0.0,0.0,0.0,0.0,0.0,0.0,0.0,0.0,0.0,0.0,0.0,0.0,0.0,0.0,-2.3131,-2.4048,-2.4322,-2.4569,0.0,0.0,-2.436,-2.3898,-2.4205,-2.4144,0.0,0.0,0.0,0.0,0.0,0.0,0.0,0.0,0.0,0.0,0.0,0.0,0.0,0.0,0.0,0.0,0.0,0.0,0.0,0.0,0.0,0.0,0.0,0.0,0.0,0.0,0.0,0.0,0.0,0.0,0.0,0.0,0.0,0.0,0.0,0.0,0.0,0.0,0.0,0.0,0.0,0.0,0.0,0.0,0.0,0.0,0.0,0.0,0.0,0.0,0.0,0.0,0.0,0.0,0.0,-1.9146,-2.2154,-2.453,-2.6063,-2.4616,-2.4543,-2.6113,-2.4637,-2.2718,0.0,0.0,0.0,0.0,0.0,0.0,0.0,0.0,0.0,0.0,0.0,0.0,0.0,0.0,0.0,0.0,0.0,0.0,0.0,0.0,0.0,0.0,0.0,0.0,0.0,0.0,0.0,0.0,0.0,0.0,0.0,0.0,0.0,0.0,0.0,0.0,0.0,0.0,0.0,0.0,0.0,-2.3389,-2.4976,-2.5265,-2.5861,0.0,0.0,-2.5552,-2.6246,-2.5753,-2.4765,-2.3165,0.0,0.0,0.0,0.0,0.0,0.0,0.0,0.0,0.0,0.0,0.0,0.0,0.0,0.0,0.0,0.0,0.0,0.0,0.0,0.0,0.0,0.0,0.0,0.0,0.0,0.0,0.0,0.0,0.0,0.0,0.0,0.0,0.0,0.0,0.0,0.0,0.0,0.0,0.0,0.0,0.0,0.0,0.0,0.0,0.0,0.0,0.0,0.0,0.0,0.0,0.0,0.0,0.0,-1.9029,-1.9146,-2.2209,-2.4565,-2.6095,-2.5108,-2.5072,-2.6168,-2.5117,-2.3668,0.0,0.0,0.0,0.0,0.0,0.0,0.0,0.0,0.0,0.0,0.0,0.0,0.0,0.0,0.0,0.0,0.0,0.0,0.0,0.0,0.0,0.0,0.0,0.0,0.0,0.0,0.0,0.0,-1.5273,-1.5763,-1.6401,0.0,0.0,0.0,0.0,0.0,0.0,0.0,0.0,0.0,0.0,-2.4005,-2.5139,-2.5784,0.0,0.0,-2.7383,-2.7093,-2.7364,-2.6311,-2.5257,-2.4601,-2.3705,0.0,0.0,0.0,0.0,0.0,0.0,0.0,0.0,0.0,0.0,0.0,0.0,0.0,0.0,0.0,0.0,0.0,0.0,0.0,0.0,0.0,0.0,0.0,0.0,0.0,0.0,0.0,0.0,0.0,0.0,0.0,0.0,0.0,0.0,0.0,0.0,0.0,0.0,0.0,0.0,0.0,0.0,0.0,0.0,0.0,0.0,0.0,0.0,0.0,0.0,0.0,0.0,-1.9214,-1.9467,-2.2328,-2.4574,-2.6158,-2.5416,-2.5398,-2.6149,-2.5425,-2.4275,0.0,0.0,0.0,0.0,0.0,0.0,0.0,0.0,0.0,0.0,0.0,0.0,0.0,0.0,0.0,0.0,0.0,0.0,0.0,0.0,0.0,0.0,0.0,0.0,0.0,0.0,0.0,0.0,-1.6186,-1.6513,-1.6503,0.0,0.0,0.0,0.0,0.0,0.0,0.0,0.0,0.0,0.0,-2.4841,-2.5918,-2.6813,-2.768,-2.8554,-2.8316,-2.801,-2.7971,-2.6803,-2.5757,-2.5247,0.0,0.0,0.0,0.0,0.0,0.0,0.0,0.0,0.0,0.0,0.0,0.0,0.0,0.0,0.0,0.0,0.0,0.0,0.0,0.0,0.0,0.0,0.0,0.0,0.0,0.0,0.0,0.0,0.0,0.0,-1.1047,0.0,0.0,0.0,0.0,0.0,0.0,0.0,0.0,0.0,0.0,0.0,0.0,0.0,0.0,0.0,0.0,0.0,0.0,0.0,0.0,0.0,0.0,-1.9485,-2.0282,-2.2609,-2.4592,-2.6122,-2.5425,-2.5434,-2.6177,-2.5434,-2.4284,-2.2725,0.0,0.0,0.0,0.0,0.0,0.0,0.0,0.0,0.0,0.0,0.0,0.0,0.0,0.0,0.0,0.0,0.0,0.0,0.0,0.0,0.0,0.0,0.0,0.0,0.0,0.0,-1.4113,-1.5493,-1.6522,0.0,0.0,0.0,0.0,0.0,0.0,0.0,0.0,0.0,0.0,-2.4764,-2.5899,-2.7582,-2.8584,-2.9373,-3.0256,-2.9125,-2.8134,-2.8142,-2.7412,-2.6326,0.0,0.0,0.0,0.0,0.0,0.0,0.0,0.0,0.0,0.0,0.0,0.0,0.0,0.0,0.0,0.0,0.0,0.0,0.0,0.0,0.0,0.0,0.0,0.0,0.0,0.0,0.0,-1.4365,-1.3354,0.0,0.0,0.0,0.0,0.0,0.0,0.0,0.0,0.0,0.0,0.0,-1.9132,-1.9639,0.0,0.0,0.0,0.0,0.0,0.0,0.0,0.0,0.0,0.0,0.0,0.0,-2.002,-2.0409,-2.3134,-2.5126,-2.6168,-2.6475,-2.6738,-2.6991,-2.6231,-2.4635,-2.2183,0.0,0.0,0.0,0.0,0.0,0.0,0.0,0.0,0.0,0.0,0.0,0.0,0.0,0.0,0.0,0.0,0.0,0.0,0.0,0.0,0.0,0.0,0.0,0.0,0.0,-1.6426,0.0,0.0,0.0,0.0,0.0,0.0,0.0,0.0,0.0,0.0,0.0,-2.3331,-2.4716,-2.563,-2.6774,-2.8467,-2.8994,-2.9516,0.0,0.0,0.0,0.0,0.0,0.0,0.0,0.0,0.0,0.0,0.0,0.0,0.0,0.0,-2.5869,-2.3623,-2.2959,-2.2666,-2.2393,0.0,0.0,0.0,0.0,0.0,0.0,0.0,0.0,0.0,0.0,0.0,0.0,0.0,0.0,0.0,0.0,-1.6194,0.0,0.0,0.0,0.0,0.0,0.0,0.0,0.0,-1.9982,-2.049,-2.0744,-2.1272,-2.1265,0.0,-2.0192,-1.9123,0.0,0.0,0.0,0.0,0.0,0.0,0.0,0.0,-2.0563,-2.1215,-2.3687,-2.5389,-2.6195,-2.7006,-2.7471,-2.7528,-2.6856,-2.5441,-2.3255,-2.2909,-2.1602,0.0,0.0,0.0,0.0,0.0,0.0,0.0,0.0,0.0,0.0,0.0,0.0,0.0,0.0,0.0,0.0,0.0,0.0,0.0,0.0,0.0,0.0,0.0,-1.828,0.0,0.0,0.0,0.0,0.0,0.0,0.0,0.0,0.0,-2.0792,-2.2937,-2.4822,-2.5649,-2.6757,-2.7913,-2.8983,0.0,0.0,0.0,0.0,0.0,0.0,0.0,-2.7915,-2.8187,-2.711,-2.6201,-2.6162,-2.6865,-2.7363,-2.7051,0.0,0.0,-2.5381,-2.4736,-2.4521,-2.4521,-2.4492,-2.4629,-2.5185,-2.5546,-2.5926,0.0,0.0,0.0,0.0,0.0,0.0,0.0,0.0,-1.8727,-1.87,0.0,-1.8666,0.0,0.0,0.0,0.0,0.0,-1.8723,0.0,0.0,-2.2298,-2.3117,-2.378,-2.3841,-2.385,-2.3777,-2.2337,-2.1604,-2.1459,-1.9223,0.0,0.0,0.0,0.0,0.0,0.0,-2.116,-2.2709,-2.4275,-2.5443,-2.6272,-2.7113,-2.7634,-2.7785,-2.7326,-2.6632,-2.5785,-2.4424,-2.3265,-2.2298,-1.9412,0.0,0.0,0.0,0.0,0.0,0.0,0.0,0.0,0.0,0.0,0.0,0.0,0.0,0.0,0.0,0.0,0.0,0.0,0.0,0.0,-1.904,0.0,0.0,0.0,0.0,0.0,0.0,0.0,0.0,0.0,0.0,-2.1974,-2.3841,-2.5678,-2.6582,0.0,0.0,0.0,0.0,-3.069,-3.0703,-3.0098,-2.9664,-2.9677,-2.9609,-2.9297,-2.8535,0.0,0.0,-2.7422,-2.7832,-2.8144,-2.7305,-2.793,-2.8379,-2.835,-2.7539,-2.6973,-2.6963,-2.6934,-2.7021,-2.7119,-2.7646,-2.8232,-2.0093,0.0,0.0,0.0,0.0,-1.9698,-2.0127,-2.089,-2.1086,-2.0746,-2.0121,-2.0514,0.0,0.0,0.0,0.0,0.0,0.0,-2.0816,-2.2374,-2.3127,-2.388,-2.4674,-2.5262,-2.5516,-2.5461,-2.4474,-2.3994,-2.3931,-2.2709,-2.068,-1.7989,0.0,0.0,0.0,0.0,-2.25,-2.3515,-2.5054,-2.6345,-2.7334,-2.8132,-2.8424,-2.8109,-2.807,-2.743,-2.6046,-2.5735,-2.4632,-2.2614,-2.1662,0.0,0.0,0.0,0.0,0.0,0.0,0.0,0.0,0.0,0.0,0.0,0.0,0.0,0.0,0.0,0.0,0.0,0.0,0.0,-1.8876,-2.0111,-2.0699,0.0,0.0,0.0,0.0,0.0,0.0,0.0,0.0,0.0,-2.5215,-2.5843,-2.6842,0.0,0.0,-2.954,-3.0108,-3.0483,-3.0705,-3.07,0.0,0.0,0.0,-3.0008,-2.9726,-3.0088,-3.0371,-3.0361,-2.9863,-3.0,-3.0078,-2.9795,-2.999,-3.0156,-3.0078,-2.8935,-2.8008,-2.7939,-2.793,-2.8144,-2.873,-2.9072,-2.9414,-2.2912,-2.229,-2.1187,-2.0952,-2.1344,-2.1335,-2.1812,-2.2598,-2.2779,-2.2498,-2.1953,-2.2262,-2.1637,-2.0335,-2.0147,0.0,0.0,0.0,-2.2102,-2.3623,-2.4055,-2.4706,-2.5479,-2.5971,-2.6188,-2.6168,-2.538,-2.5162,-2.5461,-2.4655,-2.3089,-2.0807,0.0,0.0,-2.0581,-2.1975,-2.3275,-2.4413,-2.5706,-2.6869,-2.7957,-2.8858,-2.9175,-2.8883,-2.9063,-2.8566,-2.7273,-2.7015,-2.6063,-2.419,-2.3478,-2.2266,0.0,0.0,0.0,0.0,0.0,0.0,0.0,0.0,0.0,0.0,0.0,-1.3904,-1.3437,0.0,0.0,0.0,-1.9092,-1.9935,-2.0945,-2.1976,0.0,0.0,0.0,0.0,0.0,0.0,0.0,-2.4448,-2.5708,-2.6798,-2.7661,-2.7805,-2.818,-2.9148,-2.964,-3.0096,-3.0569,0.0,-3.0741,-3.0729,-3.0834,-3.0921,-3.0905,-3.0463,-3.0301,-3.0801,-3.0918,-3.0918,-3.0918,-3.0918,-3.0918,-3.0918,-3.0918,-3.0918,-3.0918,-3.0029,-2.9326,-2.9326,-2.9336,-2.9512,-3.0019,-3.0127,-3.0283,-2.568,-2.5447,-2.2431,-2.1693,-2.2508,-2.257,-2.3129,-2.3976,-2.3985,-2.3994,-2.3976,-2.3994,-2.3614,-2.2953,-2.222,0.0,-2.2969,-2.2978,-2.3759,-2.5099,-2.5163,-2.5579,-2.6271,-2.636,-2.6387,-2.6385,-2.5579,-2.5579,-2.6286,-2.5511,-2.5134,-2.5129,-2.3719,-2.2993,-2.291,-2.2993,-2.3888,-2.5599,-2.6344,-2.727,-2.8315,-2.9302,-2.9851,-2.993,-3.0104,-2.9779,-2.8917,-2.8181,-2.7399,-2.6517,-2.4954,-2.3709,-2.2839,0.0,0.0,0.0,0.0,0.0,0.0,0.0,0.0,0.0,0.0,0.0,0.0,0.0,0.0,0.0,-2.3169,0.0,-2.411,-2.4167,0.0,0.0,0.0,-2.3201,-2.3229,-2.4682,-2.5717,-2.5718,0.0,0.0,-2.9389,0.0,-2.9586,-2.9518,-3.02,-3.0706,-3.0706,-3.0834,-3.0899,-3.0955,-3.1045,-3.1108,-3.1274,-3.1203,-3.1194,-3.124,-3.1103,-3.1201,-3.1211,-3.1201,-3.1143,-3.1201,-3.1123,-3.1152,-3.1133,-3.1143,-3.1094,-3.1094,-3.1025,-3.0976,-3.1006,-3.1084,-3.1201,-2.5997,-2.594,-2.5202,-2.5027,-2.5253,-2.5276,-2.5407,-2.5633,-2.5633,-2.5633,-2.5633,-2.5624,-2.5525,-2.5362,-2.5181,-2.519,-2.538,-2.5371,-2.5579,-2.5941,-2.6533,-2.6931,-2.7154,-2.7737,-2.8035,-2.7963,-2.7236,-2.7031,-2.7368,-2.6612,-2.6305,-2.641,-2.6078,-2.553,-2.4821,-2.553,-2.6412,-2.7434,-2.7696,-2.8344,-2.9385,-2.988,-3.0118,-3.0128,-3.018,-2.9799,-2.8936,-2.8706,-2.8236,-2.7408,-2.6364,-2.5418,-2.4618,-2.2554,0.0,0.0,0.0,0.0,0.0,0.0,0.0,0.0,0.0,-1.7776,-1.6507,0.0,-1.9973,0.0,-2.4024,-2.4764,-2.4168,-2.4694,0.0,0.0,-2.543,-2.5479,-2.6689,-2.6695,-2.7074,-2.8311,-2.8874,-2.9479,-3.0292,-3.0449,-3.0498,-3.0469,-3.0632,-3.0791,-3.0849,-3.1421,-3.1787,-3.1836,-3.2334,-3.2801,-3.2753,-3.2802,-3.2764,-3.2803,-3.2773,-3.2812,-3.2803,-3.2803,-3.2803,-3.2812,-3.2803,-3.2793,-3.2754,-3.2803,-3.2783,-3.2764,-3.2314,-3.1894,-3.1904,-3.2363,-3.2793,-2.7141,-2.7166,-2.7206,-2.7257,-2.7194,-2.6521,-2.6186,-2.6186,-2.6186,-2.6186,-2.6186,-2.6186,-2.6186,-2.6186,-2.6186,-2.6186,-2.6186,-2.6186,-2.6403,-2.6756,-2.7209,-2.7574,-2.7927,-2.8388,-2.8662,-2.8758,-2.8321,-2.8242,-2.8436,-2.8015,-2.7855,-2.7966,-2.8054,-2.783,-2.7288,-2.7018,-2.7168,-2.7735,-2.859,-2.9349,-2.9915,-3.0109,-3.0023,-2.964,-2.9994,-2.9789,-2.8936,-2.8897,-2.8532,-2.773,-2.6895,-2.6073,-2.5231,-2.3856,-2.2545,0.0,0.0,0.0,0.0,0.0,0.0,0.0,0.0,0.0,0.0,0.0,-2.2383,-2.3794,-2.5485,-2.6158,-2.5328,-2.6068,-2.6801,-2.7261,-2.6996,-2.7109,-2.7999,-2.8115,-2.8443,-2.9342,-2.9809,-3.0242,-3.069,-3.0762,-3.0792,-3.0792,-3.0792,-3.0948,-3.1377,-3.1826,-3.2217,-3.2617,-3.3088,-3.339,-3.3389,-3.3389,-3.3389,-3.3389,-3.3389,-3.3389,-3.3389,-3.3389,-3.3389,-3.3389,-3.3389,-3.3389,-3.3389,-3.3389,-3.3389,-3.3379,-3.3369,-3.3184,-3.2832,-3.3096,-3.3389,-2.8397,-2.8466,-2.8501,-2.8536,-2.8478,-2.7109,-2.6503,-2.6512,-2.6512,-2.6512,-2.6512,-2.6521,-2.6512,-2.6512,-2.6503,-2.6512,-2.6521,-2.6521,-2.6892,-2.7519,-2.7562,-2.7933,-2.8653,-2.8662,-2.881,-2.9048,-2.9058,-2.9141,-2.9334,-2.9334,-2.9346,-2.9395,-2.9542,-2.9588,-2.9438,-2.8016,-2.7396,-2.7683,-2.9173,-2.9937,-2.9956,-3.0009,-2.9679,-2.8987,-2.9746,-2.9837,-2.9112,-2.9059,-2.8737,-2.8035,-2.7235,-2.6458,-2.5723,-2.5474,-2.4631,0.0,-2.2945,0.0,0.0,0.0,0.0,0.0,0.0,0.0,0.0,-2.461,-2.56,-2.5495,-2.7032,-2.7749,-2.7117,-2.7786,-2.831,-2.8413,-2.8496,-2.8496,-2.8485,-2.922,-2.974,-2.9675,-3.0329,-3.0792,-3.0789,-3.0792,-3.0821,-3.0997,-3.1036,-3.1436,-3.2236,-3.2392,-3.2636,-3.3427,-3.3676,-3.3937,-3.3886,-3.3828,-3.3818,-3.3779,-3.3857,-3.3721,-3.3818,-3.3809,-3.3779,-3.3799,-3.3848,-3.3818,-3.373,-3.3789,-3.3769,-3.3877,-3.4365,-3.4512,-3.3828,-3.376,-3.373,-2.8327,-2.8353,-2.844,-2.8492,-2.85,-2.827,-2.816,-2.8126,-2.8126,-2.8135,-2.816,-2.8126,-2.8144,-2.8126,-2.8144,-2.8126,-2.8169,-2.8144,-2.8225,-2.8352,-2.8361,-2.8567,-2.891,-2.8929,-2.9021,-2.923,-2.923,-2.9355,-2.9551,-2.9551,-2.9626,-2.9778,-2.9812,-2.955,-2.8995,0.0,0.0,0.0,-2.927,-2.9141,-2.9126,-2.913,-2.9063,-2.893,-2.9755,0.0,-2.9951,-2.9956,-2.9889,-2.9711,-2.8918,0.0,0.0,0.0,0.0,0.0,0.0,0.0,0.0,0.0,0.0,0.0,-2.5595,-2.5175,-2.3965,-2.6044,-2.7196,-2.6537,-2.7438,-2.8304,-2.8848,-2.9046,-2.944,-3.0117,-3.0229,-3.0252,-3.0287,-3.0445,-3.0565,-3.0562,-3.0701,-3.0801,-3.0831,-3.0792,-3.1075,-3.1738,-3.1846,-3.2509,-3.3954,-3.3554,-3.3495,-3.4295,-3.4952,-3.5445,-3.5504,-3.5436,-3.534,-3.5508,-3.5498,-3.5459,-3.542,-3.5439,-3.5469,-3.543,-3.5498,-3.5459,-3.5459,-3.5508,-3.54,-3.5478,-3.5615,-3.5478,-3.4648,-3.5019,-3.5508,-2.8273,0.0,-2.838,-2.8441,0.0,-2.8527,-2.8562,-2.8562,-2.8596,-2.8587,-2.8587,-2.8587,-2.8587,-2.8587,-2.8587,-2.8678,-2.8801,-2.8791,-2.8863,-2.8929,-2.8952,-2.9012,-2.9141,-2.9141,-2.9261,-2.9446,-2.9446,-2.9533,-2.9734,-2.9761,-2.9786,-2.9907,-2.9907,-2.9706,-2.9377,-2.9773,-3.0038,-3.0093,-2.9727,-2.956,-2.9555,-2.9555,-2.9344,-2.8949,0.0,0.0,0.0,0.0,0.0,0.0,0.0,0.0,0.0,0.0,0.0,-2.6612,-2.6593,-2.64,-2.6033,-2.641,-2.686,-2.7263,-2.776,-2.7615,-2.6639,-2.7884,-2.8686,-2.8657,-2.9107,-2.9561,-2.9979,-3.0078,-3.0262,-3.0677,-3.0749,-3.0765,-3.0789,-3.0792,-3.0792,-3.0792,-3.0792,-3.0938,-3.1387,-3.1446,-3.1797,-3.2587,-3.2763,-3.3222,-3.4364,-3.4325,-3.4364,-3.5193,-3.5662,-3.5996,-3.6011,-3.6013,-3.6015,-3.6009,-3.6012,-3.6014,-3.6014,-3.6014,-3.6014,-3.6014,-3.6015,-3.6016,-3.6016,-3.6016,-3.6016,-3.6016,-3.6016,-3.5898,-3.543,-3.5703,-3.6016,-2.8237,-2.8282,-2.8291,-2.8318,-2.8389,-2.8458,-2.8492,-2.8527,0.0,0.0,0.0,-2.8587,-2.8637,-2.8653,-2.8662,-2.8815,-2.9048,-2.9058,-2.9141,-2.9293,-2.9293,-2.9314,-2.9346,-2.9346,-2.9455,-2.9644,-2.9644,-2.9743,-2.9898,-2.9907,-2.9907,-2.9907,-2.9907,-2.9914,-2.9914,-3.0047,-3.0093,-3.0083,-3.0023,-2.9956,-2.9965,-2.9965,-2.9621,-2.8911,-2.9746,-2.9874,-2.9193,-2.9834,-2.9939,-2.9308,-2.9267,-2.8998,-2.8395,-2.8367,-2.8396,-2.844,-2.8446,-2.8433,-2.8433,-2.8458,-2.8472,-2.8492,-2.9195,-2.959,-2.9444,-2.956,-2.9901,-3.0555,-3.0672,-3.072,-3.0714,-3.0765,-3.0792,-3.0792,-3.0792,-3.0792,-3.0792,-3.0792,-3.086,-3.0987,-3.1075,-3.1358,-3.2207,-3.2334,-3.2656,-3.3407,-3.3632,-3.3934,-3.4715,-3.4959,-3.5164,-3.5789,-3.5971,-3.601,-3.601,-3.6013,-3.601,-3.6013,-3.6013,-3.6009,-3.6009,-3.6009,-3.6009,-3.6009,-3.6012,-3.6016,-3.6016,-3.6016,-3.6015,-3.6016,-3.6016,-3.6016,-3.6016,-3.6006,-3.6016,-2.8209,-2.82,-2.8282,-2.83,-2.8327,-2.844,-2.8527,-2.8596,-2.8587,-2.8587,-2.8587,-2.8587,-2.8728,-2.8934,-2.8934,-2.9071,-2.9261,-2.9261,-2.9282,0.0,-2.9293,-2.9395,-2.9542,-2.9561,-2.9662,-2.9855,-2.9846,-2.9872,-2.9898,-2.9907,-2.9907,-2.9907,-2.9907,-2.993,-2.9972,-3.0072,-3.0098,-3.0085,-2.9441,-2.9073,-2.9073,-2.9082,-2.9025,-2.893,-2.9746,-3.0175,-3.0103,-3.0219,-3.0287,-3.0278,-3.0275,-3.0247,-3.0144,-3.0111,-3.0139,-3.0152,-3.0143,-3.0142,-3.0139,-3.0261,-3.0308,-3.0325,-3.0505,-3.0544,-3.0417,-3.0466,-3.057,-3.0692,-3.0745,-3.0796,-3.0787,-3.0789,-3.0792,-3.0801,-3.0801,-3.0801,-3.0841,-3.0889,-3.1172,-3.1826,-3.1924,-3.2246,-3.3046,-3.3222,-3.3534,-3.4276,-3.451,-3.4822,-3.5506,-3.5828,-3.5864,-3.5981,-3.601,-3.601,-3.601,-3.601,-3.601,-3.601,-3.6013,-3.6016,-3.6006,-3.6006,-3.6006,-3.6016,-3.6009,-3.6013,-3.601,-3.6011,-3.6013,-3.6016,-3.6016,-3.6016,-3.6016,-3.6016,-3.6016,-2.8209,-2.8255,-2.83,-2.8327,-2.8353,-2.8449,-2.8527,-2.8612,-2.8752,-2.8718,-2.8612,-2.8743,-2.8878,-2.9012,-2.9128,-2.9272,-2.9456,-2.9474,-2.9532,-2.9626,-2.9626,-2.969,-2.9761,-2.9761,-2.9803,-2.9898,-2.9907,-2.9907,-2.9907,-2.9907,-2.9907,-2.9907,-2.9907,-2.994,-2.9997,-3.0022,-3.0068,-3.0099,-2.9765,-2.9612,-2.9621,-2.9612,-2.961,-2.9669,-3.0062,-3.0314,-3.04,-3.041,-3.0443,-3.0486,-3.0482,-3.051,-3.0561,-3.0548,-3.0593,-3.0649,-3.0655,-3.0659,-3.0656,-3.0716,-3.0757,-3.0762,-3.0781,-3.0791,-3.0703,-3.0736,-3.0762,-3.0752,-3.0794,-3.0792,-3.0792,-3.0792,-3.0792,-3.0792,-3.1202,-3.1494,-3.1553,-3.1973,-3.2363,-3.2724,-3.2812,-3.3134,-3.3993,-3.411,-3.4432,-3.5213,-3.5398,-3.5593,-3.5945,-3.601,-3.601,-3.601,-3.601,-3.601,-3.601,-3.601,-3.601,-3.601,-3.601,-3.601,-3.601,-3.601,-3.601,-3.601,-3.601,-3.6013,-3.6011,-3.6011,-3.6015,-3.6007,-3.6012,-3.6013,-3.6014,-3.6014,-3.6015,-2.8237,-2.8273,-2.8273,-2.8336,-2.8415,-2.8484,-2.8563,-2.871,-2.8905,-2.8902,-2.8805,-2.8993,-2.9106,-2.9163,-2.9293,-2.9485,-2.9654,-2.9672,-2.9751,-2.9898,-2.9907,-2.9907,-2.9907,-2.9907,-2.9907,-2.9907,-2.9907,-2.9907,-2.9907,-2.9907,-2.9907,-2.9907,-2.9907,-2.993,-2.9997,-3.0013,-3.0044,-3.0109,-3.018,-3.0217,-3.0204,-3.0214,-3.0244,-3.029,-3.0302,-3.0355,-3.0516,-3.0519,-3.0535,-3.0555,-3.0568,-3.0585,-3.0646,-3.0658,-3.0698,-3.0774,-3.0789,-3.0798,-3.0792,-3.0794,-3.0796,-3.0796,-3.0794,-3.0798,-3.0794,-3.0798,-3.0796,-3.0789,-3.0789,-3.0792,-3.0792,-3.0792,-3.087,-3.1094,-3.167,-3.2139,-3.2422,-3.3007,-3.3495,-3.3622,-3.369,-3.4012,-3.4744,-3.5008,-3.5252,-3.5789,-3.601,-3.601,-3.601,-3.601,-3.601,-3.601,-3.601,-3.601,-3.601,-3.601,-3.601,-3.601,-3.601,-3.601,-3.601,-3.601,-3.601,-3.601,-3.601,-3.6013,-3.601,-3.6013,-3.6013,-3.6016,-3.6013,-3.6007,-3.6007,-3.6007,-3.601,-2.8182,-2.8209,-2.8218,-2.8291,-2.8406,-2.8475,-2.8686,-2.8941,-2.9011,-2.9098,-2.923,-2.9266,-2.9375,-2.9523,-2.9561,-2.9671,-2.9865,-2.9872,-2.9872,-2.9907,-2.9907,-2.9907,-2.9907,-2.9907,-2.9907,-2.9907,-2.9907,-2.9907,-2.9907,-2.9907,-2.9907,-2.9907,-2.9907,-2.9949,-2.9997,-3.0063,-3.0098,-3.009,-3.0235,-3.0267,-3.0218,-3.0214,-3.0224,-3.0302,-3.0302,-3.0398,-3.0588,-3.0581,-3.0639,-3.0755,-3.076,-3.0764,-3.0779,-3.0769,-3.0784,-3.0789,-3.0794,-3.0798,-3.0792,-3.0794,-3.0791,-3.0791,-3.0788,-3.079,-3.0798,-3.081,-3.0804,-3.084,-3.0826,-3.0867,-3.0801,-3.0867,-3.1258,-3.1914,-3.2148,-3.2402,-3.3144,-3.3339,-3.37,-3.452,-3.4588,-3.4901,-3.5603,-3.5789,-3.5864,-3.5961,-3.601,-3.601,-3.601,-3.601,-3.601,-3.601,-3.601,-3.601,-3.601,-3.601,-3.601,-3.601,-3.601,-3.601,-3.601,-3.601,-3.601,-3.601,-3.601,-3.601,-3.601,-3.601,-3.601,-3.601,-3.6013,-3.6016,-3.6013,-3.6016,-3.6011,-2.8209,-2.8255,-2.8318,-2.8493,-2.8734,-2.8791,-2.8964,-2.9177,-2.9295,-2.9401,-2.9498,-2.9603,-2.9635,-2.9608,-2.9707,-2.9812,-2.9907,-2.9907,-2.9907,-2.9907,-2.9907,-2.9907,-2.9907,-2.9907,-2.9907,-2.9907,-2.9907,-2.9907,-2.9907,-2.9907,-2.9907,-2.9907,-2.9907,-2.9956,-3.0059,-3.0089,-3.0142,-3.027,-3.0331,-3.0365,-3.0386,-3.0377,-3.0402,-3.0472,-3.048,-3.0542,-3.0704,-3.0716,-3.0749,-3.0789,-3.0789,-3.0789,-3.0789,-3.0789,-3.0789,-3.0789,-3.0789,-3.0794,-3.0789,-3.0793,-3.0798,-3.0788,-3.0798,-3.0793,-3.0823,-3.1256,-3.158,-3.1564,-3.1571,-3.1568,-3.1617,-3.2017,-3.2476,-3.2872,-3.3304,-3.3773,-3.411,-3.4622,-3.511,-3.5435,-3.548,-3.5568,-3.5913,-3.601,-3.601,-3.601,-3.601,-3.601,-3.601,-3.601,-3.601,-3.601,-3.601,-3.601,-3.601,-3.601,-3.601,-3.601,-3.601,-3.601,-3.601,-3.601,-3.601,-3.601,-3.601,-3.601,-3.601,-3.601,-3.601,-3.601,-3.601,-3.601,-3.601,-3.601,-3.6016,-2.8237,-2.8309,-2.8405,-2.8667,-2.9007,-2.9062,-2.9206,-2.9391,-2.9531,-2.9623,-2.9692,-2.9832,-2.9822,-2.9726,-2.9839,-2.9907,-2.9907,-2.9907,-2.9907,-2.9907,-2.9907,-2.9907,-2.9907,-2.9907,-2.9907,-2.9907,-2.9907,-2.9907,-2.9907,-2.9907,-2.9914,-2.9946,-2.9953,-3.0015,-3.0138,-3.0166,-3.0238,-3.0354,-3.0419,-3.0472,-3.0529,-3.0564,-3.0576,-3.0613,-3.0613,-3.0656,-3.0789,-3.0789,-3.0789,-3.0789,-3.0789,-3.0789,-3.0789,-3.0789,-3.0789,-3.0789,-3.0789,-3.0789,-3.0789,-3.0789,-3.0789,-3.0809,-3.0989,-3.1154,-3.13,-3.1948,-3.2425,-3.2474,-3.2654,-3.276,-3.2553,-3.3027,-3.347,-3.3731,-3.4368,-3.4762,-3.5058,-3.5669,-3.5948,-3.6014,-3.5932,-3.6007,-3.6014,-3.6014,-3.6014,-3.6014,-3.6014,-3.6014,-3.6014,-3.6014,-3.6014,-3.6017,-3.6014,-3.6007,-3.601,-3.601,-3.601,-3.601,-3.601,-3.601,-3.601,-3.601,-3.601,-3.601,-3.601,-3.601,-3.601,-3.601,-3.601,-3.601,-3.601,-3.601,-3.601,-3.601,-3.601,-2.8191,-2.8255,-2.8565,-2.8804,-2.9006,-2.9209,-2.9412,-2.9588,-2.9617,-2.9707,-2.9869,-2.9879,-2.9907,-2.9881,-2.9898,-2.9907,-2.9907,-2.9907,-2.9907,-2.9907,-2.9907,-2.9907,-2.9907,-2.9907,-2.9907,-2.9907,-2.9907,-2.9914,-2.9924,-2.9914,-2.9962,-3.0085,-3.0094,-3.0152,-3.027,-3.0299,-3.0295,-3.0333,-3.0492,-3.0592,-3.0599,-3.072,-3.0709,-3.0626,-3.061,-3.0681,-3.0784,-3.0789,-3.0789,-3.0789,-3.0789,-3.0789,-3.0789,-3.0789,-3.0789,-3.0789,-3.0789,-3.0789,-3.0789,-3.0789,-3.0828,-3.0925,-3.1534,-3.2031,-3.2104,-3.284,-3.3322,-3.3351,-3.3994,-3.4131,-3.3559,-3.3612,-3.3924,-3.4542,-3.4679,-3.5112,-3.5824,-3.5882,-3.5995,-3.6009,-3.6009,-3.6009,-3.6009,-3.6015,-3.6009,-3.6009,-3.6009,-3.6009,-3.6009,-3.6009,-3.6009,-3.6009,-3.6009,-3.6013,-3.6007,-3.6007,-3.6007,-3.6007,-3.6017,-3.601,-3.601,-3.601,-3.601,-3.601,-3.601,-3.601,-3.601,-3.601,-3.601,-3.601,-3.601,-3.601,-3.601,-3.601,-3.601,-2.8291,-2.8484,-2.8761,-2.9051,-2.9314,-2.9455,-2.9608,-2.9779,-2.9797,-2.982,-2.9898,-2.9907,-2.9907,-2.9907,-2.9907,-2.9907,-2.9907,-2.9907,-2.9907,-2.9907,-2.9907,-2.9907,-2.9907,-2.9907,-2.9907,-2.9907,-2.9907,-2.9937,-3.0025,-3.0109,-3.0175,-3.0226,-3.0226,-3.026,-3.0348,-3.0364,-3.0399,-3.0501,-3.061,-3.0664,-3.0665,-3.0759,-3.0779,-3.0724,-3.0724,-3.0754,-3.0789,-3.0789,-3.0789,-3.0789,-3.0789,-3.0789,-3.0789,-3.0789,-3.0789,-3.0789,-3.0789,-3.0789,-3.0789,-3.0789,-3.1067,-3.1602,-3.1904,-3.2382,-3.2932,-3.3668,-3.4165,-3.4301,-3.4944,-3.5222,-3.512,-3.4998,-3.511,-3.5368,-3.547,-3.5577,-3.5884,-3.5962,-3.5948,-3.5991,-3.6015,-3.6015,-3.6005,-3.6015,-3.6015,-3.6015,-3.6015,-3.6005,-3.6015,-3.6015,-3.6005,-3.6015,-3.6015,-3.6015,-3.6013,-3.6017,-3.6017,-3.6007,-3.6007,-3.6011,-3.6014,-3.6007,-3.601,-3.6007,-3.601,-3.601,-3.601,-3.601,-3.601,-3.601,-3.601,-3.601,-3.601,-3.601,-3.601,-2.8484,-2.8776,-2.9034,-2.9303,-2.956,-2.9663,-2.9769,-2.9898,-2.9907,-2.9907,-2.9907,-2.9907,-2.9907,-2.9907,-2.9907,-2.9907,-2.9907,-2.9907,-2.9907,-2.9907,-2.9907,-2.9907,-2.9907,-2.9907,-2.9907,-2.9924,-2.9937,-3.0049,-3.0152,-3.0244,-3.0296,-3.0333,-3.0333,-3.0381,-3.0439,-3.0479,-3.053,-3.0594,-3.0636,-3.0681,-3.0704,-3.0753,-3.0794,-3.0789,-3.0789,-3.0789,-3.0789,-3.0789,-3.0789,-3.0789,-3.0789,-3.0789,-3.0789,-3.0789,-3.0789,-3.0789,-3.0789,-3.0789,-3.0789,-3.0789,-3.1184,-3.2026,-3.2392,-3.2879,-3.3725,-3.4549,-3.4944,-3.5158,-3.5489,-3.5889,-3.5889,-3.586,-3.5894,-3.589,-3.5895,-3.5914,-3.5943,-3.5929,-3.5919,-3.5953,-3.5963,-3.5973,-3.5973,-3.5953,-3.5963,-3.5973,-3.5973,-3.5963,-3.5973,-3.5963,-3.5967,-3.5973,-3.5963,-3.5963,-3.5963,-3.5953,-3.5995,-3.5995,-3.5999,-3.6003,-3.6007,-3.6001,-3.6014,-3.6014,-3.6024,-3.6017,-3.6017,-3.603,-3.6049,-3.6088,-3.601,-3.601,-3.601,-3.601,-3.603,-2.8718,-2.908,-2.93,-2.9492,-2.9673,-2.9797,-2.9898,-2.9898,-2.9907,-2.9907,-2.9907,-2.9907,-2.9907,-2.9907,-2.9907,-2.9907,-2.9907,-2.9907,-2.9907,-2.9907,-2.9907,-2.9907,-2.9907,-2.9907,-2.9905,-2.993,-3.0055,-3.0175,-3.0283,-3.0318,-3.0357,-3.0396,-3.0417,-3.0479,-3.0579,-3.0588,-3.0588,-3.0616,-3.0613,-3.0644,-3.07,-3.0704,-3.0734,-3.0784,-3.0794,-3.0794,-3.0789,-3.0789,-3.0789,-3.0789,-3.0789,-3.0789,-3.0789,-3.0789,-3.0789,-3.0789,-3.0789,-3.0789,-3.0789,-3.0799,-3.1174,-3.2031,-3.2864,-3.36,-3.4383,-3.5246,-3.5752,-3.5752,-3.5821,-3.5889,-3.5889,-3.5889,-3.5889,-3.5889,-3.5894,-3.5904,-3.5914,-3.5899,-3.5889,-3.5894,-3.5904,-3.5889,-3.5889,-3.5904,-3.5904,-3.5914,-3.5914,-3.5914,-3.5904,-3.5904,-3.5894,-3.5894,-3.5904,-3.5919,-3.5904,-3.5894,-3.5943,-3.5987,-3.5981,-3.5986,-3.5986,-3.599,-3.6013,-3.6033,-3.6325,-3.6345,-3.6466,-3.6498,-3.6619,-3.6619,-3.6378,-3.631,-3.631,-3.6359,-3.6127,-2.8854,-2.9112,-2.9372,-2.9502,-2.9579,-2.9763,-2.9823,-2.9842,-2.9891,-2.9907,-2.9907,-2.9907,-2.9907,-2.9907,-2.9907,-2.9907,-2.9907,-2.9907,-2.9907,-2.9907,-2.9907,-2.9907,-2.9907,-2.9907,-2.9928,-3.0045,-3.0228,-3.0326,-3.0371,-3.0457,-3.0519,-3.054,-3.0549,-3.0559,-3.0598,-3.0607,-3.0607,-3.0617,-3.0614,-3.062,-3.0624,-3.0681,-3.0701,-3.0733,-3.0733,-3.0724,-3.0733,-3.0784,-3.0789,-3.0789,-3.0789,-3.0789,-3.0789,-3.0789,-3.0789,-3.0789,-3.0789,-3.0789,-3.0789,-3.0818,-3.1174,-3.2031,-3.2898,-3.3736,-3.4549,-3.5373,-3.585,-3.5879,-3.5889,-3.5889,-3.5889,-3.5889,-3.5889,-3.5889,-3.5889,-3.5889,-3.5889,-3.5889,-3.5889,-3.5889,-3.5889,-3.5889,-3.5889,-3.5889,-3.5889,-3.5889,-3.5889,-3.5889,-3.5889,-3.5889,-3.5889,-3.5889,-3.5889,-3.5889,-3.5889,-3.5889,-3.5919,-3.5934,-3.5948,-3.5953,-3.5953,-3.5967,-3.5991,-3.6089,-3.6391,-3.6659,-3.6799,-3.6975,-3.7086,-3.749,-3.7626,-3.7396,-3.7015,-3.6755,-3.6554,-2.9035,-2.9231,-2.9422,-2.9502,-2.9521,-2.9709,-2.9789,-2.9808,-2.985,-2.9874,-2.9874,-2.9874,-2.9874,-2.9874,-2.9881,-2.9907,-2.9907,-2.9907,-2.9907,-2.9907,-2.9907,-2.9917,-2.9987,-3.0019,-3.0114,-3.0224,-3.035,-3.0418,-3.0479,-3.0559,-3.0607,-3.0607,-3.0607,-3.0607,-3.0607,-3.0607,-3.0607,-3.0617,-3.0606,-3.0604,-3.061,-3.0634,-3.0676,-3.07,-3.07,-3.07,-3.0697,-3.0755,-3.0778,-3.0764,-3.0784,-3.0789,-3.0789,-3.0789,-3.0789,-3.0789,-3.0789,-3.0789,-3.0789,-3.0799,-3.1184,-3.2002,-3.2611,-3.3434,-3.4364,-3.5187,-3.547,-3.583,-3.5889,-3.5889,-3.5889,-3.5889,-3.5889,-3.5889,-3.5889,-3.5889,-3.5889,-3.5889,-3.5889,-3.5889,-3.5889,-3.5889,-3.5889,-3.5889,-3.5889,-3.5889,-3.5889,-3.5889,-3.5889,-3.5889,-3.5889,-3.5889,-3.5889,-3.5889,-3.5889,-3.5889,-3.5889,-3.5894,-3.5899,-3.5909,-3.5914,-3.5934,-3.5948,-3.5978,-3.6192,-3.6596,-3.6796,-3.7249,-3.7517,-3.8102,-3.8512,-3.8179,-3.7665,-3.7279,-3.7019,-2.9197,-2.9398,-2.9462,-2.9482,-2.9521,-2.9719,-2.9781,-2.9781,-2.9808,-2.9808,-2.9798,-2.9808,-2.9798,-2.9806,-2.9857,-2.9881,-2.9907,-2.993,-2.993,-2.9946,-2.9937,-3.0,-3.0092,-3.0213,-3.0304,-3.0364,-3.0407,-3.048,-3.0579,-3.0588,-3.0607,-3.0607,-3.0607,-3.0607,-3.0607,-3.0607,-3.0607,-3.0607,-3.0607,-3.0615,-3.0603,-3.0611,-3.0628,-3.0686,-3.0686,-3.0686,-3.0686,-3.0693,-3.0711,-3.0697,-3.0749,-3.0779,-3.0794,-3.0789,-3.0774,-3.0789,-3.0789,-3.0789,-3.0789,-3.0774,-3.1081,-3.1788,-3.2129,-3.2771,-3.414,-3.4613,-3.51,-3.5791,-3.5889,-3.5889,-3.5889,-3.5889,-3.5889,-3.5889,-3.5889,-3.5889,-3.5889,-3.5889,-3.5889,-3.5889,-3.5889,-3.5889,-3.5889,-3.5889,-3.5889,-3.5889,-3.5889,-3.5889,-3.5889,-3.5889,-3.5889,-3.5889,-3.5889,-3.5889,-3.5889,-3.5889,-3.5889,-3.5889,-3.5894,-3.5894,-3.5894,-3.5904,-3.5919,-3.5948,-3.6133,-3.6509,-3.6952,-3.7435,-3.7874,-3.8303,-3.8493,-3.8482,-3.8126,-3.7545,-3.7123,-2.908,-2.9407,-2.9418,-2.9429,-2.945,-2.9645,-2.9719,-2.9738,-2.9763,-2.9771,-2.9781,-2.9746,-2.9746,-2.9798,-2.9825,-2.9857,-2.9914,-2.9994,-3.004,-3.0079,-3.0161,-3.0147,-3.0147,-3.0292,-3.0392,-3.0429,-3.049,-3.0579,-3.0607,-3.0607,-3.0607,-3.0607,-3.0607,-3.0607,-3.0607,-3.0607,-3.0607,-3.0607,-3.0607,-3.0607,-3.0616,-3.0606,-3.0615,-3.0634,-3.0633,-3.0633,-3.0643,-3.0639,-3.0651,-3.0704,-3.0711,-3.074,-3.0728,-3.0734,-3.0749,-3.0794,-3.0789,-3.0789,-3.0794,-3.0754,-3.0891,-3.1149,-3.166,-3.2517,-3.36,-3.4262,-3.4963,-3.5675,-3.5889,-3.586,-3.5869,-3.5889,-3.5889,-3.5889,-3.5889,-3.5889,-3.5889,-3.5889,-3.5889,-3.5889,-3.5889,-3.5889,-3.5889,-3.5889,-3.5889,-3.5889,-3.5889,-3.5889,-3.5889,-3.5889,-3.5889,-3.5889,-3.5889,-3.5889,-3.5889,-3.5889,-3.5889,-3.5889,-3.5889,-3.5889,-3.5889,-3.5894,-3.5894,-3.5904,-3.6284,-3.666,-3.72,-3.7716,-3.8121,-3.839,-3.8492,-3.8454,-3.782,-3.7239,-3.691,-2.9102,-2.9398,-2.9388,-2.9388,-2.9418,-2.9578,-2.9617,-2.9626,-2.9664,-2.9664,-2.9673,-2.9617,-2.9673,-2.9746,-2.9764,-2.9841,-2.9978,-3.0034,-3.0113,-3.0189,-3.0272,-3.0299,-3.0289,-3.0413,-3.0492,-3.05,-3.0559,-3.0607,-3.0607,-3.0607,-3.0607,-3.0607,-3.0607,-3.0607,-3.0607,-3.0607,-3.0607,-3.0607,-3.0607,-3.0607,-3.0607,-3.0607,-3.0607,-3.0607,-3.0607,-3.0607,-3.0617,-3.0615,-3.0632,-3.0684,-3.0705,-3.0704,-3.0698,-3.0704,-3.072,-3.0767,-3.0767,-3.0767,-3.0757,-3.072,-3.072,-3.081,-3.1236,-3.1874,-3.2651,-3.3295,-3.3876,-3.4606,-3.5104,-3.5318,-3.5424,-3.5667,-3.5872,-3.5891,-3.5891,-3.5887,-3.5889,-3.5889,-3.5889,-3.5889,-3.5889,-3.5889,-3.5889,-3.5889,-3.5889,-3.5889,-3.5889,-3.5889,-3.5889,-3.5889,-3.5883,-3.5874,-3.5883,-3.5878,-3.5862,-3.5862,-3.5817,-3.5827,-3.5817,-3.5833,-3.5878,-3.5874,-3.5889,-3.5996,-3.6405,-3.6795,-3.7194,-3.7594,-3.7935,-3.8164,-3.8365,-3.8302,-3.7752,-3.7035,-3.6703,-2.928,-2.9388,-2.9388,-2.9388,-2.9409,-2.9462,-2.9531,-2.9502,-2.9521,-2.9521,-2.9512,-2.9483,-2.9569,-2.9683,-2.9719,-2.9859,-3.0079,-3.0094,-3.017,-3.026,-3.0343,-3.0357,-3.0404,-3.052,-3.055,-3.055,-3.0588,-3.0607,-3.0607,-3.0607,-3.0607,-3.0607,-3.0607,-3.0607,-3.0607,-3.0607,-3.0607,-3.0607,-3.0607,-3.0607,-3.0607,-3.0607,-3.0607,-3.0607,-3.0607,-3.0607,-3.0607,-3.0607,-3.0617,-3.0665,-3.0694,-3.0686,-3.0693,-3.069,-3.069,-3.0697,-3.0714,-3.0714,-3.0697,-3.0688,-3.069,-3.0726,-3.0717,-3.1088,-3.1912,-3.2302,-3.2662,-3.3553,-3.4103,-3.4701,-3.5042,-3.5512,-3.5803,-3.5862,-3.5872,-3.5882,-3.5881,-3.5893,-3.5883,-3.5889,-3.5889,-3.5889,-3.5889,-3.5889,-3.5889,-3.5889,-3.5889,-3.5889,-3.5889,-3.5889,-3.5868,-3.584,-3.585,-3.5866,-3.585,-3.5833,-3.5772,-3.5731,-3.5704,-3.5731,-3.5833,-3.5852,-3.5883,-3.6015,-3.623,-3.6473,-3.6775,-3.7185,-3.7496,-3.7555,-3.7482,-3.78,-3.7922,-3.7045,-3.6489,-2.9655,-2.9388,-2.9388,-2.9388,-2.9409,-2.9481,-2.9502,-2.9492,-2.9502,-2.9502,-2.9482,-2.945,-2.949,-2.9569,-2.9709,-2.9872,-3.0049,-3.0211,-3.034,-3.0364,-3.0325,-3.0353,-3.0421,-3.054,-3.053,-3.049,-3.054,-3.0598,-3.0607,-3.0607,-3.0607,-3.0607,-3.0607,-3.0607,-3.0607,-3.0607,-3.0607,-3.0607,-3.0607,-3.0607,-3.0607,-3.0607,-3.0607,-3.0607,-3.0607,-3.0607,-3.0607,-3.0607,-3.0607,-3.0617,-3.0615,-3.0632,-3.0637,-3.0637,-3.0653,-3.0676,-3.07,-3.07,-3.0683,-3.0651,-3.0644,-3.0683,-3.0688,-3.0995,-3.1861,-3.1951,-3.2351,-3.3162,-3.3996,-3.4586,-3.5271,-3.563,-3.5776,-3.5768,-3.5815,-3.5815,-3.583,-3.5852,-3.5879,-3.5887,-3.5883,-3.5889,-3.5889,-3.5889,-3.5889,-3.5889,-3.5889,-3.5889,-3.5889,-3.5889,-3.584,-3.5794,-3.5764,-3.5766,-3.5742,-3.5724,-3.5679,-3.564,-3.5621,-3.5641,-3.5739,-3.581,-3.5833,-3.5862,-3.5928,-3.6181,-3.6454,-3.6347,-3.6581,-3.6571,-3.6629,-3.682,-3.6864,-3.6391,-3.6348,-2.9526,-2.9386,-2.9388,-2.9388,-2.9398,-2.942,-2.9461,-2.9461,-2.947,-2.9461,-2.944,-2.9427,-2.945,-2.9521,-2.9626,-2.977,-3.0025,-3.0279,-3.0373,-3.0381,-3.0394,-3.0423,-3.0386,-3.051,-3.054,-3.051,-3.0559,-3.0598,-3.0607,-3.0607,-3.0607,-3.0607,-3.0607,-3.0607,-3.0607,-3.0607,-3.0607,-3.0607,-3.0607,-3.0607,-3.0607,-3.0607,-3.0607,-3.0607,-3.0607,-3.0607,-3.0607,-3.0607,-3.0607,-3.0607,-3.0607,-3.0607,-3.0606,-3.0605,-3.0632,-3.0649,-3.0647,-3.0657,-3.064,-3.0622,-3.0614,-3.0647,-3.0603,-3.0866,-3.1216,-3.135,-3.151,-3.2039,-3.28,-3.3779,-3.5002,-3.5191,-3.5299,-3.5697,-3.5745,-3.5755,-3.5764,-3.5807,-3.5857,-3.5859,-3.584,-3.5872,-3.5889,-3.5885,-3.5878,-3.5878,-3.5874,-3.5874,-3.5852,-3.5846,-3.5767,-3.572,-3.5678,-3.565,-3.5619,-3.5597,-3.5577,-3.5554,-3.5545,-3.5578,-3.564,-3.5705,-3.5774,-3.582,-3.5868,-3.5889,-3.6064,-3.5899,-3.5889,-3.6084,-3.6162,-3.5967,-3.5938,-3.6079,-3.6094,-2.9329,-2.9398,-2.9388,-2.9388,-2.9388,-2.9398,-2.9398,-2.9398,-2.9388,-2.9398,-2.9388,-2.9388,-2.9439,-2.9491,-2.9551,-2.9717,-2.9975,-3.0188,-3.0257,-3.0273,-3.0378,-3.0398,-3.0384,-3.046,-3.0569,-3.0607,-3.0607,-3.0607,-3.0607,-3.0607,-3.0607,-3.0607,-3.0607,-3.0607,-3.0607,-3.0607,-3.0607,-3.0607,-3.0607,-3.0607,-3.0607,-3.0607,-3.0607,-3.0607,-3.0607,-3.0607,-3.0607,-3.0607,-3.0607,-3.0607,-3.0607,-3.0607,-3.0607,-3.0607,-3.0607,-3.0607,-3.0607,-3.0616,-3.0616,-3.0607,-3.0617,-3.0607,-3.0607,-3.0607,-3.0665,-3.0733,-3.079,-3.1029,-3.1702,-3.2776,-3.4056,-3.4282,-3.4672,-3.5204,-3.5476,-3.5563,-3.5699,-3.5756,-3.5783,-3.5809,-3.5805,-3.584,-3.5864,-3.5862,-3.5856,-3.585,-3.5846,-3.583,-3.5807,-3.576,-3.5676,-3.5611,-3.5569,-3.5478,-3.5445,-3.5441,-3.5428,-3.5418,-3.5432,-3.5483,-3.5521,-3.5568,-3.5641,-3.5796,-3.584,-3.5856,-3.5874,-3.5889,-3.5889,-3.5889,-3.5889,-3.5889,-3.5889,-3.5889,-3.5884,-2.9778,-2.9388,-2.9388,-2.9388,-2.9388,-2.9388,-2.9388,-2.9388,-2.9388,-2.9388,-2.9388,-2.9398,-2.9407,-2.9479,-2.9617,-2.9795,-2.995,-3.0071,-3.0109,-3.0133,-3.0219,-3.0266,-3.039,-3.0442,-3.052,-3.0588,-3.0607,-3.0607,-3.0607,-3.0607,-3.0607,-3.0607,-3.0607,-3.0607,-3.0607,-3.0607,-3.0607,-3.0607,-3.0607,-3.0607,-3.0607,-3.0607,-3.0607,-3.0607,-3.0607,-3.0607,-3.0607,-3.0607,-3.0607,-3.0607,-3.0607,-3.0607,-3.0607,-3.0607,-3.0607,-3.0607,-3.0607,-3.0607,-3.0607,-3.0607,-3.0607,-3.0607,-3.0607,-3.0607,-3.0607,-3.0607,-3.0617,-3.0781,-3.1312,-3.2222,-3.319,-3.3345,-3.3761,-3.4313,-3.4651,-3.4883,-3.5425,-3.5611,-3.567,-3.5737,-3.5764,-3.5772,-3.5772,-3.5763,-3.5742,-3.5714,-3.5704,-3.5668,-3.564,-3.5582,-3.5508,-3.5469,-3.5435,-3.535,-3.5266,-3.5251,-3.526,-3.5266,-3.5296,-3.5331,-3.5378,-3.5409,-3.5502,-3.564,-3.5757,-3.5779,-3.581,-3.5856,-3.5862,-3.584,-3.5862,-3.5883,-3.5883,-3.5874,-3.5893,-2.9647,-2.9398,-2.9388,-2.9388,-2.9388,-2.9388,-2.9388,-2.9388,-2.9388,-2.9388,-2.9388,-2.9388,-2.9388,-2.9429,-2.9541,-2.9681,-2.9822,-3.0,-3.0015,-3.0045,-3.0198,-3.0327,-3.0415,-3.0452,-3.053,-3.0598,-3.0607,-3.0607,-3.0607,-3.0607,-3.0607,-3.0607,-3.0607,-3.0607,-3.0607,-3.0607,-3.0598,-3.0607,-3.0607,-3.0607,-3.0607,-3.0607,-3.0607,-3.0607,-3.0607,-3.0607,-3.0607,-3.0607,-3.0607,-3.0607,-3.0607,-3.0607,-3.0607,-3.0607,-3.0607,-3.0607,-3.0607,-3.0607,-3.0607,-3.0607,-3.0607,-3.0607,-3.0607,-3.0607,-3.0607,-3.0607,-3.0607,-3.0704,-3.083,-3.1516,-3.2338,-3.2425,-3.2861,-3.3499,-3.3741,-3.4147,-3.4756,-3.4988,-3.5231,-3.5504,-3.5611,-3.5611,-3.563,-3.562,-3.5591,-3.558,-3.5549,-3.5506,-3.5459,-3.5409,-3.5357,-3.5359,-3.5331,-3.5291,-3.5216,-3.52,-3.5183,-3.519,-3.519,-3.5245,-3.5276,-3.5302,-3.5391,-3.55,-3.559,-3.565,-3.5697,-3.5716,-3.5749,-3.5779,-3.5757,-3.5766,-3.5833,-3.5868,-3.585,-2.9388,-2.9388,-2.9388,-2.9388,-2.9388,-2.9388,-2.9388,-2.9388,-2.9388,-2.9388,-2.9388,-2.9388,-2.9388,-2.9409,-2.9461,-2.955,-2.9701,-2.994,-2.9994,-3.0056,-3.026,-3.0426,-3.0458,-3.0499,-3.0579,-3.0569,-3.0579,-3.0579,-3.0607,-3.0607,-3.0607,-3.0607,-3.0607,-3.0598,-3.0588,-3.0579,-3.0569,-3.0569,-3.0579,-3.0579,-3.0569,-3.0579,-3.0588,-3.0598,-3.0569,-3.0588,-3.0588,-3.0569,-3.0588,-3.0598,-3.0607,-3.0607,-3.0607,-3.0607,-3.0607,-3.0607,-3.0607,-3.0607,-3.0607,-3.0607,-3.0607,-3.0607,-3.0607,-3.0607,-3.0607,-3.0607,-3.0607,-3.0607,-3.0665,-3.0868,-3.1468,-3.1565,-3.2,-3.258,-3.289,-3.3121,-3.3787,-3.42,-3.4501,-3.4834,-3.523,-3.5372,-3.5312,-3.5473,-3.5441,-3.538,-3.5339,-3.5325,-3.5268,-3.5239,-3.5212,-3.5232,-3.5229,-3.5216,-3.5186,-3.5203,-3.5193,-3.519,-3.519,-3.5207,-3.5207,-3.5207,-3.5311,-3.5387,-3.5418,-3.5473,-3.5529,-3.5617,-3.567,-3.5679,-3.564,-3.564,-3.5705,-3.5749,-3.5732,-2.9388,-2.9388,-2.9388,-2.9388,-2.9388,-2.9388,-2.9388,-2.9388,-2.9388,-2.9388,-2.9388,-2.9388,-2.9388,-2.9409,-2.9418,-2.9502,-2.9645,-2.9805,-2.9984,-3.0114,-3.0286,-3.0402,-3.0457,-3.0477,-3.0519,-3.053,-3.051,-3.0549,-3.0579,-3.0588,-3.0598,-3.0598,-3.0588,-3.0569,-3.052,-3.053,-3.052,-3.0519,-3.0509,-3.0519,-3.0519,-3.0519,-3.0519,-3.0519,-3.051,-3.052,-3.0521,-3.0521,-3.054,-3.0579,-3.0607,-3.0607,-3.0607,-3.0607,-3.0607,-3.0607,-3.0607,-3.0607,-3.0607,-3.0607,-3.0607,-3.0607,-3.0607,-3.0607,-3.0607,-3.0607,-3.0607,-3.0607,-3.0607,-3.0656,-3.0839,-3.081,-3.1226,-3.1613,-3.1961,-3.2364,-3.2929,-3.3157,-3.3484,-3.3942,-3.4268,-3.4692,-3.4875,-3.511,-3.5287,-3.521,-3.5145,-3.5119,-3.5119,-3.5102,-3.5095,-3.5131,-3.5157,-3.5152,-3.5171,-3.5162,-3.5169,-3.5167,-3.5183,-3.5183,-3.5167,-3.5176,-3.5193,-3.5254,-3.5276,-3.534,-3.5451,-3.5517,-3.5586,-3.5575,-3.5541,-3.5554,-3.5599,-3.5599,-3.561,-2.9388,-2.9388,-2.9388,-2.9388,-2.9388,-2.9388,-2.9388,-2.9388,-2.9388,-2.9388,-2.9388,-2.9388,-2.9411,-2.9502,-2.9502,-2.9608,-2.9759,-2.9893,-3.0007,-3.0169,-3.0286,-3.04,-3.0447,-3.0478,-3.0479,-3.049,-3.049,-3.0519,-3.053,-3.053,-3.053,-3.053,-3.054,-3.0539,-3.049,-3.049,-3.049,-3.0499,-3.049,-3.049,-3.049,-3.0479,-3.0479,-3.0479,-3.0489,-3.049,-3.0491,-3.0491,-3.05,-3.054,-3.0559,-3.054,-3.054,-3.055,-3.0569,-3.0607,-3.0607,-3.0607,-3.0607,-3.0607,-3.0607,-3.0607,-3.0607,-3.0607,-3.0607,-3.0607,-3.0607,-3.0607,-3.0607,-3.0607,-3.0607,-3.0607,-3.0723,-3.0954,-3.1156,-3.1515,-3.1929,-3.208,-3.2365,-3.2852,-3.3305,-3.3672,-3.4114,-3.456,-3.4792,-3.4952,-3.4939,-3.4986,-3.5007,-3.5037,-3.5046,-3.5056,-3.5083,-3.511,-3.512,-3.5147,-3.5137,-3.5135,-3.5135,-3.5135,-3.5135,-3.5145,-3.5152,-3.5179,-3.5203,-3.5279,-3.5364,-3.5383,-3.5401,-3.5415,-3.5438,-3.5457,-3.5495,-3.5495,-3.5519,-2.9388,-2.9388,-2.9388,-2.9388,-2.9388,-2.9388,-2.9388,-2.9388,-2.9388,-2.9388,-2.9409,-2.942,-2.9502,-2.9608,-2.9653,-2.9776,-2.9956,-3.0056,-3.0113,-3.0212,-3.0316,-3.0394,-3.0425,-3.0457,-3.0468,-3.0478,-3.0477,-3.0498,-3.0499,-3.0478,-3.0479,-3.0481,-3.05,-3.0489,-3.0469,-3.0459,-3.0469,-3.0468,-3.0468,-3.0468,-3.0468,-3.0468,-3.0458,-3.0468,-3.0487,-3.0477,-3.0468,-3.0469,-3.0459,-3.0487,-3.0499,-3.051,-3.0501,-3.0511,-3.052,-3.0569,-3.0588,-3.0607,-3.0607,-3.0607,-3.0607,-3.0607,-3.0598,-3.0588,-3.0538,-3.0569,-3.0579,-3.054,-3.0588,-3.0598,-3.0607,-3.0579,-3.0558,-3.0516,-3.0491,-3.0775,-3.104,-3.1205,-3.1479,-3.1964,-3.234,-3.2497,-3.303,-3.3762,-3.4228,-3.4555,-3.4717,-3.4784,-3.4869,-3.4917,-3.4983,-3.4993,-3.5001,-3.5047,-3.5075,-3.5084,-3.5084,-3.5075,-3.5092,-3.5092,-3.511,-3.511,-3.511,-3.5137,-3.5147,-3.5188,-3.5283,-3.5258,-3.5223,-3.5276,-3.5326,-3.5345,-3.5373,-3.5373,-3.5415,-2.9388,-2.9388,-2.9388,-2.9388,-2.9388,-2.9388,-2.9388,-2.9388,-2.9388,-2.9388,-2.9409,-2.9531,-2.957,-2.9653,-2.9801,-2.9946,-3.0095,-3.0099,-3.0209,-3.0323,-3.04,-3.039,-3.0412,-3.0412,-3.0423,-3.0415,-3.0425,-3.0455,-3.0477,-3.0444,-3.0466,-3.0489,-3.0478,-3.0439,-3.0418,-3.0417,-3.0425,-3.0423,-3.0412,-3.0412,-3.0412,-3.0412,-3.0412,-3.0412,-3.041,-3.04,-3.039,-3.0415,-3.0435,-3.0481,-3.0476,-3.0469,-3.047,-3.0481,-3.0501,-3.052,-3.0569,-3.0579,-3.0598,-3.0598,-3.0607,-3.0607,-3.0598,-3.0537,-3.0458,-3.0538,-3.0539,-3.0439,-3.051,-3.0559,-3.0549,-3.05,-3.0429,-3.034,-3.0279,-3.0316,-3.0462,-3.0371,-3.0679,-3.1111,-3.1371,-3.1504,-3.1646,-3.2326,-3.3226,-3.3598,-3.4187,-3.4281,-3.4652,-3.4766,-3.4889,-3.4936,-3.4936,-3.4955,-3.5011,-3.5011,-3.502,-3.5029,-3.5047,-3.5047,-3.5075,-3.5075,-3.5038,-3.5075,-3.5084,-3.5139,-3.5183,-3.5205,-3.5193,-3.519,-3.5213,-3.5266,-3.5266,-3.5276,-3.5316,-2.9388,-2.9388,-2.9388,-2.9388,-2.9388,-2.9388,-2.9388,-2.9388,-2.9388,-2.9388,-2.9388,-2.9532,-2.9681,-2.981,-2.9937,-3.0118,-3.0267,-3.0276,-3.0323,-3.0357,-3.0388,-3.0388,-3.0388,-3.04,-3.04,-3.0402,-3.04,-3.04,-3.0442,-3.0419,-3.0431,-3.0433,-3.0435,-3.0414,-3.0392,-3.0392,-3.0402,-3.04,-3.0388,-3.0388,-3.0388,-3.0388,-3.0388,-3.0388,-3.0388,-3.0388,-3.04,-3.0402,-3.041,-3.0429,-3.0452,-3.0446,-3.0437,-3.0449,-3.046,-3.048,-3.053,-3.054,-3.0549,-3.0569,-3.0607,-3.0588,-3.0536,-3.0453,-3.0353,-3.0405,-3.0388,-3.0381,-3.0406,-3.0458,-3.0412,-3.0404,-3.0373,-3.0264,-3.017,-3.0099,-3.0055,-3.0,-3.007,-3.0594,-3.054,-3.0492,-3.0625,-3.0814,-3.1762,-3.2624,-3.324,-3.3799,-3.4102,-3.4387,-3.4425,-3.4586,-3.4586,-3.4595,-3.4632,-3.4756,-3.4917,-3.4907,-3.4906,-3.485,-3.4802,-3.4955,-3.4926,-3.4974,-3.4887,-3.4808,-3.4853,-3.5105,-3.5186,-3.5164,-3.5181,-3.5207,-3.519,-3.519,-3.5229,-2.9356,-2.9356,-2.9356,-2.9386,-2.9398,-2.9388,-2.9388,-2.9388,-2.9388,-2.9388,-2.9409,-2.9598,-2.9759,-2.9915,-3.0114,-3.0251,-3.0355,-3.0388,-3.0388,-3.0388,-3.0388,-3.0388,-3.0388,-3.0388,-3.04,-3.0388,-3.0388,-3.041,-3.041,-3.041,-3.041,-3.041,-3.0388,-3.04,-3.04,-3.0388,-3.0388,-3.0388,-3.0388,-3.0388,-3.0388,-3.0388,-3.0388,-3.0388,-3.0388,-3.0388,-3.0388,-3.04,-3.04,-3.0398,-3.04,-3.0402,-3.0404,-3.0406,-3.0426,-3.0458,-3.0489,-3.0479,-3.0499,-3.053,-3.055,-3.0453,-3.0388,-3.0291,-3.0228,-3.0204,-3.0188,-3.0147,-3.0218,-3.0279,-3.0221,-3.0209,-3.0182,-3.0066,-3.0025,-2.9946,-2.9921,-2.9905,-2.9914,-3.0078,-2.9993,-3.003,-3.0106,-3.0334,-3.0947,-3.1876,-3.2605,-3.3041,-3.324,-3.3505,-3.3704,-3.3913,-3.4131,-3.414,-3.4159,-3.4481,-3.468,-3.4329,-3.4348,-3.4386,-3.4415,-3.4481,-3.4235,-3.3836,-3.3854,-3.4203,-3.4208,-3.403,-3.453,-3.5126,-3.5095,-3.5009,-3.519,-3.519,-3.519,-2.924,-2.9302,-2.9302,-2.9344,-2.9398,-2.9388,-2.9388,-2.9388,-2.9388,-2.9409,-2.9453,-2.9734,-2.9876,-2.9981,-3.0215,-3.0355,-3.0388,-3.0388,-3.0388,-3.0388,-3.0388,-3.0388,-3.0388,-3.0388,-3.0388,-3.0388,-3.0388,-3.0388,-3.0388,-3.0388,-3.0388,-3.0388,-3.0388,-3.0388,-3.0388,-3.0388,-3.0388,-3.0388,-3.0388,-3.0388,-3.0388,-3.0388,-3.0388,-3.0388,-3.0388,-3.0388,-3.0388,-3.0388,-3.0388,-3.0388,-3.0388,-3.04,-3.039,-3.039,-3.0402,-3.0417,-3.0468,-3.0489,-3.0489,-3.0509,-3.0404,-3.0288,-3.0244,-3.0141,-2.9961,-2.9912,-2.9971,-2.9928,-2.9962,-3.0027,-2.9998,-2.9958,-2.994,-2.9921,-2.9874,-2.985,-2.9823,-2.9831,-2.9874,-2.9884,-2.9891,-2.9917,-2.9917,-3.004,-3.0419,-3.1101,-3.1923,-3.2312,-3.2444,-3.2785,-3.307,-3.3221,-3.3486,-3.342,-3.3524,-3.4235,-3.4415,-3.3998,-3.3714,-3.3695,-3.3543,-3.3373,-3.307,-3.27,-3.2907,-3.3332,-3.3078,-3.2727,-3.3519,-3.4276,-3.4703,-3.4789,-3.5018,-3.499,-3.4751,-2.924,-2.9292,-2.9292,-2.9344,-2.9398,-2.9388,-2.9388,-2.9388,-2.9409,-2.9446,-2.9585,-2.9813,-2.9965,-3.009,-3.0241,-3.0388,-3.0388,-3.0388,-3.0388,-3.0388,-3.0388,-3.0388,-3.0388,-3.0388,-3.0388,-3.0388,-3.0388,-3.0388,-3.0388,-3.0388,-3.0388,-3.0388,-3.0388,-3.0388,-3.0388,-3.0388,-3.0388,-3.0388,-3.0388,-3.0388,-3.0388,-3.0388,-3.0388,-3.0388,-3.0388,-3.0388,-3.0388,-3.0388,-3.0388,-3.0388,-3.0388,-3.0388,-3.0388,-3.0388,-3.04,-3.0392,-3.0423,-3.0423,-3.0381,-3.034,-3.0225,-3.0175,-3.0112,-3.0007,-2.9861,-2.9804,-2.9774,-2.9753,-2.9803,-2.9844,-2.9805,-2.9844,-2.9836,-2.9798,-2.9764,-2.9774,-2.9782,-2.9808,-2.9833,-2.9842,-2.9842,-2.9874,-2.9881,-2.9907,-3.0201,-3.0428,-3.1174,-3.1468,-3.161,-3.2198,-3.2615,-3.2624,-3.2728,-3.2643,-3.2814,-3.3363,-3.3486,-3.3041,-3.2852,-3.2833,-3.2634,-3.2378,-3.2321,-3.2169,-3.232,-3.2441,-3.2243,-3.2178,-3.2712,-3.3322,-3.3465,-3.3713,-3.3853,-3.3805,-3.3691,-2.9197,-2.9271,-2.924,-2.9283,-2.9356,-2.9386,-2.9388,-2.9388,-2.9461,-2.9523,-2.9635,-2.9845,-2.9998,-3.0146,-3.0299,-3.0388,-3.0388,-3.0388,-3.0388,-3.0388,-3.0388,-3.0388,-3.0388,-3.0388,-3.0388,-3.0388,-3.0388,-3.0388,-3.0388,-3.0388,-3.0388,-3.0388,-3.0388,-3.0388,-3.0388,-3.0388,-3.0388,-3.0388,-3.0388,-3.0388,-3.0388,-3.0388,-3.0388,-3.0388,-3.0388,-3.0388,-3.0388,-3.0379,-3.0359,-3.034,-3.035,-3.035,-3.035,-3.0369,-3.0379,-3.0388,-3.0323,-3.0301,-3.0244,-3.0142,-3.0027,-2.9956,-2.9956,-2.984,-2.9704,-2.9633,-2.9597,-2.9608,-2.9654,-2.9664,-2.9654,-2.969,-2.9672,-2.9636,-2.9655,-2.9673,-2.9673,-2.9691,-2.9773,-2.9773,-2.9808,-2.9841,-2.9881,-2.9898,-2.9993,-3.0173,-3.039,-3.0608,-3.0817,-3.1336,-3.179,-3.1764,-3.1782,-3.1724,-3.1876,-3.2312,-3.2321,-3.2046,-3.1989,-3.198,-3.1752,-3.1525,-3.1582,-3.1563,-3.139,-3.1329,-3.1511,-3.1692,-3.1809,-3.1787,-3.1735,-3.2075,-3.251,-3.2707,-3.2764,-2.9076,-2.9178,-2.9112,-2.9184,-2.9292,-2.9365,-2.9377,-2.9427,-2.9541,-2.9612,-2.9652,-2.9966,-3.0099,-3.0155,-3.0321,-3.0398,-3.0388,-3.0388,-3.0388,-3.0388,-3.0388,-3.0388,-3.0388,-3.0388,-3.0388,-3.0388,-3.0388,-3.0388,-3.0388,-3.0388,-3.0388,-3.0388,-3.0388,-3.0388,-3.0388,-3.0237,-3.0275,-3.0333,-3.0388,-3.0388,-3.0388,-3.0388,-3.0285,-3.0208,-3.0131,-3.0023,-2.9975,-2.9927,-3.0004,-3.0061,-3.0119,-3.0186,-3.0244,-3.0304,-3.0302,-3.0179,-2.9928,-2.9844,-2.9889,-2.9734,-2.9782,-2.968,-2.9657,-2.9532,-2.9479,-2.9467,-2.9468,-2.9459,-2.9471,-2.9491,-2.9511,-2.9491,-2.9471,-2.9491,-2.9512,-2.9521,-2.955,-2.9598,-2.9682,-2.9737,-2.9781,-2.9823,-2.9891,-2.9907,-2.9891,-2.9983,-3.0116,-3.0135,-3.0286,-3.0239,-3.0599,-3.0608,-3.0646,-3.0731,-3.0987,-3.1392,-3.1373,-3.1165,-3.1156,-3.1118,-3.0881,-3.0722,-3.0722,-3.0615,-3.0241,-3.0254,-3.0684,-3.0652,-3.0439,-3.0451,-3.0733,-3.1014,-3.164,-3.1956,-3.2114,-2.9053,-2.9121,-2.9108,-2.9152,-2.924,-2.9262,-2.9323,-2.9465,-2.952,-2.9639,-2.9898,-3.0042,-3.0155,-3.0267,-3.0376,-3.0388,-3.0388,-3.0388,-3.0388,-3.0388,-3.0398,-3.0388,-3.0388,-3.0388,-3.0388,-3.0388,-3.0388,-3.0388,-3.0388,-3.0388,-3.0388,-3.0388,-3.0275,-3.0314,-3.0073,-2.9785,-2.9938,-3.0092,-3.016,-3.0148,-3.0196,-3.0189,-2.9948,-2.9631,-2.9486,-2.9292,-2.8923,-2.881,-2.8792,-2.8716,-2.8662,-2.8643,-2.8621,-2.8611,-2.857,-2.8399,-2.8364,-2.8477,-2.893,-2.8924,-2.8961,-2.928,-2.9373,-2.9453,-2.9398,-2.936,-2.936,-2.9388,-2.9388,-2.9429,-2.945,-2.9429,-2.9409,-2.942,-2.9442,-2.9471,-2.9481,-2.952,-2.9598,-2.9636,-2.9691,-2.9808,-2.9867,-2.9874,-2.9874,-2.9891,-2.9907,-2.9907,-2.9907,-2.9907,-2.9917,-2.9964,-3.0021,-3.0267,-3.0201,-3.0476,-3.04,-3.0341,-3.0426,-3.0473,-3.0343,-3.0201,-2.9983,-2.9924,-2.994,-2.9972,-3.0098,-3.0022,-3.0032,-3.0087,-3.0321,-3.0489,-3.0714,-3.1087,-3.1397,-2.904,-2.9089,-2.9076,-2.9085,-2.9112,-2.9212,-2.9365,-2.9524,-2.9551,-2.9739,-3.001,-3.0144,-3.0238,-3.0292,-3.0357,-3.0388,-3.0367,-3.0388,-3.0388,-3.0357,-3.0398,-3.0388,-3.0388,-3.0398,-3.0388,-3.0388,-3.0379,-3.0388,-3.0321,-3.0321,-3.0333,-2.9833,-2.989,-2.9679,-2.9313,-2.8881,-2.8909,-2.914,-2.9333,-2.9419,-2.9465,-2.9475,-2.9034,-2.8754,-2.8619,-2.8241,-2.7821,-2.7727,-2.7704,-2.7704,-2.7701,-2.7714,-2.7733,-2.772,-2.772,-2.7645,-2.76,-2.7759,-2.8001,-2.7926,-2.8126,-2.8362,-2.8539,-2.8581,-2.894,-2.9087,-2.9256,-2.9388,-2.9388,-2.9388,-2.9388,-2.9398,-2.9388,-2.9388,-2.9409,-2.9459,-2.9459,-2.9459,-2.95,-2.9541,-2.9617,-2.9746,-2.9817,-2.9825,-2.9833,-2.985,-2.9857,-2.9865,-2.9881,-2.9907,-2.9907,-2.9926,-2.9926,-2.9983,-2.9907,-2.9907,-2.9993,-3.0068,-3.0078,-3.0068,-2.9907,-2.9907,-2.9907,-2.9907,-2.9907,-2.994,-2.9972,-2.9956,-2.9981,-3.0022,-3.0038,-3.0171,-3.0281,-3.0379,-3.0656,-2.904,-2.9085,-2.9007,-2.903,-2.9035,-2.9237,-2.9411,-2.9633,-2.9691,-2.9814,-3.0031,-3.02,-3.027,-3.0289,-3.0355,-3.0355,-3.0343,-3.0364,-3.0355,-3.0295,-3.0355,-3.0376,-3.0386,-3.0376,-3.0232,-3.0261,-3.0177,-2.9884,-3.003,-2.9838,-2.9406,-2.9025,-2.8973,-2.8739,-2.8269,-2.784,-2.7771,-2.7819,-2.7783,-2.7716,-2.803,-2.7974,-2.7841,-2.7761,-2.7691,-2.7572,-2.7373,-2.73,-2.7317,-2.7218,-2.7147,-2.7053,-2.7015,-2.6996,-2.7011,-2.6967,-2.6735,-2.6874,-2.6951,-2.6933,-2.7009,-2.7035,-2.6931,-2.7464,-2.8041,-2.8671,-2.8903,-2.9332,-2.9388,-2.9388,-2.9388,-2.9388,-2.9388,-2.9388,-2.9418,-2.9418,-2.9418,-2.9439,-2.947,-2.9511,-2.956,-2.9682,-2.9738,-2.9764,-2.9792,-2.98,-2.9798,-2.9806,-2.9823,-2.9857,-2.9891,-2.9891,-2.9898,-2.9898,-2.9907,-2.9907,-2.9907,-2.9917,-2.9907,-2.9907,-2.9907,-2.9907,-2.9907,-2.9907,-2.9907,-2.9907,-2.9924,-2.9924,-2.9914,-2.994,-2.9956,-2.9946,-2.9972,-3.0028,-3.0154,-2.9007,-2.9017,-2.9007,-2.9071,-2.9218,-2.9282,-2.9513,-2.9825,-2.9848,-2.9965,-3.0137,-3.0211,-3.0247,-3.026,-3.0305,-3.0318,-3.0305,-3.0327,-3.0305,-3.0209,-3.0222,-3.0042,-3.0203,-3.0004,-2.9848,-2.9493,-2.9253,-2.9092,-2.8814,-2.8581,-2.8418,-2.8119,-2.8016,-2.7717,-2.7392,-2.6969,-2.6606,-2.66,-2.6225,-2.6568,-2.7287,-2.7462,-2.745,-2.6931,-2.6603,-2.6279,-2.5988,-2.5653,-2.558,-2.5477,-2.5493,-2.5479,-2.5473,-2.5512,-2.5466,-2.5392,-2.5512,-2.5731,-2.5953,-2.606,-2.6191,-2.6608,-2.6786,-2.6972,-2.7391,-2.8023,-2.857,-2.9026,-2.9342,-2.9323,-2.9342,-2.9342,-2.9388,-2.9388,-2.9388,-2.9388,-2.9388,-2.9418,-2.9439,-2.9481,-2.9521,-2.9569,-2.9655,-2.9701,-2.972,-2.972,-2.9719,-2.9728,-2.9728,-2.9764,-2.9833,-2.9841,-2.9881,-2.9898,-2.9881,-2.9874,-2.9867,-2.9891,-2.9891,-2.9907,-2.9907,-2.9907,-2.9907,-2.9907,-2.9907,-2.9907,-2.9907,-2.9907,-2.9914,-2.9914,-2.9914,-2.9914,-2.9914,-2.9956,-3.0022,-2.8984,-2.8984,-2.8984,-2.9058,-2.9203,-2.9346,-2.957,-2.9778,-2.9953,-3.0079,-3.0195,-3.0213,-3.0207,-3.0221,-3.0289,-3.0232,-3.0218,-3.0312,-2.9973,-2.9819,-2.9666,-2.9362,-2.9362,-2.9283,-2.8893,-2.8531,-2.8464,-2.8212,-2.769,-2.7682,-2.7669,-2.7186,-2.6974,-2.6735,-2.6436,-2.5807,-2.5575,-2.5537,-2.4993,-2.5461,-2.6408,-2.6317,-2.622,-2.5687,-2.5531,-2.5225,-2.5078,-2.4785,-2.4771,-2.4751,-2.4809,-2.4818,-2.4849,-2.4851,-2.477,-2.4713,-2.4739,-2.4787,-2.5074,-2.529,-2.5457,-2.5838,-2.5884,-2.5771,-2.6328,-2.6916,-2.7278,-2.7762,-2.8533,-2.8625,-2.8877,-2.8933,-2.9258,-2.9388,-2.9388,-2.9388,-2.9388,-2.9398,-2.9418,-2.9439,-2.947,-2.947,-2.9528,-2.9528,-2.9559,-2.9589,-2.9608,-2.9617,-2.9645,-2.9579,-2.9654,-2.9709,-2.9708,-2.9762,-2.98,-2.98,-2.9808,-2.9833,-2.9857,-2.9891,-2.9891,-2.9907,-2.9907,-2.9907,-2.9907,-2.9907,-2.9907,-2.9907,-2.9907,-2.9898,-2.9898,-2.9907,-2.9907,-2.9924,-2.9981,-2.8984,-2.8984,-2.8984,-2.9007,-2.9098,-2.9435,-2.9626,-2.9716,-3.0025,-3.0204,-3.0128,-3.005,-3.0083,-3.0221,-3.01,-3.0068,-2.9924,-2.9573,-2.9286,-2.9009,-2.8849,-2.8616,-2.8271,-2.7939,-2.7831,-2.7555,-2.73,-2.7233,-2.6998,-2.6869,-2.6507,-2.6123,-2.5802,-2.5482,-2.4958,-2.474,-2.4804,-2.4835,-2.466,-2.466,-2.4753,-2.4741,-2.4932,-2.4932,-2.4842,-2.4784,-2.47,-2.4639,-2.4591,-2.4578,-2.4538,-2.4549,-2.4551,-2.456,-2.456,-2.4524,-2.4524,-2.4572,-2.463,-2.4676,-2.4667,-2.4639,-2.4509,-2.4805,-2.5462,-2.5771,-2.6126,-2.6591,-2.7361,-2.7974,-2.8197,-2.8578,-2.8951,-2.9237,-2.9237,-2.9358,-2.9368,-2.9368,-2.9377,-2.9407,-2.9407,-2.9407,-2.9365,-2.9365,-2.9379,-2.9403,-2.9443,-2.9492,-2.9482,-2.9372,-2.9332,-2.9364,-2.9375,-2.9463,-2.9645,-2.9701,-2.9701,-2.9782,-2.9808,-2.985,-2.9874,-2.9907,-2.9907,-2.9907,-2.9907,-2.9907,-2.9907,-2.9907,-2.9907,-2.9907,-2.9907,-2.9907,-2.9907,-2.9924,-2.9972,-2.8984,-2.8984,-2.8984,-2.908,-2.9261,-2.9485,-2.9671,-2.9862,-3.006,-3.0214,-2.9917,-2.9469,-2.9459,-3.0122,-2.9415,-2.9176,-2.91,-2.874,-2.832,-2.7972,-2.7947,-2.7829,-2.7577,-2.7166,-2.7096,-2.662,-2.5953,-2.5423,-2.5845,-2.5593,-2.5245,-2.5084,-2.4913,-2.4729,-2.4657,-2.4476,-2.44,-2.4434,-2.4452,-2.4434,-2.4521,-2.458,-2.4638,-2.4638,-2.4573,-2.4556,-2.4523,-2.4532,-2.4524,-2.4517,-2.4509,-2.4509,-2.4509,-2.4509,-2.4509,-2.4509,-2.4509,-2.4509,-2.4509,-2.4509,-2.4509,-2.4509,-2.4509,-2.4519,-2.4871,-2.4844,-2.5115,-2.5263,-2.6015,-2.6849,-2.7277,-2.79,-2.8327,-2.8613,-2.8743,-2.9094,-2.9307,-2.9316,-2.9335,-2.9335,-2.9335,-2.9262,-2.9175,-2.9143,-2.908,-2.9097,-2.9043,-2.9075,-2.9119,-2.9052,-2.903,-2.9052,-2.9075,-2.9321,-2.9569,-2.955,-2.9589,-2.9673,-2.9746,-2.9781,-2.9823,-2.9891,-2.9907,-2.9898,-2.9898,-2.9907,-2.9907,-2.9907,-2.9907,-2.9907,-2.9907,-2.9907,-2.9907,-2.9924,-2.9956]}]]